Date StartTime U_cm/s V_cm/s W_cm/s Ustd_cm/s Vstd_cm/s Wstd_cm/s Uvar_(cm/s)^2 Vvar_(cm/s)^2 Wvar_(cm/s)^2 KE_(m/s)^2 TurbulentKE_(m/s)^2 HorizWindSpeed_cm/s FrictionSpeec_cm/s DragCoef SpeedOfSound_m/s SonicTemperature_C Pressure_mb 
09/01/2013  00:00:00      -28.943      -41.941        2.738       33.450       29.962       21.741     1118.932      897.728      472.690        0.255        0.124       50.959       21.415        0.177      346.214       24.300      861.494
09/01/2013  00:01:00      -82.759      -43.043        3.235       34.508       32.711       19.701     1190.768     1070.002      388.143        0.568        0.132       93.283       18.920        0.041      346.225       24.318      861.507
09/01/2013  00:02:00      -66.457      -18.668        5.236       38.266       31.740       21.951     1464.249     1007.411      481.833        0.387        0.148       69.029       24.926        0.130      346.122       24.142      861.524
09/01/2013  00:03:00      -23.562      -43.312        8.229       34.895       26.343       18.526     1217.656      693.954      343.198        0.238        0.113       49.307       16.541        0.113      346.244       24.352      861.537
09/01/2013  00:04:00      -40.788        0.890        5.829       28.497       19.114       12.139      812.058      365.342      147.360        0.151        0.066       40.798       14.577        0.128      346.015       23.960      861.538
09/01/2013  00:05:00      -81.014       29.561       -4.641       25.581       15.901       12.971      654.384      252.846      168.257        0.427        0.054       86.239        7.350        0.007      346.194       24.266      861.535
09/01/2013  00:06:00     -112.484       56.630      -10.687       33.850       24.303       18.403     1145.831      590.625      338.653        0.902        0.104      125.935       16.564        0.017      346.405       24.628      861.537
09/01/2013  00:07:00      -64.126       55.524      -17.210       20.191       22.857       17.904      407.693      522.462      320.563        0.437        0.063       84.823       12.719        0.022      346.602       24.968      861.526
09/01/2013  00:08:00      -45.540       67.303       -0.932       25.126       26.076       15.209      631.339      679.940      231.304        0.407        0.077       81.262       15.104        0.035      346.489       24.773      861.522
09/01/2013  00:09:00      -10.611       49.184       -1.425       36.398       29.434       14.586     1324.799      866.388      212.760        0.247        0.120       50.316       16.702        0.110      346.106       24.114      861.531
09/01/2013  00:10:00       18.832      100.737      -10.364       19.508       59.732       18.571      380.576     3567.915      344.882        0.745        0.215      102.482       19.070        0.035      346.257       24.375      861.531
09/01/2013  00:11:00       34.699       78.539       12.537       35.918       46.856       26.698     1290.130     2195.444      712.799        0.586        0.210       85.862       27.755        0.104      346.368       24.564      861.531
09/01/2013  00:12:00      121.271       75.168       24.536       46.635       35.762       37.242     2174.846     1278.891     1386.999        1.290        0.242      142.677       21.776        0.023      346.234       24.334      861.544
09/01/2013  00:13:00      124.809       61.330       34.842       60.015       40.626       38.204     3601.795     1650.455     1459.579        1.363        0.336      139.063       28.972        0.043      346.045       24.011      861.557
09/01/2013  00:14:00       73.091       42.591        6.399       57.267       44.340       35.498     3279.487     1966.006     1260.084        0.685        0.325       84.595       21.817        0.067      346.119       24.138      861.556
09/01/2013  00:15:00       24.023       29.327       -5.278       34.543       31.856       19.222     1193.194     1014.781      369.503        0.202        0.129       37.910       21.782        0.330      346.239       24.344      861.552
09/01/2013  00:16:00      -15.630       17.458        5.399       30.813       17.870       13.776      949.412      319.320      189.769        0.102        0.073       23.432        9.442        0.162      346.139       24.173      861.552
09/01/2013  00:17:00      -79.289       -3.219       -8.209       16.235       19.786       12.073      263.566      391.473      145.766        0.358        0.040       79.355        9.219        0.013      346.028       23.982      861.558
09/01/2013  00:18:00     -103.568      -35.161      -14.008       20.133       12.984       11.088      405.338      168.579      122.935        0.643        0.035      109.374        8.249        0.006      346.171       24.227      861.559
09/01/2013  00:19:00      -53.790      -15.868        0.058       20.960       16.980        9.832      439.342      288.310       96.670        0.198        0.041       56.081       10.643        0.036      346.174       24.231      861.558
09/01/2013  00:20:00      -68.508       12.935        1.509       33.647       22.421       18.493     1132.089      502.704      342.006        0.342        0.099       69.719       19.265        0.076      346.111       24.122      861.553
09/01/2013  00:21:00      -61.117       -7.721       -2.197       53.512       25.291       13.686     2863.542      639.623      187.311        0.374        0.185       61.603       17.515        0.081      346.355       24.543      861.552
09/01/2013  00:22:00      -92.547       34.285       -5.419       27.381       41.483       18.897      749.741     1720.814      357.097        0.630        0.141       98.693       17.903        0.033      346.435       24.679      861.548
09/01/2013  00:23:00     -102.826      -30.303      -13.675       37.866       30.482       17.802     1433.858      929.182      316.920        0.718        0.134      107.198       16.121        0.023      346.368       24.565      861.547
09/01/2013  00:24:00      -31.257       -7.620       13.082       18.748       28.516       13.837      351.480      813.168      191.449        0.128        0.068       32.173       11.534        0.129      346.039       23.999      861.538
09/01/2013  00:25:00       -9.991       23.960       12.733       22.529       13.138       22.281      507.564      172.600      496.451        0.101        0.059       25.960       12.166        0.220      345.495       23.067      861.530
09/01/2013  00:26:00       -5.476       15.929       14.757       13.903       15.539       13.968      193.292      241.472      195.110        0.057        0.031       16.844        9.285        0.304      345.271       22.682      861.529
09/01/2013  00:27:00       15.093       16.355        0.217       23.608       16.645       17.171      557.336      277.043      294.849        0.081        0.056       22.255        9.155        0.169      345.430       22.955      861.544
09/01/2013  00:28:00       16.987        9.365       11.296       16.948       17.387       14.848      287.238      302.301      220.465        0.066        0.041       19.397       11.422        0.347      345.229       22.610      861.541
09/01/2013  00:29:00       40.662       -2.161        5.578       26.209       20.935       18.387      686.918      438.292      338.088        0.158        0.073       40.719       13.075        0.103      345.441       22.973      861.538
09/01/2013  00:30:00       47.993      -19.902        2.672       19.116       22.400       26.890      365.406      501.740      723.054        0.215        0.080       51.956       15.159        0.085      345.137       22.451      861.553
09/01/2013  00:31:00       44.422        1.108      -12.959       20.802       30.349       25.633      432.725      921.034      657.071        0.208        0.101       44.436       13.057        0.086      345.493       23.063      861.558
09/01/2013  00:32:00       33.459       29.960       11.707       21.783       24.382       20.185      474.487      594.462      407.419        0.181        0.074       44.912       14.512        0.104      345.660       23.349      861.560
09/01/2013  00:33:00       39.582       18.198       15.018       23.076       17.434       15.121      532.481      303.942      228.654        0.159        0.053       43.565        9.237        0.045      345.826       23.634      861.560
09/01/2013  00:34:00       53.943       32.198        3.365       15.973       14.501       19.879      255.122      210.277      395.187        0.241        0.043       62.822        8.731        0.019      345.892       23.746      861.571
09/01/2013  00:35:00       58.474       19.607      -27.868       17.668       20.520       19.559      312.154      421.064      382.553        0.285        0.056       61.674        8.648        0.020      345.502       23.080      861.570
09/01/2013  00:36:00       56.585        8.945      -21.338       19.522       31.354       19.304      381.114      983.075      372.659        0.274        0.087       57.287       11.161        0.038      345.315       22.758      861.566
09/01/2013  00:37:00       38.344       62.514      -12.295       25.757       22.030       16.860      663.445      485.337      284.256        0.348        0.072       73.337       15.139        0.043      346.308       24.460      861.562
09/01/2013  00:38:00       81.138       54.275        7.537       20.361       25.760       16.082      414.556      663.557      258.645        0.546        0.067       97.617       10.618        0.012      346.094       24.094      861.549
09/01/2013  00:39:00       46.038       24.067        6.764       20.509       18.580       13.710      420.621      345.214      187.953        0.185        0.048       51.949        8.023        0.024      346.006       23.944      861.561
09/01/2013  00:40:00       74.922       30.914       14.802       36.292       24.222       17.992     1317.125      586.693      323.728        0.451        0.111       81.049       15.664        0.037      346.019       23.966      861.578
09/01/2013  00:41:00      110.265       46.894       10.784       23.559       20.057       16.118      555.050      402.277      259.803        0.785        0.061      119.822        9.465        0.006      346.005       23.941      861.596
09/01/2013  00:42:00       83.642       40.175       18.223       30.877       20.567       19.960      953.391      423.016      398.403        0.536        0.089       92.790       16.751        0.033      346.067       24.048      861.607
09/01/2013  00:43:00       94.315       53.770        9.335       26.693       25.308       19.189      712.530      640.494      368.210        0.680        0.086      108.566       15.649        0.021      346.113       24.128      861.618
09/01/2013  00:44:00       96.160       59.979        5.742       31.046       24.501       18.244      963.853      600.321      332.850        0.739        0.095      113.333       14.703        0.017      346.058       24.033      861.616
09/01/2013  00:45:00       52.554       32.674        9.266       37.927       25.852       18.049     1438.457      668.308      325.772        0.317        0.122       61.883       15.538        0.063      345.959       23.864      861.614
09/01/2013  00:46:00       25.016       50.470       -0.090       31.542       28.912       25.749      994.925      835.909      663.023        0.283        0.125       56.330       20.206        0.129      346.082       24.073      861.618
09/01/2013  00:47:00        5.186       71.321       -9.579       20.918       17.835       11.130      437.565      318.091      123.872        0.304        0.044       71.509       10.396        0.021      346.128       24.151      861.629
09/01/2013  00:48:00        1.781       43.031       -6.151       11.774       10.472        9.660      138.617      109.661       93.320        0.112        0.017       43.068        6.879        0.026      345.993       23.921      861.635
09/01/2013  00:49:00       27.525       42.759        7.179       16.479       15.008       14.229      271.562      225.246      202.463        0.167        0.035       50.852        9.202        0.033      346.031       23.985      861.630
09/01/2013  00:50:00       46.968       48.828       10.026       20.920       16.860       15.389      437.632      284.269      236.819        0.282        0.048       67.750       10.599        0.024      346.105       24.113      861.631
09/01/2013  00:51:00       48.080       42.017        8.004       31.762       22.084       14.758     1008.833      487.725      217.797        0.293        0.086       63.852        8.401        0.017      346.154       24.198      861.640
09/01/2013  00:52:00        8.967       69.734       -7.711       24.688       30.451       12.873      609.492      927.244      165.715        0.335        0.085       70.309       11.606        0.027      346.259       24.379      861.658
09/01/2013  00:53:00       14.696       88.826       -9.581       25.349       17.418       16.289      642.575      303.387      265.317        0.470        0.061       90.034       13.011        0.021      346.282       24.415      861.656
09/01/2013  00:54:00       17.009      112.053      -14.077       22.485       22.328       16.280      505.575      498.544      265.030        0.716        0.063      113.337       13.599        0.014      346.323       24.488      861.650
09/01/2013  00:55:00       47.672       58.918        5.309       34.369       34.087       26.621     1181.222     1161.933      708.668        0.441        0.153       75.789       24.376        0.103      346.155       24.200      861.640
09/01/2013  00:56:00       54.778       62.457        0.360       32.248       24.703       21.698     1039.943      610.252      470.783        0.451        0.106       83.076       14.220        0.029      346.148       24.186      861.634
09/01/2013  00:57:00        3.462       80.499      -13.145       22.996       20.348       13.488      528.817      414.043      181.918        0.389        0.056       80.574        9.685        0.014      346.283       24.418      861.635
09/01/2013  00:58:00      -14.931       32.886       -0.960       18.965       24.707       11.007      359.685      610.422      121.149        0.120        0.055       36.117       12.786        0.125      346.160       24.207      861.641
09/01/2013  00:59:00      -34.503      -24.360       -5.376       28.957       37.811        6.618      838.484     1429.704       43.799        0.206        0.116       42.236        5.631        0.018      346.022       23.970      861.643
09/01/2013  01:00:00      -29.573      -15.124        6.020       29.560       22.442       13.100      873.769      503.623      171.610        0.134        0.077       33.216       14.848        0.200      345.906       23.772      861.645
09/01/2013  01:01:00      -35.045       -3.612       -1.492       33.463       18.537       17.368     1119.766      343.630      301.657        0.150        0.088       35.231       21.139        0.360      345.984       23.906      861.657
09/01/2013  01:02:00      -50.166        7.427       -5.893       28.129       18.185       14.229      791.225      330.695      202.455        0.197        0.066       50.713       10.986        0.047      346.172       24.229      861.661
09/01/2013  01:03:00      -59.559       18.105       -5.748       10.951       14.049       10.015      119.917      197.363      100.306        0.216        0.021       62.250        7.454        0.014      346.129       24.154      861.653
09/01/2013  01:04:00      -42.962       -4.124       -3.115       15.112       18.352       12.055      228.366      336.795      145.326        0.129        0.036       43.160        8.866        0.042      346.131       24.158      861.646
09/01/2013  01:05:00      -65.042       -7.260      -11.231       15.306       11.452        8.245      234.275      131.145       67.974        0.242        0.022       65.445        4.604        0.005      346.061       24.038      861.641
09/01/2013  01:06:00      -79.734      -17.241       -4.327       18.006       12.659       10.554      324.224      160.261      111.394        0.363        0.030       81.577        9.905        0.015      345.991       23.920      861.642
09/01/2013  01:07:00      -84.536       -2.914       -8.984       23.592       12.220        8.876      556.583      149.334       78.776        0.401        0.039       84.587       11.126        0.017      346.023       23.974      861.641
09/01/2013  01:08:00      -72.279      -17.103       -4.741       26.307       13.790       11.700      692.074      190.174      136.886        0.328        0.051       74.275       12.435        0.028      346.031       23.986      861.638
09/01/2013  01:09:00      -81.229        1.825       -1.285       18.268       12.828        9.221      333.731      164.564       85.029        0.359        0.029       81.249        5.939        0.005      345.955       23.855      861.635
09/01/2013  01:10:00      -68.400       37.532       -9.198       12.870       23.104       12.609      165.645      533.793      158.992        0.351        0.043       78.021        9.753        0.016      345.949       23.846      861.631
09/01/2013  01:11:00      -54.865       54.673      -12.800       17.742       14.572        8.912      314.793      212.329       79.428        0.338        0.030       77.456        5.249        0.005      346.001       23.935      861.624
09/01/2013  01:12:00      -67.733       29.590      -10.655       16.654       29.992       11.419      277.340      899.511      130.385        0.344        0.065       73.915        9.163        0.015      345.981       23.899      861.631
09/01/2013  01:13:00      -52.061       -0.715       -5.555       31.279       19.077       11.889      978.354      363.931      141.358        0.211        0.074       52.066       14.851        0.081      345.969       23.880      861.644
09/01/2013  01:14:00      -11.847       23.942       -2.530       11.432       18.934       10.217      130.695      358.482      104.380        0.066        0.030       26.712        6.845        0.066      345.901       23.764      861.632
09/01/2013  01:15:00       -2.359       67.214       -5.511       17.397       28.541       12.601      302.667      814.565      158.784        0.291        0.064       67.256       14.811        0.048      345.923       23.801      861.621
09/01/2013  01:16:00      -20.990      113.346      -22.052       15.718       18.851        9.673      247.059      355.361       93.559        0.723        0.035      115.273        9.926        0.007      346.055       24.026      861.619
09/01/2013  01:17:00      -21.453       73.832       -9.453       18.489       31.558       14.043      341.850      995.924      197.207        0.377        0.077       76.885        9.824        0.016      345.998       23.930      861.622
09/01/2013  01:18:00      -38.736       39.893      -12.402       16.845       29.324       10.097      283.768      859.887      101.949        0.225        0.062       55.605        8.267        0.022      345.844       23.665      861.615
09/01/2013  01:19:00      -67.567       -3.413       -6.894        7.605        9.820        6.896       57.837       96.438       47.556        0.241        0.010       67.653        4.225        0.004      345.800       23.589      861.617
09/01/2013  01:20:00      -85.491       23.190       -7.905       19.054       30.619       15.780      363.047      937.507      249.019        0.473        0.077       88.580       15.804        0.032      345.877       23.722      861.603
09/01/2013  01:21:00      -93.380       63.820      -16.902       13.978       25.475       11.771      195.373      648.975      138.560        0.703        0.049      113.106       11.504        0.010      345.931       23.813      861.582
09/01/2013  01:22:00      -83.266       78.407      -18.620       22.118       19.345       12.214      489.215      374.227      149.172        0.722        0.051      114.372        8.985        0.006      345.976       23.891      861.554
09/01/2013  01:23:00     -123.906       55.680      -16.777       41.979       26.038       20.187     1762.248      677.994      407.533        1.079        0.142      135.841       16.329        0.014      345.675       23.374      861.542
09/01/2013  01:24:00     -155.980       52.790      -13.626       43.515       29.277       18.725     1893.548      857.132      350.631        1.520        0.155      164.671       17.478        0.011      345.710       23.436      861.551
09/01/2013  01:25:00     -178.813       10.519      -25.238       48.445       39.040       24.914     2346.896     1524.114      620.730        1.861        0.225      179.123       17.284        0.009      345.541       23.143      861.556
09/01/2013  01:26:00      -71.248       51.734       -7.588       39.428       48.532       26.396     1554.596     2355.372      696.737        0.621        0.230       88.050       21.040        0.057      345.478       23.036      861.523
09/01/2013  01:27:00      -82.430       51.384      -21.405       59.658       56.800       25.088     3559.121     3226.277      629.427        0.865        0.371       97.134       34.750        0.128      345.543       23.149      861.509
09/01/2013  01:28:00     -114.075      -69.716      -10.737       79.535       41.408       28.854     6325.799     1714.652      832.530        1.343        0.444      133.692       29.240        0.048      345.441       22.973      861.501
09/01/2013  01:29:00      -55.663      -38.609        2.959       49.512       26.206       18.901     2451.481      686.752      357.255        0.405        0.175       67.742       22.817        0.113      345.411       22.920      861.495
09/01/2013  01:30:00     -101.832       39.240      -12.917       44.871       48.567       29.457     2013.425     2358.799      867.721        0.866        0.262      109.131       20.031        0.034      345.467       23.018      861.487
09/01/2013  01:31:00      -63.389      139.173      -19.015       48.020       37.081       23.524     2305.935     1375.022      553.373        1.399        0.212      152.929       16.512        0.012      345.831       23.643      861.445
09/01/2013  01:32:00      -67.779       79.912      -17.098       37.859       39.657       22.048     1433.322     1572.688      486.096        0.738        0.175      104.785       11.219        0.011      345.514       23.099      861.434
09/01/2013  01:33:00      -84.414       14.644      -12.347       26.919       28.369       17.165      724.643      804.812      294.622        0.466        0.091       85.675       14.117        0.027      345.505       23.082      861.428
09/01/2013  01:34:00     -115.300       13.022      -17.476       42.410       38.723       28.751     1798.612     1499.492      826.625        0.895        0.206      116.033       20.989        0.033      345.534       23.133      861.424
09/01/2013  01:35:00     -109.367        3.805       -7.025       59.208       38.255       24.261     3505.549     1463.481      588.573        0.879        0.278      109.433       25.663        0.055      345.534       23.133      861.405
09/01/2013  01:36:00     -130.188      -48.844        0.242       77.087       44.493       32.207     5942.482     1979.603     1037.314        1.415        0.448      139.049       34.765        0.063      345.620       23.281      861.410
09/01/2013  01:37:00     -118.241      -16.835       -2.281       62.783       55.677       31.897     3941.755     3099.905     1017.394        1.116        0.403      119.434       35.406        0.088      345.801       23.592      861.395
09/01/2013  01:38:00     -174.854      -42.606       -3.752      101.394       55.577       35.397    10280.821     3088.814     1252.941        2.351        0.731      179.970       41.453        0.053      345.970       23.880      861.392
09/01/2013  01:39:00     -258.291       12.209      -32.262       94.164       53.034       36.476     8866.811     2812.572     1330.491        4.045        0.650      258.580       37.301        0.021      345.985       23.904      861.389
09/01/2013  01:40:00     -235.913      -17.289      -15.806       86.543       61.330       42.924     7489.707     3761.391     1842.452        3.465        0.655      236.546       41.682        0.031      345.959       23.859      861.371
09/01/2013  01:41:00     -202.257      -14.004       -6.034       67.083       44.096       37.786     4500.082     1944.421     1427.788        2.450        0.394      202.742       37.045        0.033      345.934       23.816      861.361
09/01/2013  01:42:00     -202.102      -92.094       -3.177       91.555       75.623       44.984     8382.303     5718.780     2023.548        3.273        0.806      222.096       46.745        0.044      345.960       23.862      861.344
09/01/2013  01:43:00     -147.955      -56.765       -6.092       87.854       46.708       36.108     7718.366     2181.661     1303.791        1.817        0.560      158.471       46.942        0.088      345.948       23.841      861.334
09/01/2013  01:44:00     -114.460      -39.366        1.492       63.362       43.910       22.633     4014.704     1928.108      512.256        1.055        0.323      121.040       25.742        0.045      345.933       23.818      861.322
09/01/2013  01:45:00     -132.219      -63.485      -11.124       59.662       66.982       33.059     3559.510     4486.564     1092.867        1.539        0.457      146.671       27.776        0.036      346.010       23.949      861.307
09/01/2013  01:46:00     -119.240      -70.895       -5.822       74.099       71.395       28.048     5490.730     5097.184      786.689        1.532        0.569      138.724       29.296        0.045      346.025       23.975      861.301
09/01/2013  01:47:00     -179.543     -137.654        3.318      131.053      137.438       72.000    17174.985    18889.173     5183.961        4.621        2.062      226.240       73.908        0.107      346.121       24.138      861.273
09/01/2013  01:48:00     -201.590     -123.327        2.757      145.378       84.148       47.639    21134.647     7080.966     2269.495        4.316        1.524      236.322       54.422        0.053      346.184       24.246      861.261
09/01/2013  01:49:00     -124.125      -88.937        2.037      100.133       67.813       38.670    10026.671     4598.647     1495.375        1.972        0.806      152.699       29.269        0.037      346.140       24.172      861.240
09/01/2013  01:50:00     -143.415     -102.438       -1.084       85.681       73.460       46.368     7341.195     5396.357     2150.001        2.297        0.744      176.243       52.731        0.090      346.080       24.069      861.227
09/01/2013  01:51:00     -190.676     -104.068       -0.480       98.187       61.485       31.435     9640.745     3780.455      988.186        3.080        0.720      217.227       24.748        0.013      346.120       24.136      861.219
09/01/2013  01:52:00     -113.609      -69.212       -0.303       75.814       54.890       32.459     5747.773     3012.858     1053.563        1.375        0.491      133.031       34.089        0.066      346.070       24.052      861.219
09/01/2013  01:53:00     -121.019      -64.918        6.687       62.930       41.696       33.550     3960.155     1738.575     1125.609        1.286        0.341      137.331       31.055        0.051      346.020       23.968      861.246
09/01/2013  01:54:00     -138.646      -99.958       -3.265       97.127       75.409       41.965     9433.649     5686.576     1761.072        2.305        0.844      170.922       41.868        0.060      346.050       24.018      861.268
09/01/2013  01:55:00      -90.580      -74.679       19.689       68.552       61.011       39.736     4699.383     3722.399     1578.982        1.208        0.500      117.396       39.143        0.111      346.024       23.972      861.297
09/01/2013  01:56:00     -242.290     -143.115       -6.158       96.696       72.099       44.882     9350.156     5198.261     2014.418        4.789        0.828      281.401       44.462        0.025      346.129       24.151      861.297
09/01/2013  01:57:00     -174.826      -10.184        9.359      141.876       94.617       57.231    20128.940     8952.379     3275.330        3.155        1.618      175.122       62.547        0.128      346.078       24.064      861.302
09/01/2013  01:58:00     -239.479     -111.376       -9.038      118.752       96.577       54.526    14101.941     9327.024     2973.120        4.811        1.320      264.111       61.432        0.054      346.155       24.194      861.290
09/01/2013  01:59:00     -195.761     -128.504       -5.485      137.016       77.236       47.962    18773.305     5965.367     2300.316        4.095        1.352      234.171       52.095        0.049      346.159       24.203      861.286
09/01/2013  02:00:00     -115.985      -89.234        9.131      116.684      100.828       58.031    13615.080    10166.251     3367.599        2.432        1.357      146.339       63.414        0.188      346.139       24.170      861.257
09/01/2013  02:01:00     -137.161     -133.557       -5.552       89.189      111.709       51.996     7954.760    12478.967     2703.535        2.990        1.157      191.443       50.552        0.070      346.226       24.318      861.246
09/01/2013  02:02:00     -168.724     -135.071       -2.992       95.916       90.178       45.838     9199.923     8132.011     2101.137        3.307        0.972      216.130       44.122        0.042      346.162       24.207      861.263
09/01/2013  02:03:00     -131.175     -112.977       -0.808       92.561       59.621       43.258     8567.484     3554.665     1871.285        2.198        0.700      173.121       36.482        0.044      346.122       24.141      861.259
09/01/2013  02:04:00     -110.812      -90.747       15.952       88.738       64.762       38.374     7874.495     4194.123     1472.592        1.715        0.677      143.228       42.668        0.089      346.119       24.136      861.245
09/01/2013  02:05:00     -185.205      -93.448       -9.415       52.730       42.961       22.736     2780.416     1845.659      516.922        2.413        0.257      207.445       20.182        0.009      346.107       24.114      861.255
09/01/2013  02:06:00     -182.703      -32.968        3.824       96.483       69.024       44.506     9308.993     4764.370     1980.798        2.526        0.803      185.653       55.750        0.090      346.120       24.136      861.256
09/01/2013  02:07:00      -30.408       15.868       11.518       59.001       32.659       28.861     3481.084     1066.596      832.959        0.334        0.269       34.299       28.192        0.676      345.867       23.706      861.258
09/01/2013  02:08:00       13.179       -3.138       20.313       34.445       37.817       19.163     1186.482     1430.110      367.232        0.179        0.149       13.547       22.662        2.798      345.281       22.698      861.238
09/01/2013  02:09:00      -47.826      -30.142        8.941       39.974       41.989       21.800     1597.944     1763.054      475.239        0.356        0.192       56.532       26.020        0.212      345.777       23.550      861.227
09/01/2013  02:10:00      -40.873       25.005       10.340       34.551       32.376       15.745     1193.772     1048.225      247.917        0.245        0.124       47.915       15.645        0.107      345.749       23.502      861.207
09/01/2013  02:11:00      -39.185       55.727       -6.598       27.219       27.412       16.009      740.878      751.425      256.287        0.322        0.087       68.125       15.354        0.051      345.766       23.532      861.208
09/01/2013  02:12:00      -27.061       37.816        0.757       18.120       24.989       13.193      328.324      624.454      174.054        0.164        0.056       46.501       17.345        0.139      345.692       23.404      861.220
09/01/2013  02:13:00       16.015       38.461       -2.687       31.663       18.222       15.665     1002.572      332.039      245.396        0.166        0.079       41.663       11.331        0.074      345.341       22.802      861.215
09/01/2013  02:14:00        3.627       19.964        8.992       24.431       14.420       23.471      596.865      207.944      550.903        0.092        0.068       20.291       19.165        0.892      344.823       21.916      861.222
09/01/2013  02:15:00       32.967      -21.794        5.821       17.886       14.792       13.678      319.896      218.797      187.093        0.116        0.036       39.519       10.001        0.064      345.201       22.563      861.221
09/01/2013  02:16:00       24.516       27.676       31.392       22.372       18.226       21.568      500.520      332.202      465.172        0.182        0.065       36.973       12.669        0.117      344.992       22.205      861.204
09/01/2013  02:17:00       15.529        6.922       19.805       17.683       15.802       24.490      312.705      249.710      599.773        0.092        0.058       17.002       15.663        0.849      344.717       21.733      861.206
09/01/2013  02:18:00       19.096      -23.363       16.412       38.696       24.392       20.763     1497.350      594.954      431.097        0.185        0.126       30.174       21.433        0.505      345.045       22.296      861.196
09/01/2013  02:19:00      -14.502        2.571       13.830       28.749       43.478       23.301      826.477     1890.328      542.914        0.183        0.163       14.728       17.528        1.416      344.869       21.994      861.217
09/01/2013  02:20:00      -10.689      -24.892        2.083       36.972       48.160       27.191     1366.927     2319.373      739.356        0.258        0.221       27.090       25.621        0.894      345.592       23.234      861.225
09/01/2013  02:21:00      -39.559      -13.996        9.064       27.032       26.145       13.349      730.724      683.573      178.197        0.172        0.080       41.962       14.733        0.123      345.733       23.475      861.236
09/01/2013  02:22:00       10.883       -6.944       16.503       20.552       22.185       14.935      422.386      492.181      223.053        0.079        0.057       12.909        8.963        0.482      344.843       21.950      861.241
09/01/2013  02:23:00       36.611       -8.477       18.739       27.795       20.694       23.848      772.573      428.247      568.725        0.177        0.088       37.579       13.724        0.133      344.746       21.783      861.245
09/01/2013  02:24:00       38.368        1.894       -4.650       20.662       21.313       12.465      426.912      454.250      155.370        0.127        0.052       38.415       10.367        0.073      344.737       21.768      861.252
09/01/2013  02:25:00        0.864       19.098       11.984       24.950       18.841       19.624      622.509      354.984      385.109        0.094        0.068       19.118       11.814        0.382      344.677       21.665      861.247
09/01/2013  02:26:00        1.663       30.507        4.025       15.872       11.816       19.995      251.918      139.608      399.806        0.087        0.040       30.552       12.427        0.165      345.098       22.386      861.234
09/01/2013  02:27:00       17.148       29.353       13.033       14.305       16.850       10.708      204.632      283.919      114.667        0.096        0.030       33.995       10.054        0.087      344.859       21.976      861.221
09/01/2013  02:28:00        8.879       38.862       27.165       22.044       22.304       21.916      485.958      497.462      480.326        0.190        0.073       39.864       10.790        0.073      344.933       22.103      861.195
09/01/2013  02:29:00      -10.131       58.308        4.874       23.812       22.329       15.678      566.995      498.570      245.815        0.242        0.066       59.181       15.731        0.071      345.421       22.939      861.177
09/01/2013  02:30:00      -66.930       96.183      -14.946       34.720       28.593       15.309     1205.501      817.556      234.358        0.811        0.113      117.178       14.065        0.014      345.680       23.382      861.159
09/01/2013  02:31:00        6.970       12.758        0.225       26.094       27.689       17.895      680.905      766.705      320.235        0.099        0.088       14.537       15.713        1.168      345.176       22.521      861.147
09/01/2013  02:32:00      -69.331       33.039       -9.377       20.841       20.443       15.961      434.365      417.901      254.759        0.355        0.055       76.800        7.206        0.009      345.726       23.461      861.142
09/01/2013  02:33:00      -65.260        8.639       -4.476       13.724       15.557        7.737      188.343      242.018       59.862        0.242        0.025       65.830        6.031        0.008      345.473       23.029      861.145
09/01/2013  02:34:00      -61.907       33.745       -3.695       19.394       28.796       10.592      376.131      829.198      112.185        0.315        0.066       70.507        9.900        0.020      345.609       23.262      861.137
09/01/2013  02:35:00       -8.406       35.482        8.972       25.998       24.711       15.130      675.885      610.622      228.927        0.146        0.076       36.465       12.805        0.123      345.344       22.806      861.135
09/01/2013  02:36:00      -30.433       33.214        3.542       20.055       22.042       13.920      402.190      485.829      193.764        0.156        0.054       45.048       14.202        0.099      345.353       22.823      861.140
09/01/2013  02:37:00      -13.655       26.454       17.742       11.103       12.699       16.014      123.281      161.277      256.453        0.087        0.027       29.770        8.886        0.089      344.877       22.008      861.139
09/01/2013  02:38:00      -46.041      -10.084        1.490       40.180       22.870       11.187     1614.407      523.043      125.142        0.224        0.113       47.132       10.425        0.049      344.983       22.188      861.140
09/01/2013  02:39:00      -24.732       -7.068        5.396       38.069       14.783       12.955     1449.281      218.530      167.841        0.126        0.092       25.722       17.181        0.446      345.049       22.303      861.164
09/01/2013  02:40:00        3.475        1.589        8.993       36.371       23.088       19.984     1322.834      533.057      399.360        0.117        0.113        3.820        8.008        4.393      344.520       21.398      861.196
09/01/2013  02:41:00      -24.857       -9.108        2.863       25.212       10.908        6.879      635.664      118.990       47.318        0.076        0.040       26.473        8.919        0.114      345.019       22.252      861.213
09/01/2013  02:42:00       60.789       -8.450       11.091       42.590       20.940       23.206     1813.870      438.466      538.514        0.334        0.140       61.374        9.274        0.023      344.235       20.911      861.219
09/01/2013  02:43:00       -7.206       17.553       18.173       18.043       23.000       23.723      325.533      528.999      562.768        0.105        0.071       18.975       16.230        0.732      344.284       20.993      861.221
09/01/2013  02:44:00      -85.328      -35.168       -4.355       42.681       15.168       12.286     1821.658      230.061      150.934        0.537        0.110       92.291       14.541        0.025      345.233       22.617      861.243
09/01/2013  02:45:00      -90.324      -56.279        0.548       41.104       26.386       18.536     1689.570      696.219      343.567        0.703        0.136      106.423       18.726        0.031      345.391       22.888      861.251
09/01/2013  02:46:00       -6.049       -7.300        7.762       22.372       22.953       14.258      500.528      526.858      203.299        0.069        0.062        9.480       15.377        2.631      345.134       22.447      861.242
09/01/2013  02:47:00      -10.794      -23.323        9.608       25.736       32.858       18.760      662.367     1079.632      351.951        0.142        0.105       25.700       15.987        0.387      344.638       21.598      861.262
09/01/2013  02:48:00      -14.667       -7.295       12.381       26.450       27.777       16.292      699.617      771.562      265.441        0.108        0.087       16.382       16.831        1.056      344.766       21.819      861.296
09/01/2013  02:49:00      -79.641      -55.839       -0.683       27.526       28.104       20.190      757.694      789.839      407.641        0.571        0.098       97.266       13.340        0.019      345.231       22.612      861.320
09/01/2013  02:50:00      -56.781      -72.026        5.941       42.316       49.844       22.643     1790.650     2484.441      512.699        0.662        0.239       91.716       18.975        0.043      345.434       22.960      861.342
09/01/2013  02:51:00      -99.216      -49.458       -7.956       45.599       59.889       25.425     2079.246     3586.670      646.430        0.933        0.316      110.860       24.255        0.048      345.713       23.440      861.346
09/01/2013  02:52:00     -173.788      -85.067        2.050       61.772       52.019       31.870     3815.800     2705.994     1015.677        2.249        0.377      193.491       18.146        0.009      345.562       23.180      861.357
09/01/2013  02:53:00      -86.772       -5.797        4.466       41.411       41.587       32.175     1714.860     1729.520     1035.233        0.603        0.224       86.966       30.447        0.123      345.531       23.127      861.359
09/01/2013  02:54:00      -96.962      -28.146        3.921       58.006       33.099       21.640     3364.687     1095.517      468.305        0.757        0.246      100.964       27.962        0.077      345.563       23.184      861.351
09/01/2013  02:55:00     -145.874      -18.576       -8.420       72.936       45.315       26.903     5319.707     2053.437      723.754        1.489        0.405      147.051       30.187        0.042      345.537       23.136      861.354
09/01/2013  02:56:00     -187.885       57.423      -32.496      129.211       72.569       35.986    16695.404     5266.281     1295.019        3.145        1.163      196.464       42.097        0.046      345.758       23.514      861.353
09/01/2013  02:57:00     -161.009      -76.493       -4.162      118.776      118.945       39.637    14107.697    14147.997     1571.082        3.080        1.491      178.255       34.346        0.037      345.611       23.262      861.344
09/01/2013  02:58:00     -296.865      -78.978       -9.431      108.783       96.964       52.713    11833.683     9402.074     2778.712        5.923        1.201      307.192       52.514        0.029      345.572       23.194      861.344
09/01/2013  02:59:00     -263.742     -129.325       -4.245      122.409       87.239       59.722    14984.062     7610.621     3566.750        5.623        1.308      293.743       52.445        0.032      345.372       22.852      861.348
09/01/2013  03:00:00     -270.787      -54.743       -9.166      105.529      108.438       56.393    11136.372    11758.801     3180.165        5.124        1.304      276.265       47.466        0.030      345.345       22.805      861.340
09/01/2013  03:01:00     -304.638      -52.300       -3.440      118.384       78.342       52.890    14014.885     6137.491     2797.395        5.925        1.147      309.094       57.747        0.035      345.381       22.868      861.328
09/01/2013  03:02:00     -220.589      -52.775       -2.577       90.779      100.784       49.289     8240.904    10157.469     2429.396        3.614        1.041      226.814       51.426        0.051      345.345       22.806      861.339
09/01/2013  03:03:00     -232.285      -88.638        2.087       94.426       76.731       42.180     8916.360     5887.608     1779.141        3.920        0.829      248.623       47.156        0.036      345.320       22.762      861.338
09/01/2013  03:04:00     -272.021      -38.804      -15.033       88.338       57.084       42.573     7803.678     3258.639     1812.499        4.430        0.644      274.774       43.641        0.025      345.316       22.756      861.338
09/01/2013  03:05:00     -192.165      -32.011       -1.372       96.961       65.370       43.502     9401.409     4273.189     1892.408        2.676        0.778      194.813       50.267        0.067      345.266       22.671      861.325
09/01/2013  03:06:00     -211.805      -99.617       -0.404       87.856       71.503       45.172     7718.704     5112.672     2040.538        3.483        0.744      234.062       44.836        0.037      345.358       22.827      861.322
09/01/2013  03:07:00     -119.478      -56.313        4.851       80.607       71.107       37.514     6497.492     5056.194     1407.308        1.521        0.648      132.084       33.717        0.065      345.312       22.751      861.319
09/01/2013  03:08:00     -153.016      -60.358       -3.911       85.835       93.093       45.153     7367.669     8666.290     2038.783        2.257        0.904      164.490       46.947        0.081      345.363       22.837      861.290
09/01/2013  03:09:00     -218.571      -97.030      -11.532       98.881       80.906       49.963     9777.533     6545.732     2496.271        3.807        0.941      239.140       42.931        0.032      345.611       23.262      861.274
09/01/2013  03:10:00     -216.607     -125.605       -0.659       95.744       85.084       45.407     9166.965     7239.329     2061.758        4.058        0.923      250.390       43.545        0.030      345.610       23.261      861.275
09/01/2013  03:11:00     -210.413      -63.463      -11.248      156.017       91.702       61.151    24341.310     8409.232     3739.408        4.245        1.824      219.775       68.817        0.098      345.582       23.214      861.279
09/01/2013  03:12:00     -292.353     -103.340      -13.716      124.624       92.582       59.614    15531.162     8571.434     3553.796        6.199        1.383      310.080       62.729        0.041      345.625       23.285      861.268
09/01/2013  03:13:00     -246.853      -86.916        2.186      150.330       97.879       54.792    22599.013     9580.394     3002.187        5.183        1.759      261.708       62.780        0.058      345.613       23.266      861.260
09/01/2013  03:14:00     -230.680     -109.841      -13.901      111.339      107.473       50.569    12396.447    11550.497     2557.258        4.598        1.325      255.496       52.044        0.041      345.620       23.277      861.238
09/01/2013  03:15:00     -257.316     -144.176       10.515      135.027      128.474       60.127    18232.378    16505.487     3615.252        6.272        1.918      294.955       61.823        0.044      345.626       23.288      861.240
09/01/2013  03:16:00     -318.399     -133.080       -3.856      179.749      123.545       86.659    32309.878    15263.365     7509.705        8.708        2.754      345.092       93.206        0.073      345.806       23.597      861.232
09/01/2013  03:17:00     -244.388     -201.015       10.923      136.961      139.118       68.127    18758.238    19353.886     4641.228        7.149        2.138      316.437       71.919        0.052      345.853       23.677      861.219
09/01/2013  03:18:00     -195.544     -107.798       -3.128      135.140      120.388       57.630    18262.828    14493.376     3321.241        4.297        1.804      223.288       66.861        0.090      345.792       23.573      861.214
09/01/2013  03:19:00     -137.491     -122.445       14.698      123.358      114.796       72.331    15217.193    13178.233     5231.737        3.386        1.681      184.110       76.045        0.171      345.752       23.506      861.222
09/01/2013  03:20:00     -279.160     -170.170       -4.315      101.781      104.420       56.081    10359.363    10903.468     3145.131        6.565        1.220      326.937       58.237        0.032      345.824       23.627      861.216
09/01/2013  03:21:00     -167.815      -96.341       20.140      120.706       94.900       66.194    14569.979     9006.105     4381.683        3.290        1.398      193.503       64.114        0.110      345.738       23.480      861.198
09/01/2013  03:22:00     -237.406     -113.642       -7.749      105.514      112.783       51.272    11133.147    12720.029     2628.811        4.790        1.324      263.204       59.301        0.051      345.772       23.539      861.200
09/01/2013  03:23:00     -207.569     -105.991        1.696      120.972      104.878       57.810    14634.317    10999.356     3341.947        4.164        1.449      233.064       67.105        0.083      345.701       23.415      861.202
09/01/2013  03:24:00     -229.241     -116.855       -3.443      129.027      102.409       55.714    16647.945    10487.706     3104.105        4.822        1.512      257.306       45.089        0.031      345.731       23.468      861.194
09/01/2013  03:25:00     -300.775     -202.887        1.927      134.507      123.294       72.040    18092.247    15201.468     5189.722        8.505        1.924      362.807       59.481        0.027      345.740       23.483      861.165
09/01/2013  03:26:00     -257.418     -167.997       -7.136      124.747       86.497       51.863    15561.843     7481.783     2689.753        6.013        1.287      307.388       51.960        0.029      345.718       23.445      861.157
09/01/2013  03:27:00     -172.406     -157.487       -6.202      109.521      108.342       56.575    11994.944    11737.911     3200.723        4.074        1.347      233.508       48.438        0.043      345.707       23.428      861.146
09/01/2013  03:28:00      -74.805     -147.038       15.582       82.665      102.450       53.916     6833.438    10495.933     2906.902        2.384        1.012      164.973       47.558        0.083      345.682       23.384      861.139
09/01/2013  03:29:00     -113.571     -139.999        9.521      118.628       72.065       52.303    14072.609     5193.376     2735.598        2.729        1.100      180.272       56.993        0.100      345.630       23.295      861.133
09/01/2013  03:30:00     -104.498     -141.308       20.809      118.565      105.148       67.381    14057.688    11056.075     4540.189        3.048        1.483      175.749       56.712        0.104      345.622       23.279      861.101
09/01/2013  03:31:00     -139.475     -141.798       12.185       92.221       99.873       55.107     8504.623     9974.659     3036.753        3.061        1.076      198.897       62.776        0.100      345.648       23.326      861.091
09/01/2013  03:32:00     -120.250     -219.199        2.175       90.496      112.187       56.126     8189.501    12585.920     3150.144        4.321        1.196      250.017       43.703        0.031      345.755       23.510      861.093
09/01/2013  03:33:00     -120.949     -217.619      -16.315       75.249       81.591       43.678     5662.462     6657.055     1907.739        3.824        0.711      248.971       27.316        0.012      345.767       23.530      861.098
09/01/2013  03:34:00      -53.620     -107.117       10.503       75.943       75.500       40.613     5767.402     5700.303     1649.444        1.379        0.656      119.788       29.042        0.059      345.697       23.412      861.102
09/01/2013  03:35:00     -128.648     -164.899        0.992       81.026      106.586       44.674     6565.272    11360.542     1995.776        3.183        0.996      209.146       33.381        0.025      345.683       23.387      861.121
09/01/2013  03:36:00     -137.162     -214.586       -7.366       91.222      134.297       56.103     8321.466    18035.606     3147.598        4.720        1.475      254.677       53.215        0.044      345.668       23.359      861.127
09/01/2013  03:37:00      -95.339     -176.020        0.888       93.319      136.285       50.403     8708.392    18573.528     2540.471        3.494        1.491      200.182       48.779        0.059      345.702       23.419      861.119
09/01/2013  03:38:00     -111.929      -96.391        4.356       80.835       81.294       47.766     6534.258     6608.689     2281.563        1.863        0.771      147.714       50.397        0.116      345.698       23.414      861.120
09/01/2013  03:39:00     -121.431     -114.237       -0.485      114.176       88.008       43.818    13036.258     7745.400     1919.985        2.524        1.135      166.720       46.290        0.077      345.721       23.453      861.111
09/01/2013  03:40:00      -63.349     -110.256      -16.885       51.792       53.479       32.652     2682.387     2859.976     1066.131        1.153        0.330      127.159       19.689        0.024      345.709       23.435      861.108
09/01/2013  03:41:00      -38.527      -44.496        7.800       58.704       40.186       28.922     3446.162     1614.951      836.496        0.471        0.295       58.858       28.123        0.228      345.584       23.219      861.119
09/01/2013  03:42:00      -60.183      -67.508       -2.019       66.531       63.094       33.368     4426.313     3980.848     1113.453        0.885        0.476       90.440       33.680        0.139      345.546       23.153      861.139
09/01/2013  03:43:00      -97.601     -207.534        4.675       88.546       69.119       38.382     7840.370     4777.372     1473.214        3.335        0.705      229.339       44.093        0.037      345.694       23.405      861.160
09/01/2013  03:44:00     -103.617     -116.953        5.535       83.837       86.772       42.512     7028.680     7529.305     1807.310        2.040        0.818      156.251       38.026        0.059      345.668       23.360      861.169
09/01/2013  03:45:00      -67.316      -54.471       -3.356       45.759       52.147       34.209     2093.875     2719.309     1170.237        0.675        0.299       86.594       33.167        0.147      345.612       23.265      861.196
09/01/2013  03:46:00      -34.518      -62.180       19.062       57.969       34.168       33.770     3360.375     1167.481     1140.415        0.554        0.283       71.119       36.976        0.270      345.567       23.188      861.203
09/01/2013  03:47:00      -66.345       -8.127       21.155       73.681       58.331       33.905     5428.867     3402.499     1149.534        0.745        0.499       66.841       33.687        0.254      345.538       23.139      861.192
09/01/2013  03:48:00     -139.145      -49.522        0.697       74.654       63.092       36.228     5573.187     3980.614     1312.485        1.634        0.543      147.695       32.457        0.048      345.587       23.224      861.184
09/01/2013  03:49:00     -137.499      -72.066        7.170      104.565       82.050       44.057    10933.830     6732.128     1941.049        2.188        0.980      155.240       47.176        0.092      345.615       23.269      861.183
09/01/2013  03:50:00     -151.528     -116.299        3.095       94.037      100.144       41.059     8843.006    10028.842     1685.882        2.852        1.028      191.014       46.784        0.060      345.662       23.350      861.182
09/01/2013  03:51:00     -155.129      -70.815       -2.232       48.612       61.771       31.881     2363.131     3815.607     1016.423        1.814        0.360      170.527       31.673        0.034      345.662       23.349      861.198
09/01/2013  03:52:00     -106.914      -78.058       13.698       79.190       62.125       44.059     6271.107     3859.504     1941.206        1.489        0.604      132.377       43.599        0.108      345.586       23.221      861.212
09/01/2013  03:53:00     -194.505      -87.433       -3.802       62.870       56.115       36.822     3952.642     3148.877     1355.834        2.697        0.423      213.253       33.023        0.024      345.670       23.363      861.233
09/01/2013  03:54:00     -144.493      -88.671       -1.387       51.333       44.715       29.549     2635.108     1999.473      873.139        1.712        0.275      169.531       28.631        0.029      345.633       23.301      861.250
09/01/2013  03:55:00     -166.261      -73.389        1.317       81.402       75.735       39.724     6626.359     5735.782     1577.962        2.348        0.697      181.738       39.261        0.047      345.569       23.192      861.270
09/01/2013  03:56:00     -175.365      -58.811       -8.537       84.864       63.654       41.453     7201.881     4051.769     1718.317        2.363        0.649      184.964       37.780        0.042      345.651       23.330      861.298
09/01/2013  03:57:00     -106.787      -58.284       -1.286       62.659       38.653       27.016     3926.111     1494.066      729.859        1.047        0.308      121.657       28.268        0.054      345.629       23.295      861.321
09/01/2013  03:58:00     -170.785     -116.288       -1.186       89.037       52.279       37.853     7927.515     2733.048     1432.817        2.739        0.605      206.617       30.857        0.022      345.624       23.285      861.343
09/01/2013  03:59:00     -180.592     -143.450        3.178       98.347       69.647       43.952     9672.128     4850.758     1931.741        3.482        0.823      230.632       46.762        0.041      345.652       23.331      861.357
09/01/2013  04:00:00      -86.301     -143.421        4.074       71.647       66.088       42.941     5133.331     4367.655     1843.953        1.969        0.567      167.384       36.304        0.047      345.665       23.356      861.377
09/01/2013  04:01:00     -129.672     -166.025        4.869       95.431       57.653       36.681     9107.145     3323.903     1345.482        2.909        0.689      210.663       42.632        0.041      345.754       23.510      861.379
09/01/2013  04:02:00      -40.345     -174.825        8.141      104.204       82.751       45.006    10858.427     6847.687     2025.545        2.599        0.987      179.420       43.340        0.058      345.715       23.442      861.371
09/01/2013  04:03:00     -112.039     -107.312       11.181       91.876       54.828       41.078     8441.210     3006.159     1687.411        1.866        0.657      155.141       38.303        0.061      345.685       23.390      861.393
09/01/2013  04:04:00     -123.650     -125.313        1.533       65.181       70.456       36.489     4248.580     4964.112     1331.428        2.077        0.527      176.048       37.203        0.045      345.792       23.574      861.385
09/01/2013  04:05:00      -93.313     -104.692        4.683       63.096       70.324       33.391     3981.164     4945.532     1114.929        1.486        0.502      140.242       29.740        0.045      345.771       23.540      861.370
09/01/2013  04:06:00     -126.481     -100.890       10.248       91.322       82.011       52.448     8339.679     6725.793     2750.774        2.205        0.891      161.791       54.498        0.113      345.866       23.700      861.375
09/01/2013  04:07:00     -178.684     -171.782       -5.968       92.844       89.896       41.712     8620.010     8081.240     1739.850        3.995        0.922      247.865       32.957        0.018      345.899       23.755      861.403
09/01/2013  04:08:00     -123.757     -200.682       -3.935      132.777       98.663       55.885    17629.611     9734.340     3123.126        4.304        1.524      235.774       52.267        0.049      345.892       23.745      861.394
09/01/2013  04:09:00     -199.879     -115.734       -4.553       95.573       71.571       47.013     9134.234     5122.476     2210.194        3.491        0.823      230.967       38.055        0.027      345.843       23.660      861.387
09/01/2013  04:10:00     -105.991      -63.080       18.337       72.473       59.082       39.897     5252.396     3490.718     1591.772        1.294        0.517      123.342       33.850        0.075      345.788       23.568      861.394
09/01/2013  04:11:00     -115.898     -226.366        5.650       81.152       92.520       53.447     6585.594     8559.904     2856.560        4.135        0.900      254.311       48.539        0.036      345.852       23.676      861.374
09/01/2013  04:12:00      -90.694     -120.165       15.924       70.727       83.798       40.719     5002.241     7022.085     1658.058        1.830        0.684      150.549       28.930        0.037      345.809       23.605      861.355
09/01/2013  04:13:00      -97.372     -168.574       -3.282       74.567       80.101       48.627     5560.196     6416.241     2364.558        2.612        0.717      194.675       37.192        0.036      345.787       23.565      861.332
09/01/2013  04:14:00     -119.579     -160.050        3.424       82.427       85.571       42.355     6794.255     7322.321     1793.949        2.792        0.796      199.788       37.750        0.036      345.731       23.467      861.356
09/01/2013  04:15:00     -176.061     -169.068        5.587      164.098       82.971       60.863    26928.091     6884.177     3704.264        4.856        1.876      244.093       73.187        0.090      345.828       23.634      861.340
09/01/2013  04:16:00     -179.206     -132.318        9.801      113.033       79.637       57.467    12776.485     6342.120     3302.470        3.607        1.121      222.761       59.525        0.071      345.793       23.575      861.318
09/01/2013  04:17:00     -123.133     -174.882      -11.049       97.001      111.549       54.988     9409.263    12443.204     3023.671        3.537        1.244      213.882       43.289        0.041      345.824       23.629      861.283
09/01/2013  04:18:00      -10.650      -87.999        3.941       65.508       71.911       34.150     4291.353     5171.130     1166.247        0.925        0.531       88.641       34.905        0.155      345.758       23.517      861.267
09/01/2013  04:19:00       33.185      -98.378      -13.264       42.092       55.452       41.512     1771.701     3074.899     1723.242        0.876        0.328      103.824       34.680        0.112      345.480       23.039      861.257
09/01/2013  04:20:00      -19.316      -58.156        8.751       49.283       54.273       29.952     2428.831     2945.606      897.126        0.505        0.314       61.280       26.208        0.183      345.493       23.061      861.284
09/01/2013  04:21:00      -18.440     -135.810      -12.633       62.040      103.794       57.206     3848.996    10773.221     3272.558        1.842        0.895      137.057       55.399        0.163      345.593       23.234      861.235
09/01/2013  04:22:00      -72.089      -96.390        7.663       73.322       66.511       37.701     5376.088     4423.663     1421.379        1.288        0.561      120.365       35.817        0.089      345.678       23.381      861.224
09/01/2013  04:23:00     -142.087      -92.239       -4.511       47.929       41.006       32.647     2297.191     1681.475     1065.803        1.688        0.252      169.401       23.523        0.019      345.755       23.512      861.253
09/01/2013  04:24:00     -100.426      -20.532       -3.076       45.723       51.429       25.347     2090.572     2644.973      642.472        0.795        0.269      102.504       26.295        0.066      345.718       23.450      861.238
09/01/2013  04:25:00      -53.487      -39.264        5.492      103.323       57.375       28.641    10675.567     3291.900      820.312        0.961        0.739       66.351       34.055        0.263      345.435       22.963      861.210
09/01/2013  04:26:00       43.672      -15.618        8.248       35.401       33.208       26.151     1253.252     1102.783      683.854        0.263        0.152       46.381       24.089        0.270      344.446       21.271      861.153
09/01/2013  04:27:00       40.607       -9.390       16.117       33.762       32.899       27.281     1139.882     1082.342      744.259        0.248        0.148       41.679       27.457        0.434      344.634       21.592      861.158
09/01/2013  04:28:00       53.892        0.175       14.079       29.010       39.467       18.097      841.590     1557.656      327.497        0.291        0.136       53.893       18.253        0.115      344.647       21.615      861.175
09/01/2013  04:29:00      -17.461      -84.910       10.158       36.075       60.740       24.716     1301.385     3689.397      610.899        0.661        0.280       86.687       29.122        0.113      345.253       22.652      861.180
09/01/2013  04:30:00       20.689     -120.836       22.172       45.280       73.165       34.310     2050.243     5353.106     1177.158        1.205        0.429      122.594       25.502        0.043      345.362       22.838      861.164
09/01/2013  04:31:00       -3.802       -0.578       22.501       28.950       34.843       30.295      838.117     1214.057      917.762        0.174        0.148        3.846       18.210       22.422      344.811       21.894      861.152
09/01/2013  04:32:00       16.181       36.094      -10.619       25.602       20.677       18.871      655.438      427.522      356.105        0.156        0.072       39.555       14.446        0.133      344.922       22.086      861.189
09/01/2013  04:33:00      114.221       63.751       14.223       47.780       42.116       35.410     2282.975     1773.782     1253.896        1.131        0.266      130.808       22.106        0.029      344.698       21.701      861.211
09/01/2013  04:34:00      166.933      102.149       11.776       62.880       56.888       36.853     3953.841     3236.280     1358.158        2.349        0.427      195.707       12.241        0.004      344.505       21.369      861.209
09/01/2013  04:35:00      165.231      114.101       17.966       76.834       56.586       40.958     5903.425     3202.021     1677.564        2.571        0.539      200.800       26.948        0.018      344.414       21.213      861.223
09/01/2013  04:36:00      122.761       73.150       23.650       76.332       60.921       43.741     5826.633     3711.413     1913.297        1.621        0.573      142.903       20.140        0.020      344.363       21.127      861.239
09/01/2013  04:37:00      205.160      134.406       20.655       66.282       64.819       50.147     4393.254     4201.446     2514.752        3.584        0.555      245.266       35.546        0.021      344.388       21.167      861.228
09/01/2013  04:38:00      170.132       68.817       25.138       94.453       69.607       53.331     8921.447     4845.203     2844.216        2.546        0.831      183.523       37.889        0.043      344.347       21.099      861.202
09/01/2013  04:39:00      168.222      115.581       10.391       94.689       64.617       55.264     8966.090     4175.321     3054.158        2.898        0.810      204.102       33.437        0.027      344.364       21.127      861.186
09/01/2013  04:40:00      143.371      110.740       25.074       80.023       55.679       49.123     6403.697     3100.135     2413.066        2.268        0.596      181.159       17.933        0.010      344.404       21.197      861.187
09/01/2013  04:41:00      176.882      131.043       28.084       47.125       39.811       45.085     2220.798     1584.908     2032.672        2.754        0.292      220.135       17.385        0.006      344.546       21.440      861.182
09/01/2013  04:42:00      174.430      115.278       42.945       34.860       31.462       34.377     1215.248      989.835     1181.757        2.447        0.169      209.080       18.910        0.008      344.628       21.579      861.186
09/01/2013  04:43:00      141.053       92.017       29.931       36.994       43.492       36.710     1368.522     1891.577     1347.613        1.693        0.230      168.414       21.379        0.016      344.491       21.349      861.178
09/01/2013  04:44:00      143.122      101.990       53.395       49.630       39.922       30.876     2463.128     1593.803      953.323        1.937        0.251      175.744       20.208        0.013      344.506       21.372      861.157
09/01/2013  04:45:00       50.102       52.429       54.977       52.258       34.910       31.326     2730.934     1218.719      981.338        0.661        0.247       72.519       22.642        0.097      344.234       20.909      861.154
09/01/2013  04:46:00       35.150       35.812       27.929       31.137       42.349       25.852      969.539     1793.455      668.343        0.336        0.172       50.179       22.037        0.193      343.933       20.394      861.174
09/01/2013  04:47:00        5.593        6.340       12.439       20.515       21.906       12.303      420.860      479.878      151.353        0.064        0.053        8.454        2.996        0.126      343.960       20.440      861.176
09/01/2013  04:48:00       12.215       27.739       36.078       32.840       40.212       20.950     1078.434     1616.973      438.902        0.268        0.157       30.309       14.805        0.239      344.085       20.655      861.165
09/01/2013  04:49:00       74.501       58.520       38.888       38.031       30.062       25.533     1446.319      903.751      651.941        0.674        0.150       94.736       16.905        0.032      344.279       20.986      861.177
09/01/2013  04:50:00       47.412       30.085       30.670       35.064       44.723       27.460     1229.457     2000.172      754.037        0.404        0.199       56.152       20.855        0.138      344.255       20.945      861.194
09/01/2013  04:51:00       18.549       32.519       32.692       29.234       37.772       30.910      854.653     1426.720      955.446        0.285        0.162       37.437       24.521        0.429      344.276       20.981      861.198
09/01/2013  04:52:00       -7.956        8.149       18.042       20.437       21.195       13.351      417.684      449.242      178.247        0.075        0.052       11.389       10.486        0.848      344.052       20.598      861.212
09/01/2013  04:53:00       67.770       57.701       50.047       28.241       26.577       26.211      797.546      706.348      686.998        0.631        0.110       89.006       13.359        0.023      344.206       20.860      861.205
09/01/2013  04:54:00       19.003       39.997       46.113       29.247       37.082       23.656      855.367     1375.110      559.612        0.344        0.140       44.282        9.147        0.043      344.164       20.788      861.204
09/01/2013  04:55:00       75.354       73.287       52.216       33.535       34.585       29.765     1124.569     1196.128      885.959        0.849        0.160      105.116       18.420        0.031      344.048       20.589      861.199
09/01/2013  04:56:00       80.331       68.586       46.832       39.672       30.521       34.458     1573.876      931.556     1187.364        0.852        0.185      105.628       21.598        0.042      343.960       20.442      861.187
09/01/2013  04:57:00       91.875       94.361       56.356       35.285       34.664       42.920     1245.011     1201.616     1842.161        1.240        0.214      131.700       31.426        0.057      344.045       20.584      861.181
09/01/2013  04:58:00       95.236       97.956       60.442       31.280       27.726       32.507      978.409      768.738     1056.692        1.256        0.140      136.621       15.729        0.013      344.145       20.756      861.182
09/01/2013  04:59:00       77.454       70.726       22.753       31.659       25.988       32.554     1002.263      675.394     1059.778        0.713        0.137      104.887       17.786        0.029      343.975       20.466      861.180
09/01/2013  05:00:00       70.492       67.558       40.033       34.200       23.113       30.480     1169.626      534.211      929.036        0.688        0.132       97.638        8.051        0.007      344.098       20.676      861.192
09/01/2013  05:01:00       41.095       53.834       31.450       34.702       38.438       29.211     1204.246     1477.461      853.306        0.455        0.177       67.727       16.795        0.061      344.052       20.597      861.193
09/01/2013  05:02:00       15.031      -21.422       12.708       27.111       38.675       30.554      734.991     1495.750      933.539        0.200        0.158       26.169       28.674        1.201      343.854       20.259      861.197
09/01/2013  05:03:00       19.684      -36.169        9.085       33.367       24.466       24.229     1113.339      598.572      587.049        0.204        0.115       41.178       15.103        0.135      343.602       19.829      861.199
09/01/2013  05:04:00       36.572      -14.546       22.175       25.866       20.925       19.314      669.036      437.839      373.048        0.176        0.074       39.359       14.932        0.144      343.592       19.812      861.198
09/01/2013  05:05:00       59.960        1.830       12.628       30.955       17.094       26.777      958.182      292.195      717.034        0.286        0.098       59.988       20.909        0.121      343.765       20.108      861.181
09/01/2013  05:06:00       36.219       -1.944       21.831       28.894       20.301       21.485      834.848      412.127      461.613        0.175        0.085       36.271       13.675        0.142      343.676       19.955      861.185
09/01/2013  05:07:00       14.260       -6.962       20.095       23.514       18.938       14.388      552.899      358.637      207.015        0.089        0.056       15.869        8.251        0.270      343.749       20.080      861.196
09/01/2013  05:08:00       40.912       -3.154       15.621       41.906       28.102       24.713     1756.150      789.731      610.716        0.254        0.158       41.033       23.871        0.338      343.766       20.109      861.190
09/01/2013  05:09:00       20.144      -22.579       17.184       25.622       21.439       12.172      656.476      459.616      148.158        0.124        0.063       30.258        9.040        0.089      343.885       20.312      861.190
09/01/2013  05:10:00       34.090       -7.887       20.428       20.758       17.501       17.875      430.915      306.284      319.522        0.135        0.053       34.990       11.723        0.112      343.889       20.320      861.200
09/01/2013  05:11:00       39.650        1.319       22.530       24.948       22.867       17.548      622.384      522.919      307.949        0.177        0.073       39.672       16.325        0.169      343.853       20.258      861.203
09/01/2013  05:12:00       21.432       23.079       38.105       22.699       29.747       18.960      515.260      884.862      359.494        0.210        0.088       31.496       18.023        0.327      343.526       19.701      861.194
09/01/2013  05:13:00        2.442       25.872       37.203       19.361       27.927       20.658      374.830      779.941      426.761        0.182        0.079       25.987       19.293        0.551      343.497       19.650      861.181
09/01/2013  05:14:00       28.032        9.692       28.638       24.984       28.540       21.315      624.225      814.542      454.318        0.180        0.095       29.661       14.914        0.253      343.645       19.904      861.174
09/01/2013  05:15:00       45.397      -16.087       29.040       28.905       24.712       26.061      835.480      610.675      679.154        0.264        0.106       48.163       18.993        0.156      343.884       20.310      861.165
09/01/2013  05:16:00       47.410      -17.556       20.819       20.362       17.489       23.596      414.603      305.875      556.771        0.213        0.064       50.556       14.458        0.082      343.931       20.392      861.155
09/01/2013  05:17:00       20.585       -2.785       21.299       26.242       22.431       18.792      688.662      503.167      353.139        0.121        0.077       20.773       16.720        0.648      343.923       20.376      861.152
09/01/2013  05:18:00       -5.761        9.085       10.912        9.577       14.036       11.250       91.719      197.018      126.556        0.032        0.021       10.758        8.395        0.609      343.937       20.401      861.160
09/01/2013  05:19:00      -11.884       -0.018        6.035       13.952       10.477        7.531      194.665      109.772       56.712        0.027        0.018       11.884        6.027        0.257      344.371       21.142      861.187
09/01/2013  05:20:00      -15.398        7.713        9.953        9.866        8.794        6.524       97.334       77.332       42.562        0.031        0.011       17.222        4.945        0.082      344.122       20.718      861.197
09/01/2013  05:21:00        4.390        0.902        6.796       19.472       18.424       16.252      379.169      339.426      264.143        0.052        0.049        4.482        7.128        2.529      344.000       20.509      861.211
09/01/2013  05:22:00        3.428       -8.804        8.102       28.603       14.129       15.512      818.125      199.634      240.615        0.071        0.063        9.448       16.514        3.055      344.101       20.682      861.222
09/01/2013  05:23:00        0.332        2.971        2.828       15.904       12.340       12.559      252.953      152.286      157.740        0.029        0.028        2.989        8.218        7.557      343.898       20.335      861.241
09/01/2013  05:24:00      -21.579        6.369       -4.556        9.972        8.256        5.063       99.451       68.157       25.633        0.036        0.010       22.499        4.882        0.047      344.428       21.240      861.255
09/01/2013  05:25:00        2.917        9.060        6.026       12.604       12.130        7.665      158.864      147.147       58.756        0.025        0.018        9.518        5.783        0.369      344.021       20.543      861.263
09/01/2013  05:26:00       18.226      -11.693        0.760       14.832       17.596        9.979      220.000      309.607       99.571        0.055        0.031       21.654        6.020        0.077      344.010       20.526      861.262
09/01/2013  05:27:00       19.316        0.364        2.320       21.744       10.072       10.483      472.796      101.449      109.888        0.053        0.034       19.319        7.526        0.152      343.937       20.399      861.274
09/01/2013  05:28:00      -10.406        6.079        7.383       11.529       11.840       10.291      132.912      140.188      105.900        0.029        0.019       12.051        7.198        0.357      343.895       20.329      861.278
09/01/2013  05:29:00      -13.346       10.680       15.594        8.565        8.765       12.030       73.359       76.831      144.718        0.042        0.015       17.093        8.323        0.237      343.727       20.043      861.291
09/01/2013  05:30:00      -13.488        3.768       11.272       11.726       13.490       10.822      137.508      181.967      117.116        0.038        0.022       14.005        9.089        0.421      344.013       20.532      861.298
09/01/2013  05:31:00       10.838       -1.460       -0.568       16.070       10.027       11.641      258.244      100.536      135.519        0.031        0.025       10.936        6.220        0.324      343.592       19.813      861.290
09/01/2013  05:32:00       11.956       -6.446        5.919       11.415       12.933       15.573      130.303      167.258      242.529        0.038        0.027       13.583        8.959        0.435      343.841       20.237      861.284
09/01/2013  05:33:00       -2.406        7.447       21.753       22.927       21.938       17.712      525.659      481.259      313.716        0.093        0.066        7.826       12.801        2.676      343.667       19.940      861.282
09/01/2013  05:34:00       -4.014       10.441       17.121       16.937       12.570       11.916      286.876      157.994      142.001        0.050        0.029       11.186        8.432        0.568      343.806       20.176      861.295
09/01/2013  05:35:00       10.509       11.002       28.509       34.174       22.449       21.374     1167.856      503.976      456.860        0.159        0.106       15.214       14.578        0.918      343.584       19.797      861.288
09/01/2013  05:36:00       18.724        2.934       12.091       40.169       23.064       19.355     1613.566      531.965      374.620        0.151        0.126       18.952       16.226        0.733      343.440       19.553      861.289
09/01/2013  05:37:00        5.744        7.732       27.082       28.552       37.757       26.312      815.235     1425.554      692.338        0.188        0.147        9.632       28.341        8.657      343.443       19.557      861.281
09/01/2013  05:38:00       25.638        2.423       24.155       31.845       37.875       26.004     1014.086     1434.551      676.188        0.219        0.156       25.752       25.510        0.981      343.329       19.364      861.265
09/01/2013  05:39:00       32.782      -11.217       15.699       33.636       27.303       26.025     1131.414      745.433      677.287        0.200        0.128       34.648       19.977        0.332      343.472       19.608      861.244
09/01/2013  05:40:00       66.609      -13.354       -0.013       30.574       30.218       31.956      934.766      913.139     1021.179        0.374        0.143       67.934       20.624        0.092      343.352       19.402      861.237
09/01/2013  05:41:00       33.862      -20.584       17.798       40.865       35.913       33.146     1669.913     1289.770     1098.681        0.297        0.203       39.627       27.730        0.490      343.575       19.783      861.252
09/01/2013  05:42:00       47.314      -15.151       13.205       39.656       40.711       36.274     1572.563     1657.398     1315.771        0.359        0.227       49.680       28.887        0.338      343.578       19.790      861.275
09/01/2013  05:43:00       43.706      -25.746        0.519       35.687       39.330       30.924     1273.597     1546.840      956.269        0.317        0.189       50.725       18.286        0.130      343.615       19.852      861.284
09/01/2013  05:44:00       20.122      -28.248       21.153       29.223       26.453       28.572      854.007      699.760      816.361        0.201        0.119       34.682       20.897        0.363      343.966       20.449      861.283
09/01/2013  05:45:00       54.103      -27.330        7.346       37.305       31.244       26.822     1391.681      976.190      719.430        0.341        0.154       60.614       24.152        0.159      343.651       19.914      861.290
09/01/2013  05:46:00       53.301      -25.404       13.746       36.697       31.397       25.053     1346.647      985.756      627.659        0.332        0.148       59.045       23.640        0.160      343.371       19.435      861.311
09/01/2013  05:47:00       42.114      -17.204        0.196       25.580       23.144       18.655      654.359      535.635      348.003        0.180        0.077       45.493        1.434        0.001      343.423       19.523      861.328
09/01/2013  05:48:00      -18.692        3.863        5.979       19.988       10.539        7.953      399.536      111.079       63.252        0.049        0.029       19.087        8.085        0.179      343.748       20.080      861.346
09/01/2013  05:49:00      -22.952        5.567        5.967       14.853       15.921       11.488      220.604      253.473      131.976        0.060        0.030       23.617        7.352        0.097      344.169       20.796      861.367
09/01/2013  05:50:00       19.102       17.477       -0.971       28.135       19.251       20.915      791.589      370.605      437.445        0.114        0.080       25.891       16.311        0.397      344.016       20.535      861.368
09/01/2013  05:51:00       42.298      -15.897       -4.698       18.569       20.301       22.776      344.805      412.119      518.726        0.167        0.064       45.187        8.810        0.038      343.772       20.120      861.361
09/01/2013  05:52:00       28.818       -2.524       13.424       24.910       16.025       15.055      620.518      256.789      226.661        0.106        0.055       28.928        5.898        0.042      343.642       19.897      861.359
09/01/2013  05:53:00       15.869       16.870       14.498       17.889       15.021       16.620      320.017      225.630      276.220        0.078        0.041       23.160        8.481        0.134      343.733       20.052      861.362
09/01/2013  05:54:00       23.767       -9.929        8.848       17.643       13.327       12.487      311.286      177.601      155.918        0.069        0.032       25.758       12.741        0.245      343.807       20.180      861.376
09/01/2013  05:55:00       39.843       -6.872       20.984       35.516       19.588       18.046     1261.373      383.695      325.664        0.202        0.099       40.431       15.622        0.149      343.537       19.718      861.379
09/01/2013  05:56:00       11.630        1.340       25.785       41.375       24.962       18.245     1711.881      623.093      332.866        0.173        0.133       11.707       16.109        1.893      343.582       19.796      861.380
09/01/2013  05:57:00       15.680        4.779       30.423       40.493       24.683       21.220     1639.716      609.226      450.302        0.195        0.135       16.392       14.725        0.807      343.479       19.620      861.386
09/01/2013  05:58:00      -22.181       -1.595        2.484       22.736       16.293        7.950      516.922      265.463       63.197        0.067        0.042       22.238        5.684        0.065      343.920       20.372      861.397
09/01/2013  05:59:00      -24.560       -1.484       -1.782       20.648        7.666        7.212      426.347       58.775       52.014        0.057        0.027       24.605        6.198        0.063      344.187       20.826      861.407
09/01/2013  06:00:00       41.238       -5.906       13.029       29.634       23.497       22.792      878.191      552.110      519.475        0.193        0.097       41.658       16.605        0.159      343.575       19.783      861.395
09/01/2013  06:01:00       56.273      -41.732       -8.889       25.759       23.631       19.811      663.529      558.401      392.457        0.330        0.081       70.059       15.458        0.049      343.762       20.101      861.381
09/01/2013  06:02:00       31.120      -17.207       -1.192       23.028       19.819       15.972      530.302      392.773      255.096        0.122        0.059       35.560        7.344        0.043      343.701       19.999      861.378
09/01/2013  06:03:00       35.912      -12.640       11.274       19.547       19.210       14.710      382.084      369.035      216.379        0.127        0.048       38.072        4.299        0.013      343.769       20.114      861.391
09/01/2013  06:04:00      -13.683        3.770        2.519       18.080       11.510        8.194      326.900      132.486       67.141        0.037        0.026       14.193        7.652        0.291      343.907       20.349      861.411
09/01/2013  06:05:00      -63.036       19.559       -5.450       12.813       13.534        6.907      164.167      183.156       47.706        0.239        0.020       66.001        5.775        0.008      343.981       20.473      861.421
09/01/2013  06:06:00      -60.983       18.373      -10.919       19.877       13.782        9.919      395.077      189.937       98.378        0.243        0.034       63.691        7.535        0.014      343.949       20.420      861.444
09/01/2013  06:07:00      -57.898      -23.407       -3.778       32.590       18.312       17.976     1062.101      335.318      323.131        0.282        0.086       62.450       10.678        0.029      344.025       20.550      861.476
09/01/2013  06:08:00       -2.145        2.783       20.783       20.052       13.321       12.579      402.098      177.447      158.241        0.059        0.037        3.514        9.096        6.699      343.917       20.366      861.505
09/01/2013  06:09:00       -4.017       -0.694        6.051       18.671       11.348       15.272      348.601      128.782      233.225        0.038        0.036        4.077       13.160       10.421      343.915       20.363      861.506
09/01/2013  06:10:00       59.663      -21.457       -1.288       33.977       37.846       29.841     1154.446     1432.348      890.484        0.375        0.174       63.404       24.522        0.150      343.469       19.603      861.479
09/01/2013  06:11:00       36.535       -2.212       11.715       32.259       24.128       18.034     1040.612      582.156      325.231        0.171        0.097       36.602       14.505        0.157      343.562       19.761      861.462
09/01/2013  06:12:00       41.656      -11.586        7.772       30.115       18.604       23.335      906.924      346.114      544.527        0.186        0.090       43.237       19.509        0.204      343.492       19.642      861.449
09/01/2013  06:13:00       17.356       -1.673       -5.514       12.309       10.263       12.244      151.519      105.326      149.906        0.037        0.020       17.437        3.836        0.048      344.085       20.652      861.458
09/01/2013  06:14:00       -6.526      -35.980       -0.562       18.139       14.356        9.160      329.038      206.095       83.908        0.098        0.031       36.567       10.862        0.088      344.163       20.788      861.480
09/01/2013  06:15:00       29.543      -43.703        7.016       34.072       18.545       18.669     1160.904      343.931      348.541        0.234        0.093       52.752       14.566        0.076      344.281       20.988      861.487
09/01/2013  06:16:00       38.399      -13.304       28.926       39.636       40.913       32.526     1570.976     1673.886     1057.929        0.339        0.215       40.638       26.954        0.440      343.937       20.401      861.497
09/01/2013  06:17:00        4.915       14.640       38.396       20.683       24.804       21.083      427.774      615.230      444.481        0.160        0.074       15.443        7.664        0.246      343.580       19.793      861.512
09/01/2013  06:18:00        8.949      -48.522       18.954       32.348       38.579       29.075     1046.413     1488.331      845.384        0.309        0.169       49.341       18.863        0.146      343.996       20.501      861.550
09/01/2013  06:19:00       38.813      -32.136       -1.027       37.931       27.690       27.946     1438.759      766.761      780.970        0.276        0.149       50.390       16.596        0.108      343.980       20.473      861.588
09/01/2013  06:20:00      -15.453       -0.680        0.271       11.518        8.639        7.693      132.660       74.636       59.182        0.025        0.013       15.468        4.400        0.081      343.807       20.179      861.609
09/01/2013  06:21:00      -28.275       -1.576       -3.576       19.288        7.377        9.698      372.022       54.418       94.047        0.067        0.026       28.319        4.927        0.030      343.948       20.420      861.614
09/01/2013  06:22:00      -44.510        3.352       -3.019       11.456       12.276        7.820      131.231      150.696       61.152        0.117        0.017       44.636        5.808        0.017      344.194       20.840      861.612
09/01/2013  06:23:00      -25.942      -10.639       -3.358       23.503       12.843       13.620      552.380      164.934      185.496        0.085        0.045       28.039        8.898        0.101      344.133       20.734      861.614
09/01/2013  06:24:00       15.286       11.872       20.406       24.460       20.189       19.348      598.284      407.610      374.360        0.109        0.069       19.355       13.059        0.455      343.694       19.985      861.619
09/01/2013  06:25:00       30.218       -4.937       22.971       33.964       18.741       15.616     1153.524      351.243      243.847        0.161        0.087       30.619       14.544        0.226      343.382       19.454      861.627
09/01/2013  06:26:00       66.833      -27.622       15.060       22.604       20.040       22.898      510.936      401.621      524.298        0.345        0.072       72.317       14.285        0.039      343.681       19.963      861.636
09/01/2013  06:27:00       -1.744        1.948       20.319       18.298       24.474       17.629      334.819      598.968      310.796        0.083        0.062        2.615       16.170       38.245      343.519       19.689      861.645
09/01/2013  06:28:00      -50.376       -9.233       -4.651       24.800       15.863       10.171      615.048      251.625      103.440        0.181        0.049       51.215       10.247        0.040      343.767       20.111      861.662
09/01/2013  06:29:00      -89.633      -18.367       -6.228       16.291       15.286       11.431      265.411      233.652      130.662        0.452        0.031       91.495       10.092        0.012      343.684       19.968      861.676
09/01/2013  06:30:00      -73.521      -25.511       -5.838       13.615       17.437        7.604      185.359      304.044       57.825        0.332        0.027       77.821        6.261        0.006      343.731       20.048      861.691
09/01/2013  06:31:00      -86.914      -28.590       -6.688       20.253       27.747       14.485      410.204      769.888      209.813        0.490        0.069       91.495       12.587        0.019      343.641       19.895      861.699
09/01/2013  06:32:00      -56.959      -24.602        3.249       24.348       23.087       17.843      592.825      533.003      318.372        0.265        0.072       62.045       15.994        0.066      343.573       19.780      861.709
09/01/2013  06:33:00      -37.769        6.918        4.401       25.576       19.748       12.485      654.127      389.966      155.882        0.135        0.060       38.397        6.886        0.032      343.465       19.595      861.718
09/01/2013  06:34:00        3.996       -2.015        7.933       12.833       12.175        8.670      164.688      148.241       75.161        0.024        0.019        4.475        4.580        1.048      343.255       19.237      861.729
09/01/2013  06:35:00        5.782       -8.436       -3.468       13.777        9.655        8.146      189.805       93.221       66.357        0.023        0.017       10.227        8.190        0.641      343.619       19.858      861.748
09/01/2013  06:36:00       -3.723      -11.375       -7.605       11.721       12.375        9.771      137.380      153.146       95.474        0.029        0.019       11.969        7.541        0.397      343.761       20.100      861.753
09/01/2013  06:37:00      -41.770        3.728        0.547       15.092        8.969        9.474      227.764       80.443       89.757        0.108        0.020       41.936        9.235        0.048      343.589       19.807      861.763
09/01/2013  06:38:00      -64.858        9.682       -1.784       37.533       18.659       16.999     1408.760      348.162      288.980        0.317        0.102       65.577       15.628        0.057      343.493       19.643      861.756
09/01/2013  06:39:00      -65.979       20.141       -5.876       41.461       26.820       16.321     1719.042      719.314      266.360        0.375        0.135       68.985       11.288        0.027      343.288       19.295      861.753
09/01/2013  06:40:00      -34.720        0.466       -5.712       31.810       18.252       12.799     1011.878      333.151      163.808        0.137        0.075       34.723       15.875        0.209      343.335       19.374      861.747
09/01/2013  06:41:00      -23.608       21.170       -4.332       24.685       21.895       12.674      609.336      479.385      160.638        0.114        0.062       31.710       14.802        0.218      343.490       19.636      861.745
09/01/2013  06:42:00       27.043        1.107        8.743       26.350       12.115       15.131      694.343      146.781      228.953        0.094        0.054       27.066       16.435        0.369      343.438       19.549      861.734
09/01/2013  06:43:00      -16.364        3.183        9.823       17.969       12.604       20.678      322.901      158.860      427.562        0.064        0.045       16.670       14.600        0.767      343.297       19.310      861.716
09/01/2013  06:44:00      -57.390        0.250      -11.657       15.957       11.152        8.922      254.612      124.368       79.606        0.194        0.023       57.391        5.354        0.009      343.603       19.832      861.710
09/01/2013  06:45:00      -72.893      -28.642      -11.222       21.437       13.962       10.268      459.527      194.950      105.426        0.351        0.038       78.318        5.946        0.006      343.424       19.523      861.705
09/01/2013  06:46:00     -128.366      -38.616      -18.219       29.635       15.699       12.008      878.215      246.472      144.201        0.978        0.063      134.049       12.601        0.009      343.274       19.270      861.701
09/01/2013  06:47:00     -110.378      -27.883       -9.741       35.090       28.977       20.933     1231.337      839.660      438.186        0.778        0.125      113.845       15.224        0.018      343.105       18.983      861.716
09/01/2013  06:48:00      -88.012      -20.300       -0.745       41.536       26.457       23.755     1725.272      699.970      564.301        0.557        0.149       90.323       20.605        0.052      343.208       19.157      861.733
09/01/2013  06:49:00      -88.121       -9.531       -5.424       27.490       27.475       18.212      755.687      754.862      331.690        0.486        0.092       88.635       16.236        0.034      343.258       19.242      861.750
09/01/2013  06:50:00      -91.031      -39.877       -6.558       20.362       24.228       13.078      414.604      586.980      171.024        0.555        0.059       99.383       11.473        0.013      343.195       19.136      861.766
09/01/2013  06:51:00      -91.675      -19.565       -5.533       34.593       42.202       21.147     1196.693     1781.041      447.202        0.612        0.171       93.739       12.009        0.016      343.211       19.163      861.775
09/01/2013  06:52:00     -128.472       21.452      -15.875       59.993       27.524       23.284     3599.214      757.573      542.139        1.106        0.245      130.250       22.347        0.029      343.344       19.390      861.781
09/01/2013  06:53:00     -108.287       -6.005       -6.807       46.139       42.523       21.643     2128.798     1808.208      468.425        0.811        0.220      108.454       16.782        0.024      343.360       19.417      861.784
09/01/2013  06:54:00      -93.836       -6.588       -6.831       29.366       31.591       14.574      862.367      997.970      212.399        0.548        0.104       94.067        7.147        0.006      343.428       19.532      861.785
09/01/2013  06:55:00      -45.011      -10.742       -2.491       21.332       19.272       14.150      455.058      371.391      200.213        0.159        0.051       46.275       12.064        0.068      343.321       19.348      861.794
09/01/2013  06:56:00      -19.119       10.053        9.731       11.014       15.743       14.832      121.311      247.854      219.986        0.058        0.029       21.601       11.893        0.303      343.171       19.095      861.792
09/01/2013  06:57:00      -68.423      -13.730       -7.230       26.231       14.275        8.033      688.081      203.782       64.523        0.294        0.048       69.787       10.997        0.025      343.422       19.523      861.783
09/01/2013  06:58:00     -103.097      -12.473       -3.825       35.087       29.921       21.900     1231.117      895.261      479.589        0.670        0.130      103.849       17.404        0.028      343.280       19.280      861.783
09/01/2013  06:59:00      -91.783       10.333       -4.236       43.851       32.478       20.358     1922.943     1054.847      414.457        0.597        0.170       92.363       20.647        0.050      343.262       19.251      861.782
09/01/2013  07:00:00     -142.846       -6.147      -17.098       35.491       44.126       17.663     1259.576     1947.103      311.989        1.213        0.176      142.978       13.269        0.009      343.307       19.326      861.776
09/01/2013  07:01:00     -121.768      -24.810       -6.769       31.023       32.042       25.750      962.408     1026.718      663.038        0.907        0.133      124.270       21.544        0.030      343.290       19.299      861.772
09/01/2013  07:02:00      -87.099       -9.232        2.523       46.836       27.172       22.864     2193.602      738.342      522.776        0.557        0.173       87.587       26.189        0.089      343.295       19.305      861.766
09/01/2013  07:03:00     -103.446      -22.273       -3.358       23.453       21.060       18.951      550.062      443.519      359.131        0.628        0.068      105.816       14.778        0.020      343.384       19.458      861.768
09/01/2013  07:04:00      -77.475      -25.057       -0.800        9.910       16.637        6.796       98.199      276.803       46.181        0.353        0.021       81.426        2.485        0.001      343.383       19.455      861.775
09/01/2013  07:05:00      -91.629      -30.511       -3.635        8.858       10.358        7.755       78.469      107.295       60.134        0.479        0.012       96.575        5.386        0.003      343.372       19.436      861.777
09/01/2013  07:06:00      -98.245      -19.222       -9.522        8.894        7.078        5.718       79.108       50.102       32.694        0.514        0.008      100.108        3.686        0.001      343.304       19.321      861.783
09/01/2013  07:07:00      -73.333       -6.779       -3.127       13.476        7.804        8.874      181.591       60.902       78.743        0.288        0.016       73.645        8.823        0.014      343.329       19.363      861.788
09/01/2013  07:08:00      -47.218        1.297        0.369       17.869       13.978        9.628      319.299      195.392       92.700        0.142        0.030       47.235        9.143        0.037      343.282       19.282      861.797
09/01/2013  07:09:00      -64.326      -18.610        3.970       23.882       19.669       13.131      570.356      386.852      172.415        0.281        0.056       66.964       13.378        0.040      343.323       19.354      861.812
09/01/2013  07:10:00      -77.855       -4.662        1.837       41.896       19.164       18.112     1755.251      367.264      328.053        0.427        0.123       77.994       20.547        0.069      343.254       19.236      861.831
09/01/2013  07:11:00     -101.573        2.370       -7.721       52.648       37.134       19.046     2771.834     1378.916      362.768        0.745        0.226      101.601       24.984        0.060      343.356       19.409      861.860
09/01/2013  07:12:00      -65.182       -3.411       -3.244       46.673       33.489       18.173     2178.339     1121.507      330.240        0.395        0.182       65.271       19.696        0.091      343.252       19.233      861.889
09/01/2013  07:13:00      -26.578       -9.797        8.818       23.913       14.898       10.479      571.824      221.949      109.812        0.089        0.045       28.326       10.325        0.133      343.324       19.355      861.907
09/01/2013  07:14:00        9.083        5.513        6.129       27.271       17.444       17.513      743.710      304.289      306.698        0.075        0.068       10.626       13.630        1.645      343.029       18.853      861.913
09/01/2013  07:15:00      -18.415        2.251        5.049       12.124       10.818       15.065      146.991      117.039      226.948        0.043        0.025       18.553       11.340        0.374      343.102       18.978      861.911
09/01/2013  07:16:00      -40.530      -13.323       -1.396        6.267        6.559        3.673       39.276       43.026       13.491        0.096        0.005       42.664        0.848        0.000      343.357       19.414      861.902
09/01/2013  07:17:00      -48.203      -10.572        0.342       12.473       10.650        8.761      155.587      113.425       76.752        0.139        0.017       49.348        6.532        0.018      343.460       19.589      861.897
09/01/2013  07:18:00      -20.367      -29.712        9.208       30.717       16.230       15.192      943.507      263.414      230.796        0.141        0.072       36.022       17.047        0.224      343.233       19.201      861.892
09/01/2013  07:19:00      -43.003      -22.338        6.456       51.734       16.387       17.343     2676.399      268.524      300.769        0.282        0.162       48.459       27.616        0.325      343.147       19.054      861.889
09/01/2013  07:20:00      -95.690       -7.594       -6.605       22.694       18.979       12.823      515.018      360.218      164.433        0.515        0.052       95.991        9.605        0.010      343.279       19.280      861.889
09/01/2013  07:21:00      -74.815       -4.515       -8.266       22.740       11.063        7.504      517.096      122.401       56.317        0.319        0.035       74.951        6.323        0.007      343.370       19.434      861.881
09/01/2013  07:22:00      -65.818      -25.703       -5.885       20.972       13.451        8.846      439.844      180.931       78.247        0.286        0.035       70.658        7.240        0.010      343.411       19.503      861.882
09/01/2013  07:23:00      -72.831      -37.138       -5.620       12.997       12.653        8.485      168.915      160.086       72.001        0.356        0.020       81.753        6.035        0.005      343.416       19.511      861.882
09/01/2013  07:24:00      -94.223      -48.408       -3.090       15.375       12.248        5.929      236.383      150.017       35.156        0.583        0.021      105.931        5.095        0.002      343.433       19.542      861.884
09/01/2013  07:25:00      -72.751      -42.836        2.507       16.841       18.858       13.852      283.609      355.620      191.890        0.398        0.042       84.426       10.022        0.014      343.383       19.455      861.889
09/01/2013  07:26:00      -85.037      -25.240       -4.891       12.616       11.329        8.705      159.157      128.354       75.772        0.413        0.018       88.703        8.904        0.010      343.422       19.522      861.882
09/01/2013  07:27:00      -49.553      -31.317        1.591       31.013       14.101       13.963      961.791      198.838      194.952        0.240        0.068       58.620       17.019        0.084      343.390       19.468      861.880
09/01/2013  07:28:00      -20.439      -10.846        7.112       19.051       16.731       11.487      362.931      279.923      131.961        0.068        0.039       23.138       10.789        0.217      343.340       19.381      861.875
09/01/2013  07:29:00       15.680       -7.511       18.188       20.593       17.671       14.089      424.064      312.248      198.505        0.078        0.047       17.386        8.787        0.255      342.969       18.750      861.877
09/01/2013  07:30:00       34.787       -5.299       16.571       22.810       16.250       19.051      520.291      264.052      362.924        0.133        0.057       35.188        6.646        0.036      342.769       18.412      861.876
09/01/2013  07:31:00       24.686       20.304       17.553       18.080       16.283       19.720      326.878      265.150      388.874        0.116        0.049       31.963       13.234        0.171      342.983       18.774      861.888
09/01/2013  07:32:00       17.748      -10.874       -3.507       36.751       24.512       16.763     1350.660      600.858      280.997        0.134        0.112       20.814       17.093        0.674      342.997       18.798      861.899
09/01/2013  07:33:00        7.362       -1.757       14.814       20.765       19.003       18.129      431.177      361.096      328.673        0.070        0.056        7.569       12.018        2.521      343.063       18.912      861.907
09/01/2013  07:34:00       17.824      -15.079        5.922       16.265       16.287       15.656      264.553      265.254      245.095        0.068        0.039       23.346       10.632        0.207      343.125       19.017      861.912
09/01/2013  07:35:00       34.927      -23.143       -7.341       31.797       27.978       22.221     1011.028      782.772      493.783        0.205        0.114       41.899       19.038        0.206      342.896       18.626      861.912
09/01/2013  07:36:00        7.478       -3.921       -0.396       12.539       12.411       14.963      157.227      154.022      223.900        0.030        0.027        8.444        9.194        1.186      343.036       18.865      861.916
09/01/2013  07:37:00       -7.382       -0.247       -0.316       11.177       10.126       10.503      124.932      102.527      110.307        0.020        0.017        7.386        5.229        0.501      343.182       19.114      861.927
09/01/2013  07:38:00      -26.733        3.516        7.669        8.424        5.936        6.048       70.971       35.232       36.574        0.046        0.007       26.963        1.596        0.004      343.264       19.255      861.941
09/01/2013  07:39:00        2.971        1.764       15.468       18.387       10.033       10.514      338.099      100.653      110.550        0.040        0.027        3.455        9.171        7.046      342.964       18.742      861.946
09/01/2013  07:40:00       23.695      -17.615       12.400       26.420       14.402       15.699      697.995      207.409      246.444        0.109        0.058       29.525       13.076        0.196      342.763       18.402      861.953
09/01/2013  07:41:00       25.235      -16.931       -7.125       28.485       15.814       13.799      811.376      250.071      190.407        0.111        0.063       30.389        5.642        0.034      342.761       18.398      861.958
09/01/2013  07:42:00       21.868      -17.115      -10.042       26.898       17.197       12.219      723.512      295.726      149.312        0.102        0.058       27.769        9.313        0.112      342.933       18.689      861.952
09/01/2013  07:43:00        4.014       -2.180       16.150        9.439        8.165        9.918       89.104       66.671       98.362        0.027        0.013        4.568        4.241        0.862      343.127       19.019      861.938
09/01/2013  07:44:00        4.007      -15.029       -9.660       16.395       13.486       12.499      268.812      181.880      156.221        0.047        0.030       15.554        7.549        0.236      343.257       19.241      861.931
09/01/2013  07:45:00       19.547      -12.805       -0.222       17.043       19.125       21.023      290.454      365.762      441.957        0.082        0.055       23.368        9.929        0.181      343.044       18.878      861.938
09/01/2013  07:46:00       -7.051        9.456       18.663       20.331       15.349       10.106      413.352      235.604      102.124        0.062        0.038       11.796        9.555        0.656      343.147       19.054      861.960
09/01/2013  07:47:00      -62.101      -17.690       -1.651       12.035       12.006        7.223      144.846      144.155       52.177        0.226        0.017       64.571        6.399        0.010      343.379       19.450      861.992
09/01/2013  07:48:00      -88.580       -4.888      -10.588       22.257       17.075       14.143      495.355      291.571      200.031        0.448        0.049       88.715       12.636        0.020      343.269       19.262      862.020
09/01/2013  07:49:00      -90.757      -15.648       -8.767       30.408       15.767       14.105      924.652      248.607      198.956        0.497        0.069       92.097       17.642        0.037      343.293       19.303      862.022
09/01/2013  07:50:00      -55.969       -0.479       -1.244       33.704       14.784       13.679     1135.974      218.571      187.127        0.234        0.077       55.971       18.479        0.109      343.226       19.191      862.020
09/01/2013  07:51:00      -59.555      -12.296       -5.893       13.233       10.730        8.643      175.125      115.124       74.705        0.205        0.018       60.811        8.792        0.021      343.321       19.349      862.008
09/01/2013  07:52:00      -57.564      -12.310        2.361       18.297       12.527        8.998      334.780      156.929       80.960        0.202        0.029       58.866       10.810        0.034      343.357       19.412      861.997
09/01/2013  07:53:00      -71.057      -32.088       -0.603       13.224       17.307        8.560      174.874      299.533       73.267        0.331        0.027       77.966        6.165        0.006      343.395       19.477      861.992
09/01/2013  07:54:00      -80.245      -21.876       -6.371       12.746       11.116        7.833      162.454      123.557       61.356        0.365        0.017       83.174        7.586        0.008      343.405       19.493      862.003
09/01/2013  07:55:00      -84.709      -30.623       -6.135        9.820       11.771        7.862       96.423      138.549       61.819        0.422        0.015       90.075        5.735        0.004      343.418       19.515      862.015
09/01/2013  07:56:00      -85.247      -15.513       -5.853       22.510       14.212       13.324      506.707      201.973      177.519        0.421        0.044       86.647       10.763        0.015      343.454       19.577      862.035
09/01/2013  07:57:00      -66.350      -32.234       -1.466       21.350       14.707        7.545      455.801      216.308       56.930        0.309        0.036       73.766        5.930        0.006      343.528       19.704      862.054
09/01/2013  07:58:00      -17.903      -14.685        5.341       17.450       19.714       12.178      304.520      388.635      148.312        0.070        0.042       23.156       11.028        0.227      343.570       19.772      862.064
09/01/2013  07:59:00      -23.426      -36.215        2.658       23.953       19.307       15.967      573.756      372.771      254.955        0.153        0.060       43.132       15.322        0.126      343.659       19.926      862.077
09/01/2013  08:00:00      -28.429      -46.405        2.673       23.705       25.692       14.802      561.929      660.083      219.090        0.220        0.072       54.421       14.754        0.074      343.720       20.030      862.085
09/01/2013  08:01:00      -22.236      -62.680       -6.424       14.999       21.159       13.051      224.975      447.685      170.320        0.265        0.042       66.507       12.849        0.037      343.977       20.469      862.097
09/01/2013  08:02:00        1.996      -39.348       -7.664       23.618       20.348       18.777      557.810      414.043      352.589        0.147        0.066       39.398        5.950        0.023      343.847       20.247      862.098
09/01/2013  08:03:00      -13.861      -24.328        5.018       14.878       14.023       10.201      221.350      196.649      104.061        0.067        0.026       28.000        9.721        0.121      343.986       20.484      862.114
09/01/2013  08:04:00       14.608       -6.204       18.756       24.856       14.697       15.394      617.812      215.992      236.978        0.084        0.054       15.871        9.143        0.332      343.678       19.960      862.137
09/01/2013  08:05:00       15.094      -16.444        8.320       12.799       21.967       16.473      163.825      482.534      271.353        0.074        0.046       22.321       12.201        0.299      343.618       19.857      862.159
09/01/2013  08:06:00       49.655      -23.525       -2.808       22.432       23.259       18.002      503.202      540.974      324.082        0.220        0.068       54.946       12.550        0.052      343.167       19.088      862.165
09/01/2013  08:07:00       32.451       -6.495       -5.926       20.913       18.895       15.847      437.339      357.029      251.130        0.109        0.052       33.095        5.631        0.029      343.360       19.416      862.179
09/01/2013  08:08:00       46.354      -10.199       15.398       20.769       18.093       24.762      431.358      327.360      613.177        0.193        0.069       47.463        9.397        0.039      343.173       19.099      862.192
09/01/2013  08:09:00       27.606      -15.281      -13.652       21.862       26.410       16.154      477.955      697.472      260.964        0.131        0.072       31.553        9.569        0.092      343.273       19.270      862.191
09/01/2013  08:10:00       21.170      -34.010       -1.860       32.492       29.479       30.718     1055.700      869.010      943.625        0.224        0.143       40.061       18.450        0.212      343.127       19.020      862.185
09/01/2013  08:11:00       50.620        7.591       11.063       27.811       49.455       18.483      773.435     2445.775      341.629        0.315        0.178       51.186       17.048        0.111      343.148       19.057      862.185
09/01/2013  08:12:00       26.233       25.340        4.690       20.383       24.372       12.151      415.465      594.019      147.645        0.125        0.058       36.473       11.106        0.093      343.262       19.249      862.185
09/01/2013  08:13:00       17.043       31.666      -19.780       16.540       17.973       12.925      273.557      323.012      167.050        0.122        0.038       35.961        7.886        0.048      343.245       19.221      862.166
09/01/2013  08:14:00       12.792       19.708       -5.263       15.647       15.658       11.421      244.838      245.158      130.431        0.060        0.031       23.496        8.852        0.142      343.384       19.456      862.157
09/01/2013  08:15:00       -2.216       42.783       -7.397        9.456       10.969        7.014       89.410      120.329       49.193        0.107        0.013       42.841        4.132        0.009      343.383       19.455      862.151
09/01/2013  08:16:00        3.134       64.750       -4.784       11.754       11.168       12.921      138.157      124.721      166.960        0.233        0.021       64.826        7.080        0.012      343.486       19.630      862.124
09/01/2013  08:17:00       -3.063       57.949       -5.789       12.192       32.371       11.095      148.654     1047.904      123.099        0.236        0.066       58.030       13.980        0.058      343.645       19.901      862.117
09/01/2013  08:18:00        2.740       47.988        1.454       10.220       14.334       12.267      104.458      205.471      150.479        0.139        0.023       48.066        9.826        0.042      343.658       19.924      862.110
09/01/2013  08:19:00        6.280       47.475        2.077       13.099       12.400        9.257      171.592      153.753       85.695        0.135        0.021       47.889        7.583        0.025      343.699       19.993      862.100
09/01/2013  08:20:00        1.679       11.034       10.321       12.342       17.264       10.692      152.315      298.058      114.312        0.040        0.028       11.161        9.805        0.772      343.638       19.889      862.094
09/01/2013  08:21:00       -1.924       -1.763       11.899       12.217       16.519       11.810      149.254      272.885      139.474        0.035        0.028        2.610        8.727       11.182      343.263       19.251      862.093
09/01/2013  08:22:00       28.577       12.108      -19.027       27.761       27.460       21.451      770.672      754.053      460.126        0.165        0.099       31.036       14.661        0.223      343.261       19.248      862.095
09/01/2013  08:23:00       29.988       -1.948        7.080       25.189       19.188       18.991      634.462      368.188      360.676        0.116        0.068       30.051       12.462        0.172      343.179       19.108      862.091
09/01/2013  08:24:00       43.470      -14.193       20.018       36.256       26.803       14.691     1314.507      718.387      215.818        0.237        0.112       45.729       10.552        0.053      343.145       19.051      862.086
09/01/2013  08:25:00       48.342      -15.885       19.591       24.820       18.411       22.842      616.011      338.948      521.747        0.222        0.074       50.885       11.976        0.055      343.162       19.079      862.080
09/01/2013  08:26:00       42.277      -23.853       -0.875       27.940       23.961       29.881      780.640      574.150      892.883        0.230        0.112       48.542        8.649        0.032      343.195       19.135      862.080
09/01/2013  08:27:00       28.907      -19.547        3.186       29.617       19.116       20.321      877.141      365.423      412.950        0.144        0.083       34.895       15.918        0.208      343.349       19.398      862.077
09/01/2013  08:28:00       36.762       -7.121       22.275       28.175       24.385       24.961      793.847      594.633      623.040        0.195        0.101       37.445       21.986        0.345      343.307       19.327      862.069
09/01/2013  08:29:00       25.531        0.266       22.203       25.628       19.694       19.580      656.806      387.860      383.366        0.129        0.071       25.533       12.410        0.236      343.358       19.414      862.058
09/01/2013  08:30:00       33.844      -14.887       16.697       21.901       19.099       18.216      479.639      364.783      331.808        0.141        0.059       36.973       12.898        0.122      343.326       19.359      862.061
09/01/2013  08:31:00        4.998       -5.174        1.276       36.956       14.105       12.667     1365.723      198.964      160.441        0.089        0.086        7.194       12.566        3.051      343.504       19.663      862.079
09/01/2013  08:32:00      -86.405      -29.375       -5.990       18.243       13.599        5.720      332.808      184.924       32.716        0.446        0.028       91.262        3.685        0.002      343.653       19.914      862.106
09/01/2013  08:33:00      -99.719      -31.983       -4.209       11.906       13.753        8.663      141.742      189.147       75.040        0.570        0.020      104.723        4.645        0.002      343.633       19.882      862.132
09/01/2013  08:34:00      -71.563      -21.695        1.551       28.862       20.032       13.459      832.994      401.296      181.149        0.350        0.071       74.780       12.796        0.029      343.671       19.946      862.159
09/01/2013  08:35:00      -68.261      -24.539        2.015       24.246       22.582       11.686      587.880      509.933      136.562        0.325        0.062       72.538       10.079        0.019      343.742       20.067      862.176
09/01/2013  08:36:00      -76.960      -34.505       -0.765       24.970       21.182       12.460      623.498      448.679      155.241        0.417        0.061       84.341       10.934        0.017      343.808       20.180      862.172
09/01/2013  08:37:00      -86.469      -25.596       -0.107       15.439       16.045       11.686      238.353      257.444      136.561        0.438        0.032       90.178        7.586        0.007      343.824       20.210      862.173
09/01/2013  08:38:00      -60.188      -14.939        1.509       28.735       19.821       13.004      825.728      392.856      169.115        0.262        0.069       62.014       15.239        0.060      343.877       20.299      862.175
09/01/2013  08:39:00      -65.720      -13.525       -2.598       29.506       18.614       14.113      870.631      346.480      199.183        0.296        0.071       67.097       15.738        0.055      343.928       20.385      862.165
09/01/2013  08:40:00      -30.660       -9.128        2.680       15.414        9.573        8.588      237.581       91.645       73.761        0.072        0.020       31.990        6.871        0.046      343.866       20.280      862.149
09/01/2013  08:41:00       19.315      -24.378       -5.822       42.705       26.034       20.510     1823.682      677.789      420.642        0.196        0.146       31.102       13.712        0.194      343.555       19.749      862.117
09/01/2013  08:42:00        5.111        2.616        1.672       22.198       12.434       24.896      492.752      154.605      619.821        0.065        0.063        5.742       19.364       11.374      343.841       20.236      862.095
09/01/2013  08:43:00       44.192      -13.232       21.274       22.684       20.173       29.524      514.562      406.954      871.645        0.219        0.090       46.130       11.456        0.062      343.458       19.583      862.084
09/01/2013  08:44:00       25.571      -14.591        6.642       19.591       23.553       26.658      383.801      554.745      710.666        0.128        0.082       29.441       15.039        0.261      343.706       20.007      862.065
09/01/2013  08:45:00       41.879      -12.998       -2.029       23.078       24.784       25.797      532.615      614.240      665.473        0.187        0.091       43.850       11.739        0.072      343.443       19.559      862.047
09/01/2013  08:46:00       44.954      -16.343      -16.314       18.472       30.376       19.179      341.218      922.708      367.822        0.209        0.082       47.833       12.541        0.069      343.520       19.689      862.045
09/01/2013  08:47:00        8.125       10.089        2.905       15.058       13.890       15.438      226.743      192.922      238.347        0.042        0.033       12.954       10.849        0.701      343.851       20.254      862.028
09/01/2013  08:48:00       14.308      -13.634       -4.037       11.703       11.895       15.137      136.960      141.492      229.130        0.046        0.025       19.763        9.425        0.227      343.885       20.314      862.021
09/01/2013  08:49:00        9.535       -2.327       16.100        8.997       16.119       10.738       80.938      259.834      115.296        0.041        0.023        9.814        8.689        0.784      344.070       20.629      862.025
09/01/2013  08:50:00       23.797      -19.939        3.606       34.037       24.180       22.428     1158.544      584.680      503.005        0.161        0.112       31.046       11.937        0.148      343.586       19.803      862.035
09/01/2013  08:51:00       10.013      -16.399       -5.208       24.240       21.861       11.023      587.593      477.902      121.503        0.079        0.059       19.214        5.236        0.074      343.919       20.371      862.056
09/01/2013  08:52:00       -1.278      -16.294       -6.482       29.440       22.756        8.769      866.707      517.837       76.902        0.089        0.073       16.344       12.667        0.601      344.074       20.635      862.067
09/01/2013  08:53:00        7.454      -30.788       -7.583       26.080       21.393       17.302      680.183      457.677      299.367        0.125        0.072       31.678       17.270        0.297      343.958       20.436      862.085
09/01/2013  08:54:00        8.218      -14.619      -18.987       21.167       22.070       18.769      448.061      487.075      352.258        0.096        0.064       16.770       15.891        0.898      343.924       20.380      862.083
09/01/2013  08:55:00       44.521       -3.133       10.349       31.071       30.137       25.220      965.402      908.229      636.071        0.230        0.125       44.632       19.487        0.191      343.819       20.200      862.085
09/01/2013  08:56:00       23.823       -9.580       14.669       10.418       12.493       16.487      108.534      156.073      271.818        0.071        0.027       25.677        9.519        0.137      343.958       20.436      862.083
09/01/2013  08:57:00       43.714      -18.781        6.355       20.439       19.287       20.279      417.747      371.980      411.243        0.175        0.060       47.578        8.944        0.035      343.737       20.060      862.089
09/01/2013  08:58:00       25.245       -7.599       -3.827       30.066       16.026       19.292      903.982      256.841      372.163        0.112        0.077       26.364       13.682        0.269      344.069       20.627      862.091
09/01/2013  08:59:00      -19.499        1.680        0.513       12.580        7.064        5.564      158.248       49.897       30.955        0.031        0.012       19.571        6.444        0.108      344.634       21.593      862.083
09/01/2013  09:00:00       18.615      -25.226       -3.070       36.998       25.914       22.055     1368.845      671.517      486.437        0.176        0.126       31.351       17.727        0.320      344.131       20.733      862.080
09/01/2013  09:01:00       20.537      -10.900       14.492       31.643       22.897       19.582     1001.268      524.267      383.466        0.133        0.095       23.250       15.064        0.420      344.382       21.160      862.077
09/01/2013  09:02:00       54.407      -14.867       18.514       20.734       16.524       27.411      429.892      273.058      751.385        0.249        0.073       56.402       13.743        0.059      344.028       20.555      862.078
09/01/2013  09:03:00       33.514       -1.342       17.892       44.107       25.615       19.314     1945.386      656.110      373.046        0.221        0.149       33.541       21.315        0.404      344.233       20.906      862.084
09/01/2013  09:04:00       29.529       -5.066       13.711       26.628       17.361       26.423      709.027      301.407      698.196        0.140        0.085       29.961       15.978        0.284      344.340       21.089      862.084
09/01/2013  09:05:00       39.417      -12.221       13.221       27.848       17.215       16.941      775.492      296.347      286.994        0.162        0.068       41.268       10.291        0.062      344.212       20.870      862.094
09/01/2013  09:06:00        3.819       16.918       31.340       14.005       19.074       14.472      196.146      363.806      209.448        0.103        0.038       17.344        3.832        0.049      344.586       21.511      862.102
09/01/2013  09:07:00       21.754        0.244       23.786       23.104       15.654       20.056      533.782      245.040      402.246        0.111        0.059       21.755       11.909        0.300      344.462       21.297      862.098
09/01/2013  09:08:00       42.104       -4.665       11.213       24.697       20.667       27.844      609.954      427.120      775.291        0.187        0.091       42.362       13.532        0.102      344.231       20.903      862.099
09/01/2013  09:09:00       13.559       12.269      -14.613       15.710       16.933       10.613      246.809      286.739      112.636        0.060        0.032       18.286        7.733        0.179      344.684       21.678      862.090
09/01/2013  09:10:00        5.003        1.181       18.541       14.786       24.729       20.501      218.623      611.511      420.275        0.081        0.063        5.141       12.204        5.636      344.825       21.919      862.077
09/01/2013  09:11:00        6.576       13.801       15.899       17.164       17.386       23.384      294.600      302.273      546.825        0.081        0.057       15.288       17.364        1.290      344.616       21.560      862.074
09/01/2013  09:12:00       25.669       24.753        4.690       19.338       17.667       14.845      373.961      312.139      220.364        0.110        0.045       35.660       13.192        0.137      344.908       22.061      862.071
09/01/2013  09:13:00       20.861       10.671       19.029       28.353       16.618       14.101      803.916      276.149      198.832        0.109        0.064       23.432       10.734        0.210      345.035       22.279      862.067
09/01/2013  09:14:00       19.887       12.757       18.624       24.333       13.907       15.045      592.074      193.417      226.346        0.096        0.051       23.627       10.520        0.198      345.161       22.494      862.061
09/01/2013  09:15:00        5.819       22.809       20.867       26.610       19.954       24.351      708.088      398.165      592.951        0.134        0.085       23.540       18.594        0.624      344.656       21.629      862.059
09/01/2013  09:16:00        4.653        0.228       12.371       17.717       20.808       19.672      313.885      432.959      386.992        0.065        0.057        4.659       13.945        8.960      344.793       21.863      862.067
09/01/2013  09:17:00       -9.352       14.980       13.444       13.997       16.248       14.371      195.922      263.990      206.528        0.058        0.033       17.660        5.493        0.097      344.715       21.730      862.070
09/01/2013  09:18:00      -31.074      -11.614       -1.921       15.121       14.084       10.020      228.641      198.355      100.404        0.082        0.026       33.173        6.073        0.034      345.090       22.373      862.084
09/01/2013  09:19:00      -44.453       -5.189       -3.133        9.511        8.748        5.068       90.464       76.527       25.680        0.110        0.010       44.755        1.527        0.001      345.029       22.267      862.104
09/01/2013  09:20:00      -26.536        6.793       -1.712        7.140        5.751        4.935       50.981       33.073       24.351        0.043        0.005       27.392        2.167        0.006      345.050       22.304      862.117
09/01/2013  09:21:00      -14.631        2.613        2.986        6.262        5.945        5.113       39.218       35.343       26.140        0.017        0.005       14.862        3.358        0.051      345.278       22.694      862.122
09/01/2013  09:22:00      -44.279       -6.067       -2.351        8.762        5.383        4.858       76.781       28.981       23.599        0.107        0.006       44.693        3.845        0.007      345.071       22.344      862.130
09/01/2013  09:23:00      -33.348        4.250      -10.037       15.532        7.748        8.469      241.251       60.035       71.722        0.080        0.019       33.618        5.792        0.030      345.183       22.530      862.144
09/01/2013  09:24:00      -14.812       11.910       19.331       11.418       12.621       12.704      130.369      159.300      161.399        0.059        0.023       19.006        6.699        0.124      345.805       23.598      862.165
09/01/2013  09:25:00      -11.163       10.540       38.725        9.295       13.777       11.335       86.390      189.810      128.488        0.107        0.020       15.353        7.756        0.255      346.028       23.983      862.175
09/01/2013  09:26:00       16.644       20.961       33.957       28.599       18.441       24.927      817.894      340.070      621.370        0.182        0.089       26.765       22.172        0.686      345.522       23.112      862.174
09/01/2013  09:27:00        3.055      -13.887       33.774       14.418       37.270       16.986      207.873     1389.054      288.507        0.161        0.094       14.219       16.707        1.381      345.719       23.449      862.176
09/01/2013  09:28:00       14.835      -29.347       30.460       26.758       49.747       26.228      716.001     2474.774      687.884        0.294        0.194       32.884       21.918        0.444      345.736       23.479      862.181
09/01/2013  09:29:00       31.893      -32.475        4.420       38.213       34.573       32.248     1460.204     1195.297     1039.906        0.289        0.185       45.516       23.988        0.278      345.436       22.966      862.199
09/01/2013  09:30:00       24.250      -64.980       14.071       27.144       31.629       27.582      736.816     1000.403      760.763        0.375        0.125       69.358       19.282        0.077      345.361       22.838      862.203
09/01/2013  09:31:00        2.243      -68.963      -11.996       23.116       22.633       19.518      534.340      512.233      380.938        0.317        0.071       68.999        8.326        0.015      345.302       22.734      862.210
09/01/2013  09:32:00       -1.385      -21.946        8.337       22.596       26.267       27.875      510.597      689.957      777.013        0.126        0.099       21.989       23.398        1.132      345.678       23.380      862.212
09/01/2013  09:33:00       44.760        3.568       32.771       34.153       20.323       24.056     1166.449      413.012      578.711        0.262        0.108       44.902       20.447        0.207      345.705       23.427      862.206
09/01/2013  09:34:00       50.110       -6.230       34.152       36.769       38.965       31.300     1351.934     1518.291      979.704        0.378        0.192       50.496       27.348        0.293      345.473       23.027      862.192
09/01/2013  09:35:00       18.739      -10.033       24.945       23.995       35.914       29.161      575.775     1289.838      850.393        0.189        0.136       21.256       28.625        1.814      345.751       23.505      862.178
09/01/2013  09:36:00        0.292        5.818       23.756       24.645       27.578       21.662      607.385      760.563      469.255        0.122        0.092        5.825       16.109        7.646      345.676       23.378      862.177
09/01/2013  09:37:00       -6.965       -6.388       18.175       19.342       27.767       18.141      374.096      771.030      329.099        0.095        0.074        9.451       11.053        1.368      345.931       23.813      862.170
09/01/2013  09:38:00        2.882       -2.160        3.879       28.897       36.390       16.206      835.055     1324.225      262.641        0.122        0.121        3.601       11.859       10.844      345.644       23.321      862.170
09/01/2013  09:39:00       -2.473        4.332       31.060       15.387       24.220       12.630      236.749      586.628      159.506        0.099        0.049        4.988        4.409        0.781      346.012       23.953      862.169
09/01/2013  09:40:00        3.378       -9.767       23.227       20.368       31.839       22.419      414.839     1013.713      502.599        0.129        0.097       10.335       24.402        5.575      345.886       23.737      862.174
09/01/2013  09:41:00        5.860       24.774       51.785       26.002       23.464       14.782      676.114      550.558      218.520        0.239        0.072       25.458       10.269        0.163      346.031       23.989      862.176
09/01/2013  09:42:00       -8.632        2.085       34.327       17.559       14.116       13.608      308.326      199.273      185.172        0.097        0.035        8.880        8.164        0.845      346.082       24.075      862.179
09/01/2013  09:43:00        0.328        1.673       22.738       13.626       17.066       15.444      185.655      291.242      238.512        0.062        0.036        1.705       10.029       34.616      345.799       23.589      862.181
09/01/2013  09:44:00       -1.515        4.625       30.513       10.245       18.918       16.820      104.959      357.899      282.928        0.085        0.037        4.867       12.218        6.301      346.144       24.181      862.193
09/01/2013  09:45:00       -5.090       11.167       47.658        9.863       14.546       13.402       97.275      211.590      179.617        0.146        0.024       12.273        5.794        0.223      346.254       24.371      862.209
09/01/2013  09:46:00       -1.387       20.863       32.316       11.829       13.532       13.150      139.930      183.109      172.929        0.099        0.025       20.909        8.683        0.172      346.141       24.175      862.218
09/01/2013  09:47:00        0.907      -23.377       25.173       23.591       57.468       37.553      556.551     3302.577     1410.239        0.322        0.263       23.394       32.174        1.891      346.114       24.129      862.223
09/01/2013  09:48:00       30.421      -39.651       17.450       51.115       77.427       50.653     2612.702     5994.873     2565.725        0.699        0.559       49.977       53.862        1.162      345.877       23.722      862.236
09/01/2013  09:49:00       -3.833      -10.846       34.733       15.691       48.945       29.645      246.202     2395.612      878.841        0.243        0.176       11.503       34.573        9.033      346.146       24.183      862.239
09/01/2013  09:50:00       16.048      -84.496       -4.529       33.142       38.520       25.554     1098.419     1483.755      652.992        0.533        0.162       86.007       20.885        0.059      345.726       23.463      862.230
09/01/2013  09:51:00       -0.804      -66.905       -5.922       25.853       37.042       24.887      668.372     1372.096      619.369        0.359        0.133       66.910       15.776        0.056      345.817       23.619      862.224
09/01/2013  09:52:00       37.115     -109.656       -7.466       41.025       39.311       21.891     1683.067     1545.332      479.199        0.858        0.185      115.767       10.483        0.008      345.772       23.542      862.223
09/01/2013  09:53:00       69.014      -14.496       30.159       57.161       48.114       37.213     3267.401     2314.920     1384.797        0.642        0.348       70.520       40.614        0.332      346.044       24.008      862.203
09/01/2013  09:54:00       23.412       20.674       41.708       30.567       33.361       34.473      934.355     1112.925     1188.360        0.297        0.162       31.234       30.491        0.953      346.009       23.949      862.201
09/01/2013  09:55:00       23.606       25.432       41.065       29.804       36.235       18.643      888.305     1313.009      347.569        0.272        0.127       34.699       18.647        0.289      346.129       24.155      862.187
09/01/2013  09:56:00       29.070       37.991       46.087       45.978       53.346       43.879     2113.982     2845.795     1925.378        0.565        0.344       47.837       38.989        0.664      345.880       23.727      862.176
09/01/2013  09:57:00       80.057       55.477       68.594       51.469       47.859       39.770     2649.099     2290.530     1581.667        1.036        0.326       97.400       33.781        0.120      345.793       23.577      862.170
09/01/2013  09:58:00      122.807       79.167       22.635       35.093       27.644       28.247     1231.554      764.166      797.889        1.233        0.140      146.113       15.842        0.012      345.658       23.345      862.153
09/01/2013  09:59:00       16.021       33.176       47.073       38.311       39.548       30.207     1467.705     1564.042      912.481        0.376        0.197       36.842       19.376        0.277      346.068       24.049      862.154
09/01/2013  10:00:00       49.122       34.447       31.515       30.271       26.957       32.428      916.361      726.653     1051.568        0.364        0.135       59.996       11.364        0.036      345.815       23.616      862.163
09/01/2013  10:01:00       12.555       24.840       18.749       12.210       22.609       20.522      149.084      511.162      421.145        0.110        0.054       27.833       19.169        0.474      346.170       24.224      862.161
09/01/2013  10:02:00       17.063       15.718       24.984       20.661       16.960       25.050      426.859      287.655      627.482        0.125        0.067       23.199       15.633        0.454      346.370       24.569      862.161
09/01/2013  10:03:00       40.716       13.865       21.928       23.583       18.335       20.580      556.164      336.175      423.519        0.182        0.066       43.012       10.849        0.064      346.269       24.394      862.168
09/01/2013  10:04:00       19.515        1.942       16.106       21.824       13.636       14.658      476.299      185.940      214.867        0.076        0.044       19.611        9.674        0.243      346.325       24.492      862.180
09/01/2013  10:05:00        6.045       16.938       28.996       22.383       20.650       15.168      501.017      426.405      230.060        0.116        0.058       17.985        7.481        0.173      346.295       24.440      862.181
09/01/2013  10:06:00        4.280        5.129       49.584       24.444       38.578       22.600      597.532     1488.282      510.758        0.255        0.130        6.680       19.149        8.217      346.423       24.659      862.184
09/01/2013  10:07:00       35.078       29.428       50.857       39.193       37.351       21.631     1536.074     1395.120      467.905        0.404        0.170       45.787       17.285        0.143      346.333       24.506      862.197
09/01/2013  10:08:00       32.451       32.210       39.398       33.872       23.557       26.884     1147.315      554.935      722.743        0.303        0.121       45.723       21.604        0.223      346.288       24.426      862.204
09/01/2013  10:09:00        8.648       23.450       51.698       17.216       22.902       13.571      296.399      524.489      184.159        0.215        0.050       24.994       11.228        0.202      346.352       24.538      862.189
09/01/2013  10:10:00       59.885       65.261       63.834       60.312       35.683       27.456     3637.479     1273.247      753.815        0.879        0.283       88.573       25.247        0.081      346.132       24.160      862.184
09/01/2013  10:11:00       48.404       43.181       22.131       21.177       27.022       20.171      448.451      730.169      406.850        0.314        0.079       64.866       15.260        0.055      345.870       23.710      862.177
09/01/2013  10:12:00       25.872      -27.828        7.835       32.798       37.696       33.185     1075.708     1420.967     1101.259        0.255        0.180       37.997       18.772        0.244      346.379       24.585      862.153
09/01/2013  10:13:00       70.788      -71.027        7.032       59.154       72.890       46.610     3499.242     5313.014     2172.508        1.054        0.549      100.278       41.967        0.175      346.263       24.386      862.121
09/01/2013  10:14:00       53.361      -32.067       23.799       59.037       67.026       31.684     3485.411     4492.434     1003.862        0.671        0.449       62.256       43.217        0.482      346.500       24.792      862.098
09/01/2013  10:15:00        0.789       16.222       58.478       30.454       52.951       41.280      927.445     2803.826     1704.002        0.456        0.272       16.241       38.663        5.667      346.725       25.180      862.081
09/01/2013  10:16:00       11.195       34.710       79.904       31.568       47.193       23.669      996.525     2227.168      560.231        0.575        0.189       36.470       25.357        0.483      346.693       25.125      862.063
09/01/2013  10:17:00       64.271        6.227       44.013       65.498       49.543       50.209     4289.962     2454.489     2520.901        0.768        0.463       64.572       51.699        0.641      346.312       24.469      862.066
09/01/2013  10:18:00       30.102       42.796       62.865       39.911       44.849       40.345     1592.855     2011.429     1627.751        0.596        0.262       52.322       38.947        0.554      346.358       24.549      862.067
09/01/2013  10:19:00       26.096        4.770       51.159       38.806       72.130       45.739     1505.894     5202.678     2092.091        0.606        0.440       26.528       49.675        3.506      346.567       24.909      862.058
09/01/2013  10:20:00       48.479      -54.157        2.007       38.370       46.269       33.325     1472.241     2140.840     1110.576        0.500        0.236       72.686       32.302        0.197      346.530       24.845      862.053
09/01/2013  10:21:00       52.023      -21.693       26.933       52.077       66.819       37.356     2712.043     4464.724     1395.436        0.624        0.429       56.365       45.041        0.639      346.519       24.824      862.055
09/01/2013  10:22:00      -11.521      -35.967       29.828       32.898       45.332       24.227     1082.252     2054.979      586.940        0.302        0.186       37.767       22.453        0.353      346.677       25.097      862.052
09/01/2013  10:23:00       31.827      -50.746       14.226       44.442       65.804       43.896     1975.135     4330.188     1926.837        0.601        0.412       59.901       35.287        0.347      346.506       24.802      862.055
09/01/2013  10:24:00        6.663        8.505       49.273       26.007       41.517       30.325      676.340     1723.651      919.620        0.293        0.166       10.805       26.408        5.974      346.556       24.890      862.063
09/01/2013  10:25:00       36.359       49.390       56.155       35.232       25.774       28.026     1241.293      664.281      785.475        0.480        0.135       61.330       17.350        0.080      346.377       24.581      862.060
09/01/2013  10:26:00       14.702       25.179        5.079       15.474       17.138       14.274      239.450      293.697      203.754        0.081        0.037       29.157       10.977        0.142      346.356       24.546      862.060
09/01/2013  10:27:00       17.743        5.651       16.885       18.387       22.602       18.258      338.075      510.849      333.340        0.091        0.059       18.621       13.870        0.555      346.672       25.089      862.062
09/01/2013  10:28:00       46.146       51.621       25.908       22.214       25.666       27.007      493.463      658.719      729.373        0.367        0.094       69.240       17.232        0.062      346.165       24.217      862.064
09/01/2013  10:29:00       38.319       -8.590        5.608       17.628       20.634       20.976      310.746      425.756      439.988        0.137        0.059       39.270        9.005        0.053      346.241       24.346      862.069
09/01/2013  10:30:00       61.124       26.896       28.936       28.291       33.992       30.281      800.397     1155.463      916.912        0.408        0.144       66.780       26.156        0.153      346.232       24.331      862.058
09/01/2013  10:31:00       39.552      -23.312       14.642       35.889       31.428       30.346     1287.987      987.689      920.896        0.276        0.160       45.911       24.558        0.286      346.402       24.623      862.049
09/01/2013  10:32:00       43.526      -63.822        2.507       58.406       89.388       53.492     3411.258     7990.138     2861.406        1.012        0.713       77.251       66.799        0.748      346.507       24.804      862.028
09/01/2013  10:33:00       93.421      -76.313        7.435       58.320       83.930       48.545     3401.186     7044.224     2356.594        1.370        0.640      120.628       49.713        0.170      346.488       24.770      862.019
09/01/2013  10:34:00       31.836       45.849       79.056       39.477       57.502       35.698     1558.426     3306.508     1274.324        0.775        0.307       55.818       33.718        0.365      346.587       24.940      861.999
09/01/2013  10:35:00       28.450       74.362       75.125       49.381       46.353       39.567     2438.445     2148.568     1565.574        0.907        0.308       79.619       36.255        0.207      346.496       24.786      861.986
09/01/2013  10:36:00       38.814       61.778       75.960       56.179       48.358       36.904     3156.030     2338.536     1361.888        0.897        0.343       72.959       30.015        0.169      346.513       24.815      861.967
09/01/2013  10:37:00       21.085      -88.424       12.292       34.847       47.853       36.795     1214.300     2289.907     1353.839        0.664        0.243       90.903       29.826        0.108      346.484       24.765      861.967
09/01/2013  10:38:00       73.494       35.565       44.989       56.063       61.546       43.738     3143.113     3787.921     1913.039        0.877        0.442       81.647       38.798        0.226      346.558       24.893      861.957
09/01/2013  10:39:00       67.671       46.600       67.202       80.306       65.039       55.984     6449.042     4230.061     3134.226        1.254        0.691       82.164       50.884        0.384      346.469       24.739      861.957
09/01/2013  10:40:00       16.797       27.592       70.586       52.305       85.262       50.642     2735.799     7269.540     2564.616        0.930        0.628       32.303       56.512        3.061      346.637       25.028      861.955
09/01/2013  10:41:00      -12.398       -3.373       17.387       37.939       45.758       27.882     1439.341     2093.779      777.397        0.239        0.216       12.848       22.919        3.182      346.956       25.577      861.960
09/01/2013  10:42:00        5.036      -34.115       10.364       31.742       33.052       29.071     1007.545     1092.444      845.095        0.212        0.147       34.484       20.398        0.350      347.040       25.723      861.947
09/01/2013  10:43:00        1.520       -9.688       27.381       15.016       29.654       25.451      225.468      879.375      647.734        0.130        0.088        9.806       21.852        4.966      347.408       26.356      861.942
09/01/2013  10:44:00        9.827        3.815       43.338       21.566       36.017       18.825      465.079     1297.229      354.380        0.205        0.106       10.541       10.401        0.974      347.025       25.695      861.917
09/01/2013  10:45:00       43.515       39.036       46.031       51.060       56.057       30.645     2607.149     3142.335      939.123        0.611        0.334       58.458       32.056        0.301      346.618       24.997      861.892
09/01/2013  10:46:00       66.679       77.436       55.491       49.198       34.274       30.623     2420.481     1174.698      937.795        0.903        0.227      102.188       21.376        0.044      346.599       24.963      861.873
09/01/2013  10:47:00       69.529       74.717       64.777       64.244       48.369       37.869     4127.336     2339.595     1434.086        1.126        0.395      102.063       29.937        0.086      346.703       25.141      861.841
09/01/2013  10:48:00       40.384       59.853       66.612       58.526       39.646       43.719     3425.288     1571.802     1911.317        0.828        0.345       72.202       34.076        0.223      346.694       25.126      861.828
09/01/2013  10:49:00       30.932       58.899       83.903       50.753       45.266       40.435     2575.907     2049.001     1635.027        0.886        0.313       66.527       37.570        0.319      346.822       25.346      861.812
09/01/2013  10:50:00       16.362       70.352       85.396       45.384       45.100       36.285     2059.706     2034.045     1316.626        0.896        0.271       72.229       31.487        0.190      346.905       25.488      861.813
09/01/2013  10:51:00        9.425       78.096       93.982       43.703       49.216       29.304     1909.916     2422.235      858.744        1.010        0.260       78.663       29.943        0.145      346.842       25.381      861.816
09/01/2013  10:52:00       50.127       12.751       14.478       41.945       60.548       37.690     1759.361     3666.061     1420.511        0.486        0.342       51.723       28.713        0.308      346.727       25.184      861.820
09/01/2013  10:53:00       -0.569      -51.261        7.918       35.237       35.556       30.623     1241.678     1264.196      937.774        0.307        0.172       51.265       17.805        0.121      347.051       25.741      861.826
09/01/2013  10:54:00       28.916      -61.718       25.673       28.770       48.465       35.924      827.698     2348.855     1290.507        0.488        0.223       68.156       31.650        0.216      347.181       25.963      861.823
09/01/2013  10:55:00        2.952       -4.453       21.245       14.035       23.669       20.667      196.994      560.244      427.115        0.083        0.059        5.342       15.376        8.284      347.355       26.264      861.831
09/01/2013  10:56:00       10.849        5.646       44.719       17.733       15.979       11.805      314.456      255.336      139.359        0.143        0.035       12.230        7.833        0.410      347.354       26.262      861.833
09/01/2013  10:57:00       79.275      -85.968       -4.767       63.993       81.162       46.104     4095.154     6587.268     2125.571        1.325        0.640      116.940       60.812        0.270      346.899       25.479      861.832
09/01/2013  10:58:00       88.495     -157.850      -12.063       51.878       62.466       38.356     2691.289     3902.036     1471.200        2.048        0.403      180.964       42.817        0.056      346.696       25.126      861.833
09/01/2013  10:59:00       63.559      -96.147       10.420       43.109       69.282       25.901     1858.415     4799.959      670.888        1.036        0.366      115.256       27.245        0.056      346.706       25.146      861.846
09/01/2013  11:00:00       19.477       44.286       60.765       31.751       35.236       22.934     1008.139     1241.603      525.951        0.440        0.139       48.379       23.316        0.232      347.055       25.747      861.857
09/01/2013  11:01:00       34.508       33.811       49.809       39.115       22.452       22.840     1529.981      504.100      521.643        0.368        0.128       48.311       10.781        0.050      346.815       25.334      861.855
09/01/2013  11:02:00       11.525       -6.863       15.952       41.536       21.510       15.737     1725.257      462.698      247.646        0.143        0.122       13.413       10.609        0.626      347.152       25.916      861.861
09/01/2013  11:03:00        1.861        1.313       24.714       14.334       29.181       16.657      205.463      851.552      277.452        0.097        0.067        2.278       16.487       52.396      347.304       26.177      861.859
09/01/2013  11:04:00       -6.359      -89.629       -1.044       42.426       73.634       34.227     1799.933     5422.029     1171.457        0.823        0.420       89.854       41.266        0.211      347.007       25.664      861.862
09/01/2013  11:05:00       84.887     -131.724      -16.861       51.668       43.102       30.429     2669.627     1857.765      925.944        1.515        0.273      156.707       22.177        0.020      346.910       25.497      861.860
09/01/2013  11:06:00       64.656      -90.718      -24.777       63.197       47.586       30.699     3993.878     2264.456      942.421        1.011        0.360      111.401       25.388        0.052      346.990       25.635      861.871
09/01/2013  11:07:00        4.328      -30.209       33.176       40.997       40.794       35.509     1680.767     1664.113     1260.866        0.332        0.230       30.517       28.460        0.870      347.313       26.191      861.860
09/01/2013  11:08:00      -21.600      -20.047       17.976       29.813       31.243       22.250      888.842      976.150      495.061        0.178        0.118       29.469       25.185        0.730      347.316       26.197      861.857
09/01/2013  11:09:00       -5.520       -1.544       59.411       28.670       71.541       50.346      821.949     5118.074     2534.725        0.602        0.424        5.732       56.677       97.774      347.192       25.985      861.844
09/01/2013  11:10:00       46.022       23.184       19.179       29.693       30.130       22.928      881.687      907.809      525.709        0.267        0.116       51.532       15.732        0.093      346.787       25.285      861.817
09/01/2013  11:11:00       33.520       22.717       43.937       38.078       35.645       33.062     1449.943     1270.551     1093.091        0.369        0.191       40.493       12.443        0.094      346.918       25.511      861.808
09/01/2013  11:12:00       73.873      -16.085       50.753       75.256       56.849       41.692     5663.438     3231.838     1738.254        0.946        0.532       75.604       43.931        0.338      347.149       25.909      861.783
09/01/2013  11:13:00      112.554       35.049       30.344       64.123       45.714       42.787     4111.728     2089.789     1830.714        1.142        0.402      117.885       32.907        0.078      346.915       25.506      861.775
09/01/2013  11:14:00       68.344       22.136       52.521       66.124       45.553       46.745     4372.384     2075.044     2185.099        0.827        0.432       71.840       42.274        0.346      346.869       25.428      861.764
09/01/2013  11:15:00       47.245       24.126       33.621       36.271       35.963       28.970     1315.592     1293.302      839.238        0.370        0.172       53.049       25.384        0.229      346.940       25.549      861.768
09/01/2013  11:16:00       42.277      -25.653       13.656       26.490       45.003       25.491      701.724     2025.286      649.790        0.300        0.169       49.451       28.684        0.336      347.089       25.805      861.783
09/01/2013  11:17:00       27.663      -15.101       13.675       19.426       26.529       20.300      377.372      703.789      412.081        0.134        0.075       31.517       11.182        0.126      347.079       25.788      861.787
09/01/2013  11:18:00       40.424       24.086       30.126       43.607       29.723       26.923     1901.547      883.471      724.870        0.332        0.175       47.055       25.445        0.292      347.097       25.819      861.775
09/01/2013  11:19:00        2.362       -7.104       23.198       11.015       25.356       18.625      121.335      642.949      346.896        0.085        0.056        7.487       14.591        3.798      347.180       25.962      861.774
09/01/2013  11:20:00      -18.590       -9.648        6.633       23.601       35.642       20.794      556.990     1270.352      432.380        0.137        0.113       20.945       18.556        0.785      347.103       25.829      861.777
09/01/2013  11:21:00        9.100       15.095       27.668       26.966       41.105       29.976      727.143     1689.630      898.559        0.220        0.166       17.626       27.989        2.522      347.292       26.157      861.769
09/01/2013  11:22:00       45.871      -77.876       -0.161       52.043       46.998       30.667     2708.468     2208.783      940.494        0.701        0.293       90.381       36.992        0.168      347.049       25.737      861.760
09/01/2013  11:23:00       34.288      -30.818       20.532       28.467       46.407       30.078      810.354     2153.620      904.713        0.321        0.193       46.102       29.265        0.403      347.327       26.217      861.749
09/01/2013  11:24:00       37.098        7.240       38.491       54.354       38.781       28.745     2954.411     1503.962      826.297        0.410        0.264       37.798       31.148        0.679      347.274       26.127      861.742
09/01/2013  11:25:00      124.332       -5.016       33.315       55.034       98.327       45.193     3028.743     9668.120     2042.364        1.566        0.737      124.433       52.226        0.176      346.925       25.524      861.727
09/01/2013  11:26:00       68.967       33.883       25.807       44.268       41.315       22.825     1959.655     1706.889      520.971        0.538        0.209       76.840       22.706        0.087      346.988       25.632      861.720
09/01/2013  11:27:00        4.960      -60.566       15.597       24.789       53.274       26.222      614.475     2838.139      687.584        0.404        0.207       60.769       24.476        0.162      347.106       25.835      861.726
09/01/2013  11:28:00       18.040      -86.678       19.072       36.975       78.250       35.627     1367.175     6122.996     1269.315        0.848        0.438       88.535       36.205        0.167      347.288       26.148      861.722
09/01/2013  11:29:00        1.051      -61.998        2.397       45.418       46.616       38.667     2062.780     2173.075     1495.115        0.479        0.287       62.007       27.732        0.200      347.346       26.249      861.706
09/01/2013  11:30:00        9.780     -121.036        0.632       63.102       44.573       41.668     3981.922     1986.731     1736.181        1.122        0.385      121.430       31.539        0.067      347.233       26.054      861.703
09/01/2013  11:31:00      -47.836      -76.428        3.970       59.140       53.909       41.225     3497.530     2906.147     1699.509        0.812        0.405       90.164       42.528        0.222      347.174       25.951      861.701
09/01/2013  11:32:00       14.577      -35.293       27.076       29.717       34.380       20.550      883.079     1181.952      422.309        0.234        0.124       38.185       17.711        0.215      347.350       26.257      861.687
09/01/2013  11:33:00       18.129      -11.501       15.993       24.343       32.697       22.137      592.560     1069.115      490.059        0.143        0.108       21.470       24.170        1.267      347.021       25.690      861.662
09/01/2013  11:34:00       18.406      -55.850        8.461       28.253       39.541       21.490      798.251     1563.488      461.803        0.318        0.141       58.804        9.873        0.028      347.194       25.986      861.648
09/01/2013  11:35:00       70.334     -146.322        1.788       47.898       44.770       30.315     2294.239     2004.340      918.979        1.579        0.261      162.348       24.116        0.022      346.995       25.642      861.632
09/01/2013  11:36:00       28.206      -63.803       11.067       41.066       67.443       44.109     1686.425     4548.516     1945.634        0.658        0.409       69.759       43.935        0.397      347.165       25.936      861.608
09/01/2013  11:37:00       -9.348        7.401       47.817       21.724       43.334       35.161      471.939     1877.811     1236.276        0.301        0.179       11.923       32.611        7.481      347.481       26.482      861.594
09/01/2013  11:38:00       89.585     -106.079      -22.937       59.976       63.432       35.775     3597.078     4023.629     1279.821        1.435        0.445      138.846       33.688        0.059      347.116       25.854      861.583
09/01/2013  11:39:00       30.632      -15.711       42.761       54.421       89.962       59.103     2961.613     8093.165     3493.156        0.878        0.727       34.426       67.765        3.875      347.337       26.233      861.584
09/01/2013  11:40:00       78.858     -141.387      -31.341       59.314       67.047       38.373     3518.138     4495.280     1472.510        1.834        0.474      161.892       31.050        0.037      347.011       25.671      861.573
09/01/2013  11:41:00       72.928      -64.268        9.944       70.818       67.871       52.596     5015.227     4606.430     2766.328        1.097        0.619       97.205       49.013        0.254      347.240       26.065      861.567
09/01/2013  11:42:00       41.353      -34.614       34.948       61.056       44.212       28.314     3727.800     1954.724      801.700        0.531        0.324       53.928       25.767        0.228      347.409       26.357      861.562
09/01/2013  11:43:00       34.442       29.327       63.174       53.390       72.131       43.979     2850.484     5202.949     1934.112        0.801        0.499       45.236       49.150        1.181      347.478       26.475      861.553
09/01/2013  11:44:00       92.019      -76.539       14.543       44.288       70.398       41.921     1961.431     4955.867     1757.380        1.160        0.434      119.690       42.551        0.126      347.333       26.227      861.548
09/01/2013  11:45:00       76.181      -55.394       26.468       90.292      123.598       64.695     8152.571    15276.477     4185.490        1.859        1.381       94.192       86.893        0.851      347.478       26.474      861.519
09/01/2013  11:46:00       37.817       -8.047       34.611       61.698       69.620       47.930     3806.659     4846.917     2297.330        0.682        0.548       38.664       51.359        1.765      347.493       26.501      861.514
09/01/2013  11:47:00        4.306       -8.441       28.816       28.517       36.465       32.178      813.209     1329.686     1035.434        0.205        0.159        9.476        5.626        0.352      347.617       26.715      861.497
09/01/2013  11:48:00       52.237      -81.153        2.321       42.292       38.329       51.741     1788.641     1469.122     2677.123        0.763        0.297       96.512       34.782        0.130      347.377       26.300      861.481
09/01/2013  11:49:00       77.956     -131.229       -6.654       53.106       53.904       32.380     2820.262     2905.596     1048.457        1.506        0.339      152.638       27.903        0.033      347.207       26.008      861.469
09/01/2013  11:50:00       30.407       37.999       72.404       48.930       71.981       43.716     2394.171     5181.219     1911.088        0.855        0.474       48.667       46.968        0.931      347.483       26.485      861.452
09/01/2013  11:51:00       78.808       10.938       72.555       78.054      153.732       80.306     6092.474    23633.655     6449.013        2.388        1.809       79.564      111.825        1.975      347.264       26.104      861.442
09/01/2013  11:52:00       53.928      -13.071       46.105       66.429       85.913       68.498     4412.791     7381.016     4692.036        1.084        0.824       55.489       74.913        1.823      347.486       26.491      861.441
09/01/2013  11:53:00       27.368       39.727       83.904       43.532       77.324       38.464     1894.995     5978.931     1479.460        0.936        0.468       48.242       47.532        0.971      347.486       26.491      861.442
09/01/2013  11:54:00       80.580      -25.987       47.069       69.188       66.824       55.673     4787.030     4465.385     3099.457        1.087        0.618       84.667       55.950        0.437      347.539       26.580      861.443
09/01/2013  11:55:00       33.862       12.315       53.892       49.724       77.631       55.569     2472.446     6026.571     3087.873        0.789        0.579       36.032       60.057        2.778      347.550       26.601      861.451
09/01/2013  11:56:00       34.256       29.739       48.178       40.406       27.643       20.764     1632.627      764.156      431.146        0.360        0.141       45.364       16.442        0.131      347.622       26.725      861.447
09/01/2013  11:57:00       44.458       53.246       13.816       32.024       25.509       27.162     1025.543      650.704      737.752        0.371        0.121       69.366       11.494        0.027      347.291       26.154      861.426
09/01/2013  11:58:00        9.451       12.792       13.306       16.302       26.963       17.097      265.763      726.984      292.311        0.086        0.064       15.905       14.056        0.781      348.056       27.475      861.414
09/01/2013  11:59:00      -17.843       -5.095       -1.984       37.123       24.093       18.979     1378.084      580.466      360.191        0.133        0.116       18.556       18.775        1.024      347.639       26.753      861.411
09/01/2013  12:00:00      -73.407      -53.506        2.435       44.514       37.017       30.609     1981.514     1370.275      936.938        0.627        0.214       90.838       30.060        0.110      347.579       26.650      861.401
09/01/2013  12:01:00      -40.707      -28.289       12.416       43.246       41.823       28.021     1870.235     1749.163      785.176        0.351        0.220       49.571       28.735        0.336      347.703       26.865      861.388
09/01/2013  12:02:00      -29.143       -0.585       15.005       26.453       19.689       19.595      699.771      387.639      383.955        0.127        0.074       29.149       17.149        0.346      347.871       27.155      861.372
09/01/2013  12:03:00      -30.811       10.731       14.420       28.449       18.682       25.138      809.327      349.014      631.919        0.153        0.090       32.627       15.845        0.236      348.057       27.475      861.353
09/01/2013  12:04:00       -4.821        5.674       28.450       11.663       19.558       15.424      136.014      382.528      237.907        0.081        0.038        7.446        8.691        1.363      348.377       28.028      861.346
09/01/2013  12:05:00      -10.212      -82.133       -1.596       28.303       33.065       23.614      801.052     1093.287      557.628        0.465        0.123       82.765       14.861        0.032      347.523       26.554      861.337
09/01/2013  12:06:00       -8.329      -75.082      -11.994       41.850       55.075       29.626     1751.406     3033.244      877.676        0.576        0.283       75.543       26.456        0.123      347.802       27.036      861.321
09/01/2013  12:07:00       15.335      -59.121       20.365       32.080       61.783       37.691     1029.126     3817.163     1420.647        0.520        0.313       61.078       35.366        0.335      348.007       27.389      861.310
09/01/2013  12:08:00       68.695     -135.996      -15.686       57.490       88.672       57.125     3305.147     7862.713     3263.217        1.894        0.722      152.361       50.309        0.109      347.588       26.665      861.304
09/01/2013  12:09:00      -24.080     -111.623       32.374       58.546       86.566       51.231     3427.688     7493.635     2624.661        1.381        0.677      114.191       30.737        0.072      347.743       26.932      861.295
09/01/2013  12:10:00      -63.055     -136.330      -14.164       29.103       38.275       29.571      846.978     1465.005      874.430        1.297        0.159      150.206       17.547        0.014      347.359       26.270      861.304
09/01/2013  12:11:00      -69.570      -34.911        0.538       46.057       47.760       31.147     2121.273     2281.013      970.120        0.571        0.269       77.838       30.891        0.157      347.663       26.795      861.296
09/01/2013  12:12:00      -97.448        3.010       -6.347       23.235       26.405       20.299      539.863      697.238      412.069        0.560        0.082       97.494       13.650        0.020      347.395       26.332      861.284
09/01/2013  12:13:00      -41.196       17.503        3.088       18.294       15.557       14.724      334.656      242.033      216.796        0.140        0.040       44.760       10.179        0.052      347.669       26.806      861.278
09/01/2013  12:14:00      -19.692      -14.448       10.467       23.480       47.100       18.731      551.307     2218.413      350.832        0.191        0.156       24.424       21.044        0.742      347.793       27.022      861.284
09/01/2013  12:15:00      -55.745      -39.163        0.658       39.295       24.905       17.515     1544.121      620.269      306.770        0.356        0.124       68.127       20.384        0.090      347.611       26.706      861.275
09/01/2013  12:16:00      -33.854       -7.265        6.912       65.033       30.889       25.057     4229.303      954.141      627.875        0.353        0.291       34.625       18.372        0.282      347.543       26.589      861.272
09/01/2013  12:17:00       24.553      -54.632       11.238       34.387       65.374       29.324     1182.486     4273.818      859.891        0.501        0.316       59.896       32.564        0.296      347.713       26.883      861.277
09/01/2013  12:18:00       -7.938      -16.370       13.698       34.034       35.918       28.320     1158.343     1290.105      802.030        0.188        0.163       18.193       21.328        1.374      347.982       27.347      861.266
09/01/2013  12:19:00      -48.271       -2.285        7.579       40.454       50.548       21.950     1636.519     2555.145      481.806        0.353        0.234       48.325       24.703        0.261      347.768       26.976      861.257
09/01/2013  12:20:00      -88.114       33.047       -0.228       37.810       32.022       23.665     1429.622     1025.406      560.033        0.594        0.151       94.108       19.472        0.043      347.743       26.936      861.226
09/01/2013  12:21:00     -106.714        9.449       -8.415       26.713       18.814       13.631      713.587      353.967      185.806        0.640        0.063      107.131       11.178        0.011      347.654       26.779      861.225
09/01/2013  12:22:00      -91.969        9.827       -3.620       23.829       25.213       19.032      567.813      635.700      362.228        0.507        0.078       92.493       15.473        0.028      347.620       26.720      861.226
09/01/2013  12:23:00      -36.462       24.363        8.462       37.884       26.812       23.224     1435.227      718.894      539.335        0.234        0.135       43.852       24.001        0.300      348.280       27.862      861.230
09/01/2013  12:24:00      -31.108      -23.494       18.580       47.716       38.403       24.789     2276.788     1474.817      614.509        0.311        0.218       38.983       33.078        0.720      348.367       28.012      861.231
09/01/2013  12:25:00     -111.057      -38.324      -15.923       25.265       29.307       18.655      638.337      858.879      348.020        0.795        0.092      117.483       10.100        0.007      347.615       26.713      861.231
09/01/2013  12:26:00      -65.904      -42.159        0.683       29.053       21.269       13.172      844.075      452.359      173.492        0.380        0.073       78.235        7.210        0.008      347.818       27.063      861.214
09/01/2013  12:27:00      -11.090       -4.866        6.716       26.711       24.829       21.268      713.492      616.467      452.330        0.099        0.089       12.111       22.922        3.582      348.028       27.426      861.196
09/01/2013  12:28:00       31.822       41.502       18.348       39.378       34.293       30.095     1550.604     1175.990      905.702        0.335        0.182       52.298       23.570        0.203      348.028       27.424      861.171
09/01/2013  12:29:00       23.837        1.379       -5.459       29.570       34.066       23.234      874.382     1160.471      539.815        0.159        0.129       23.877       17.858        0.559      347.977       27.338      861.160
09/01/2013  12:30:00        7.214       63.758        1.309       27.709       41.526       35.722      767.805     1724.430     1276.058        0.394        0.188       64.165       26.851        0.175      348.101       27.553      861.136
09/01/2013  12:31:00       12.020        0.223       16.545       21.789       31.343       32.113      474.743      982.389     1031.224        0.145        0.124       12.022       23.683        3.881      348.267       27.838      861.129
09/01/2013  12:32:00        6.819        3.209        4.608       18.754       23.151       19.602      351.730      535.982      384.246        0.067        0.064        7.536       17.113        5.156      348.016       27.405      861.123
09/01/2013  12:33:00      -36.421      -49.696       23.717       39.725       88.683       40.451     1578.063     7864.667     1636.322        0.772        0.554       61.613       55.036        0.798      347.958       27.305      861.117
09/01/2013  12:34:00      -34.690       -1.944       19.604       66.207       27.675       23.442     4383.327      765.922      549.538        0.364        0.285       34.745       20.615        0.352      347.873       27.158      861.095
09/01/2013  12:35:00       43.966      -33.476       15.521       26.595       52.690       27.367      707.292     2776.216      748.955        0.376        0.212       55.260       29.979        0.294      347.636       26.750      861.081
09/01/2013  12:36:00        2.914      -51.460       20.124       25.183       52.542       36.973      634.181     2760.681     1367.012        0.391        0.238       51.542       24.798        0.231      348.072       27.501      861.062
09/01/2013  12:37:00       41.808      -24.153       11.928       35.280       40.812       38.346     1244.649     1665.621     1470.393        0.343        0.219       48.283       28.799        0.356      347.832       27.087      861.049
09/01/2013  12:38:00       27.900      -25.077       -2.457       25.638       21.720       24.102      657.327      471.755      580.889        0.156        0.085       37.514        4.856        0.017      347.213       26.019      861.045
09/01/2013  12:39:00      -24.964      -34.941      -12.042       18.772       29.558       11.685      352.401      873.685      136.529        0.168        0.068       42.943       10.158        0.056      347.380       26.307      861.024
09/01/2013  12:40:00      -11.211       -6.311       12.480       17.708       15.961       24.027      313.583      254.761      577.294        0.073        0.057       12.865       19.614        2.325      348.136       27.613      861.000
09/01/2013  12:41:00       -5.446      -14.548       -0.037       24.647       15.262       15.694      607.499      232.939      246.292        0.066        0.054       15.534        6.342        0.167      347.680       26.822      860.965
09/01/2013  12:42:00       11.753       -2.800        5.471       27.703       19.559       18.233      767.483      382.574      332.444        0.083        0.074       12.082       15.173        1.577      347.623       26.727      860.949
09/01/2013  12:43:00      -37.590      -42.732       -0.996       32.493       14.801       13.562     1055.825      219.062      183.928        0.235        0.073       56.912        8.970        0.025      347.661       26.790      860.944
09/01/2013  12:44:00      -61.453      -28.846       -8.788       30.612       28.993       21.045      937.088      840.572      442.895        0.345        0.111       67.886       18.810        0.077      347.807       27.043      860.926
09/01/2013  12:45:00      -62.573       35.220       -9.407       39.261       29.257       28.684     1541.447      855.963      822.782        0.423        0.161       71.804       13.041        0.033      347.936       27.268      860.892
09/01/2013  12:46:00      -44.739       68.240       10.458       27.137       46.189       28.001      736.390     2133.413      784.081        0.521        0.183       81.598       24.305        0.089      348.047       27.459      860.851
09/01/2013  12:47:00       19.242      102.085        7.105       39.042       66.626       43.928     1524.309     4439.036     1929.665        0.937        0.395      103.883       41.757        0.162      348.255       27.818      860.802
09/01/2013  12:48:00        2.173      117.096      -17.341       37.713       37.275       24.872     1422.252     1389.463      618.609        0.872        0.172      117.116       17.863        0.023      347.950       27.289      860.783
09/01/2013  12:49:00       -0.611       51.832       13.977       29.814       49.154       33.022      888.889     2416.155     1090.436        0.364        0.220       51.836       22.800        0.193      348.411       28.088      860.754
09/01/2013  12:50:00        0.104       50.078       21.777       38.703       39.957       28.388     1497.888     1596.540      805.869        0.344        0.195       50.078       28.783        0.330      348.426       28.113      860.723
09/01/2013  12:51:00      -17.313       45.705        6.246       22.997       32.266       22.565      528.860     1041.076      509.191        0.225        0.104       48.874       19.042        0.152      348.512       28.263      860.727
09/01/2013  12:52:00      -19.851       69.323        0.077       35.788       41.687       27.061     1280.771     1737.779      732.284        0.447        0.188       72.110       21.328        0.087      348.281       27.863      860.727
09/01/2013  12:53:00       33.172       13.687       18.956       36.271       27.917       23.047     1315.593      779.383      531.175        0.214        0.131       35.885       23.085        0.414      348.518       28.273      860.722
09/01/2013  12:54:00       33.325       15.826       11.080       30.985       23.713       23.593      960.098      562.296      556.626        0.178        0.104       36.892       13.565        0.135      348.195       27.715      860.718
09/01/2013  12:55:00       -9.172       25.814       29.663       13.913       17.268       17.065      193.577      298.171      291.214        0.121        0.039       27.395        9.736        0.126      348.149       27.635      860.720
09/01/2013  12:56:00        2.301       21.503       19.283       18.296       21.664       30.187      334.728      469.341      911.230        0.128        0.086       21.626        3.727        0.030      348.072       27.501      860.715
09/01/2013  12:57:00        8.613       17.576       22.840       27.672       18.906       18.035      765.725      357.429      325.265        0.118        0.072       19.573       12.880        0.433      347.904       27.212      860.696
09/01/2013  12:58:00      -11.145       27.970       43.843       11.196       17.999       13.983      125.360      323.959      195.534        0.174        0.032       30.109        8.820        0.086      348.405       28.078      860.692
09/01/2013  12:59:00      -31.150       12.807        2.563       45.586       25.629       22.704     2078.068      656.821      515.492        0.219        0.163       33.680       12.500        0.138      348.137       27.613      860.688
09/01/2013  13:00:00       36.838      -24.229       10.130       74.686       62.737       40.487     5578.042     3935.935     1639.215        0.660        0.558       44.091       25.823        0.343      348.095       27.541      860.675
09/01/2013  13:01:00       30.678      -11.953       30.478       51.063       52.044       39.915     2607.407     2708.572     1593.238        0.446        0.345       32.924       35.547        1.166      348.332       27.951      860.667
09/01/2013  13:02:00       24.331      -42.608       25.307       43.523       80.429       48.418     1894.274     6468.904     2344.258        0.688        0.535       49.066       57.608        1.379      348.338       27.961      860.671
09/01/2013  13:03:00       57.857      -77.676       13.389       56.226      101.756       60.782     3161.419    10354.346     3694.477        1.338        0.861       96.855       66.040        0.465      348.153       27.641      860.668
09/01/2013  13:04:00       47.497      -58.431        3.408       56.644       56.918       47.871     3208.581     3239.701     2291.640        0.721        0.437       75.300       43.318        0.331      348.200       27.721      860.650
09/01/2013  13:05:00      -83.839      -78.908       -4.859       54.272       35.995       26.549     2945.436     1295.644      704.868        0.911        0.247      115.133       24.272        0.044      348.199       27.720      860.645
09/01/2013  13:06:00      -28.094      -19.033       27.975       55.459       46.547       32.826     3075.714     2166.612     1077.515        0.413        0.316       33.934       35.181        1.075      348.593       28.402      860.621
09/01/2013  13:07:00       10.946       -6.579       26.670       46.343       53.237       29.197     2147.683     2834.202      852.475        0.335        0.292       12.771       30.285        5.624      348.329       27.946      860.610
09/01/2013  13:08:00        1.964      -83.410        2.310       50.402       93.812       49.153     2540.318     8800.724     2416.026        1.036        0.688       83.434       48.374        0.336      348.231       27.774      860.585
09/01/2013  13:09:00       23.261      -38.316       -7.171       32.751       49.932       24.998     1072.647     2493.228      624.886        0.312        0.210       44.824       23.681        0.279      348.029       27.427      860.594
09/01/2013  13:10:00       55.978      -17.785       13.838       36.777       34.319       23.638     1352.562     1177.771      558.765        0.336        0.154       58.735       21.208        0.130      347.885       27.178      860.563
09/01/2013  13:11:00       70.869       -2.498       33.204       30.047       29.429       31.023      902.802      866.080      962.420        0.443        0.137       70.913       23.379        0.109      347.575       26.643      860.548
09/01/2013  13:12:00       32.811       18.062       39.613       47.482       38.584       34.619     2254.539     1488.722     1198.459        0.396        0.247       37.454       32.406        0.749      347.659       26.787      860.522
09/01/2013  13:13:00       38.676       19.332       30.647       35.805       32.989       34.960     1282.000     1088.276     1222.205        0.320        0.180       43.239       28.673        0.440      348.088       27.529      860.505
09/01/2013  13:14:00       34.816       27.981       12.579       34.999       24.195       20.627     1224.948      585.415      425.479        0.219        0.112       44.666        7.555        0.029      348.142       27.623      860.486
09/01/2013  13:15:00       23.640       19.188       -0.131       30.693       21.909       15.406      942.074      480.015      237.336        0.129        0.083       30.447       11.511        0.143      348.656       28.512      860.477
09/01/2013  13:16:00       22.316       17.477       15.137       23.430       17.835       20.802      548.975      318.077      432.734        0.117        0.065       28.345       18.993        0.449      348.742       28.661      860.492
09/01/2013  13:17:00       17.895       17.063       -0.176       14.062       17.100       16.921      197.737      292.421      286.335        0.069        0.039       24.726        6.008        0.059      348.156       27.647      860.491
09/01/2013  13:18:00      -27.338       13.093        8.912       23.255       13.050       16.155      540.798      170.296      260.984        0.098        0.049       30.312        9.262        0.093      348.698       28.585      860.490
09/01/2013  13:19:00      -24.399       19.866       -1.033       31.545       18.610       21.665      995.109      346.340      469.380        0.140        0.091       31.464       14.875        0.224      348.705       28.595      860.470
09/01/2013  13:20:00        7.182       26.059       16.233       44.430       46.147       30.733     1974.019     2129.525      944.493        0.302        0.252       27.031       24.867        0.846      348.590       28.398      860.465
09/01/2013  13:21:00     -185.387       -5.484      -22.768       66.588       46.538       33.946     4433.924     2165.823     1152.328        2.133        0.388      185.468       26.472        0.020      348.472       28.191      860.450
09/01/2013  13:22:00     -173.817      -12.351      -14.190      105.012      103.484       48.287    11027.587    10708.941     2331.588        2.731        1.203      174.255       46.550        0.071      348.553       28.331      860.443
09/01/2013  13:23:00      -75.302       28.710       -7.677       32.988       32.031       24.143     1088.177     1025.960      582.873        0.462        0.135       80.590       17.498        0.047      348.635       28.474      860.447
09/01/2013  13:24:00      -38.027       30.479        7.563       38.096       24.649       35.135     1451.301      607.592     1234.452        0.286        0.165       48.734       28.625        0.345      348.853       28.854      860.439
09/01/2013  13:25:00     -124.771      -20.198      -11.151      111.326       98.287       36.284    12393.487     9660.267     1316.556        1.973        1.169      126.395       37.292        0.087      348.597       28.409      860.422
09/01/2013  13:26:00     -211.166     -133.795        9.355      157.938       85.469       53.080    24944.295     7304.884     2817.520        4.882        1.753      249.984       57.543        0.053      348.509       28.254      860.384
09/01/2013  13:27:00     -158.523      -11.431       -4.707       94.749       80.469       38.761     8977.329     6475.242     1502.392        2.112        0.848      158.935       42.342        0.071      348.601       28.413      860.373
09/01/2013  13:28:00     -120.463       36.996       -3.231      101.083       56.843       39.460    10217.834     3231.072     1557.108        1.545        0.750      126.016       51.254        0.165      348.544       28.317      860.363
09/01/2013  13:29:00      -16.148      164.215       -0.453       64.077       70.488       45.975     4105.868     4968.557     2113.691        1.921        0.559      165.007       40.926        0.062      348.639       28.480      860.322
09/01/2013  13:30:00      -74.149      151.403       -7.784       65.540       71.314       42.627     4295.479     5085.747     1817.068        1.984        0.560      168.585       48.138        0.082      348.775       28.716      860.301
09/01/2013  13:31:00     -123.909      101.283      -12.820       87.842       50.804       40.140     7716.200     2581.092     1611.191        1.884        0.595      160.036       42.774        0.071      348.884       28.904      860.267
09/01/2013  13:32:00      -41.953       27.200       16.680       51.119       69.996       36.564     2613.174     4899.464     1336.927        0.581        0.442       49.999       23.890        0.228      349.352       29.718      860.253
09/01/2013  13:33:00      -39.322      -67.144       23.295       86.953       81.095       42.108     7560.769     6576.414     1773.048        1.125        0.796       77.811       50.465        0.421      349.185       29.427      860.249
09/01/2013  13:34:00      -51.430     -116.446       34.278       90.779       94.304       46.340     8240.806     8893.200     2147.410        1.833        0.964      127.298       55.966        0.193      348.909       28.949      860.252
09/01/2013  13:35:00     -211.964       19.557        1.597      123.314       69.552       48.208    15206.348     4837.418     2324.036        3.384        1.118      212.864       61.026        0.082      348.743       28.659      860.246
09/01/2013  13:36:00     -118.871      -10.585       -2.507       73.619       85.408       45.572     5419.791     7294.593     2076.831        1.452        0.740      119.341       36.960        0.096      348.884       28.904      860.230
09/01/2013  13:37:00     -179.521     -163.635       10.752      107.863       90.017       50.409    11634.423     8102.983     2541.099        4.069        1.114      242.908       48.171        0.039      348.656       28.507      860.211
09/01/2013  13:38:00     -230.688      -75.911      -14.432       84.204       94.401       52.471     7090.374     8911.578     2753.203        3.897        0.938      242.857       42.132        0.030      348.637       28.475      860.171
09/01/2013  13:39:00     -170.206     -130.252       -7.593       99.889       80.711       52.121     9977.750     6514.310     2716.600        3.260        0.960      214.327       42.522        0.039      348.656       28.508      860.152
09/01/2013  13:40:00     -171.458     -161.297       -1.532      102.424      101.882       53.542    10490.696    10379.894     2866.707        3.957        1.187      235.403       54.083        0.053      348.611       28.432      860.123
09/01/2013  13:41:00     -192.748     -169.741       -3.594      120.908       70.458       59.177    14618.760     4964.265     3501.905        4.453        1.154      256.834       61.513        0.057      348.556       28.334      860.095
09/01/2013  13:42:00     -104.869      -43.366       -0.511      113.658      111.379       45.145    12918.038    12405.371     2038.064        2.011        1.368      113.482       45.634        0.162      348.706       28.598      860.066
09/01/2013  13:43:00     -213.790      -48.925        0.669      126.766       78.279       52.500    16069.515     6127.635     2756.238        3.652        1.248      219.316       59.873        0.075      348.854       28.853      860.041
09/01/2013  13:44:00     -250.184      -41.446      -16.736      100.147       96.371       47.009    10029.322     9287.286     2209.880        4.305        1.076      253.593       44.844        0.031      348.838       28.823      860.036
09/01/2013  13:45:00     -187.110       -0.076       -8.019      150.505      115.169       44.089    22651.785    13263.919     1943.802        3.646        1.893      187.110       45.529        0.059      348.753       28.676      860.036
09/01/2013  13:46:00      -30.478      -16.025       22.527       47.599       76.570       43.896     2265.654     5862.894     1926.863        0.587        0.503       34.434       31.237        0.823      349.013       29.129      860.023
09/01/2013  13:47:00     -144.034      -54.377       -5.268      106.555       76.745       35.206    11354.044     5889.855     1239.471        2.110        0.924      153.957       44.346        0.083      349.024       29.147      860.020
09/01/2013  13:48:00     -237.099      -94.771        3.826      132.674      107.423       60.696    17602.463    11539.642     3684.056        4.901        1.641      255.338       70.132        0.075      348.743       28.657      860.001
09/01/2013  13:49:00     -152.676      -75.412        2.739       90.633       69.415       37.748     8214.385     4818.420     1424.937        2.173        0.723      170.284       37.857        0.049      348.843       28.833      859.987
09/01/2013  13:50:00     -255.003      -29.400      -15.215      100.906       69.019       42.702    10181.940     4763.650     1823.499        4.144        0.838      256.692       41.481        0.026      348.757       28.682      859.995
09/01/2013  13:51:00      -53.056       19.089       -3.707       36.545       27.947       28.443     1335.570      781.012      809.032        0.306        0.146       56.386        9.483        0.028      348.722       28.627      859.990
09/01/2013  13:52:00      -83.954       20.892       -4.163       48.860       42.752       27.466     2387.341     1827.730      754.383        0.623        0.248       86.515       25.560        0.087      348.875       28.890      859.962
09/01/2013  13:53:00       -1.532        6.567       22.208       39.044       28.367       25.479     1524.448      804.697      649.186        0.176        0.149        6.743       13.678        4.114      349.246       29.534      859.944
09/01/2013  13:54:00       26.740       -4.676       22.238       36.090       23.794       25.387     1302.464      566.149      644.510        0.187        0.126       27.146       16.828        0.384      348.361       28.002      859.943
09/01/2013  13:55:00     -153.194      -39.804       -1.216       86.178       74.899       36.470     7426.729     5609.847     1330.069        1.971        0.718      158.281       34.256        0.047      348.887       28.910      859.949
09/01/2013  13:56:00      -39.358      -37.581        8.261       65.003       40.712       27.969     4225.373     1657.432      782.292        0.485        0.333       54.418       22.398        0.169      349.013       29.129      859.933
09/01/2013  13:57:00        6.507        8.933       42.986       36.032       43.219       28.868     1298.286     1867.877      833.333        0.298        0.200       11.052       23.666        4.585      348.786       28.735      859.913
09/01/2013  13:58:00      -66.959       10.335       -0.726       39.056       48.011       19.996     1525.404     2305.049      399.860        0.441        0.212       67.751       17.470        0.066      348.717       28.617      859.897
09/01/2013  13:59:00       12.380       29.435        7.368       38.163       24.316       21.581     1456.377      591.252      465.724        0.179        0.126       31.933        9.908        0.096      349.098       29.277      859.883
09/01/2013  14:00:00      -42.856       91.212        1.216       60.466       68.343       34.582     3656.129     4670.774     1195.907        0.984        0.476      100.778       44.376        0.194      348.985       29.082      859.862
09/01/2013  14:01:00     -123.267       69.532        2.882       70.127       50.402       35.143     4917.800     2540.324     1235.042        1.436        0.435      141.525       39.171        0.077      348.912       28.954      859.855
09/01/2013  14:02:00     -262.689      -26.439      -16.865       99.968       90.951       46.553     9993.560     8272.041     2167.186        4.521        1.022      264.016       51.437        0.038      348.902       28.933      859.827
09/01/2013  14:03:00     -141.673     -109.255        6.094       95.138       92.551       60.413     9051.231     8565.688     3649.727        2.665        1.063      178.908       59.924        0.112      348.803       28.763      859.836
09/01/2013  14:04:00     -215.957     -127.761       -3.886       59.936       60.701       39.324     3592.378     3684.613     1546.345        3.590        0.441      250.919       33.380        0.018      348.627       28.457      859.842
09/01/2013  14:05:00     -179.204      -85.555       -8.144       56.048       74.144       35.719     3141.328     5497.328     1275.813        2.471        0.496      198.579       32.952        0.028      348.624       28.452      859.835
09/01/2013  14:06:00     -180.366      -10.345      -12.744       62.653       39.744       27.254     3925.439     1579.584      742.798        1.952        0.312      180.662       29.460        0.027      348.623       28.453      859.833
09/01/2013  14:07:00      -54.917      -70.611        9.338       38.839       58.225       36.644     1508.480     3390.148     1342.817        0.716        0.312       89.453       29.601        0.110      348.797       28.755      859.820
09/01/2013  14:08:00      -34.915      -96.734        7.888       34.564       36.206       26.643     1194.694     1310.856      709.869        0.693        0.161      102.842       20.160        0.038      348.586       28.390      859.824
09/01/2013  14:09:00       17.245      -71.851      -12.650       18.222       20.260       18.030      332.042      410.471      325.079        0.334        0.053       73.891       10.449        0.020      348.610       28.431      859.818
09/01/2013  14:10:00       20.705      -17.724       22.918       18.135       24.327       18.697      328.869      591.812      349.590        0.127        0.064       27.255       16.934        0.386      348.800       28.760      859.812
09/01/2013  14:11:00      -31.723      -46.433        8.505       25.133       36.747       17.681      631.691     1350.357      312.632        0.276        0.115       56.235       20.498        0.133      348.766       28.701      859.813
09/01/2013  14:12:00      -47.635     -114.624        0.517       37.004       34.806       22.168     1369.278     1211.427      491.405        0.924        0.154      124.128       21.668        0.030      348.829       28.811      859.799
09/01/2013  14:13:00      -73.227      -67.542       16.631       57.238       61.818       28.421     3276.163     3821.481      807.732        0.905        0.395       99.620       34.111        0.117      348.947       29.015      859.789
09/01/2013  14:14:00       13.932      -66.321       16.135       30.238       42.783       31.463      914.324     1830.354      989.922        0.429        0.187       67.769       22.105        0.106      348.876       28.891      859.776
09/01/2013  14:15:00       25.705      -55.985       -7.643       46.031       40.810       40.361     2118.853     1665.458     1629.004        0.463        0.271       61.604        1.577        0.001      348.713       28.609      859.763
09/01/2013  14:16:00       -5.394       -9.774       27.542       31.587       38.969       28.686      997.727     1518.595      822.885        0.211        0.167       11.163       16.025        2.061      348.694       28.577      859.741
09/01/2013  14:17:00       31.926       -7.741       27.897       42.788       49.457       30.522     1830.795     2445.955      931.598        0.353        0.260       32.851       31.701        0.931      348.753       28.679      859.725
09/01/2013  14:18:00       36.093      -43.994       14.838       51.379       75.063       51.404     2639.777     5634.475     2642.370        0.719        0.546       56.905       42.108        0.548      348.606       28.423      859.713
09/01/2013  14:19:00        1.094      -49.699       20.541       28.149       59.994       39.126      792.374     3599.270     1530.812        0.441        0.296       49.711       24.998        0.253      348.577       28.373      859.714
09/01/2013  14:20:00       27.935      -26.070       23.331       37.055       53.128       34.893     1373.042     2822.582     1217.534        0.371        0.271       38.210       32.980        0.745      348.579       28.378      859.714
09/01/2013  14:21:00       41.541      -52.747       26.401       45.132       47.719       32.046     2036.856     2277.102     1026.920        0.527        0.267       67.141       33.506        0.249      348.763       28.697      859.705
09/01/2013  14:22:00       -6.610      -26.998       50.898       24.201       54.308       22.370      585.709     2949.346      500.423        0.370        0.202       27.795       11.670        0.176      348.778       28.722      859.689
09/01/2013  14:23:00       24.260      -55.722       17.361       38.092       65.638       34.686     1450.978     4308.392     1203.121        0.548        0.348       60.774       25.878        0.181      348.687       28.563      859.682
09/01/2013  14:24:00      -21.841        6.748       27.753       36.017       23.753       25.688     1297.221      564.197      659.871        0.191        0.126       22.860       25.530        1.247      348.860       28.865      859.668
09/01/2013  14:25:00      -78.970      -21.035       -0.870       37.076       33.808       22.525     1374.664     1142.982      507.357        0.485        0.151       81.723       22.572        0.076      348.780       28.727      859.650
09/01/2013  14:26:00      -71.832      -43.234        7.306       40.718       43.694       25.564     1657.976     1909.204      653.493        0.565        0.211       83.839       22.810        0.074      348.836       28.822      859.635
09/01/2013  14:27:00     -176.470      -55.163      -16.533       48.085       63.736       20.646     2312.196     4062.233      426.245        2.063        0.340      184.891       20.434        0.012      348.764       28.695      859.615
09/01/2013  14:28:00      -85.170       20.982        7.346       54.143       32.544       27.172     2931.419     1059.082      738.323        0.624        0.236       87.716       29.539        0.113      348.893       28.921      859.595
09/01/2013  14:29:00     -175.744      -11.985      -17.807       72.640       56.723       33.347     5276.634     3217.531     1112.028        2.047        0.480      176.152       31.756        0.032      348.832       28.815      859.581
09/01/2013  14:30:00     -173.059       -2.618      -15.933       99.354       48.184       29.993     9871.287     2321.697      899.596        2.165        0.655      173.079       46.342        0.072      348.787       28.738      859.576
09/01/2013  14:31:00      -15.371       24.205       25.789       42.322       27.778       22.798     1791.144      771.636      519.744        0.228        0.154       28.673       24.076        0.705      349.057       29.205      859.553
09/01/2013  14:32:00      -17.981       99.389        1.226       23.029       47.690       28.616      530.353     2274.311      818.894        0.691        0.181      101.003       23.564        0.054      348.934       28.993      859.533
09/01/2013  14:33:00      -19.900      107.552        7.315       38.304       71.283       36.086     1467.223     5081.324     1302.168        0.993        0.393      109.378       35.628        0.106      349.077       29.241      859.513
09/01/2013  14:34:00      -63.111      165.821      -10.755       40.210       58.547       32.624     1616.827     3427.789     1064.345        1.885        0.305      177.425       32.468        0.033      348.929       28.983      859.496
09/01/2013  14:35:00      -54.893      179.778      -15.828       24.501       50.880       20.863      600.302     2588.734      435.250        1.960        0.181      187.972       16.820        0.008      348.759       28.688      859.470
09/01/2013  14:36:00      -51.847      101.726      -10.581       24.478       60.728       23.139      599.175     3687.875      535.397        0.898        0.241      114.177       21.647        0.036      348.891       28.920      859.449
09/01/2013  14:37:00      -29.501      -29.715        3.388       53.823       38.076       31.776     2896.950     1449.772     1009.686        0.356        0.268       41.872       32.161        0.590      348.912       28.955      859.420
09/01/2013  14:38:00       -2.567       25.924       29.927       31.175       21.748       22.343      971.883      472.984      499.213        0.176        0.097       26.051       19.150        0.540      349.425       29.844      859.383
09/01/2013  14:39:00       55.276       37.972       15.124       28.596       13.945       27.464      817.727      194.463      754.276        0.325        0.088       67.062       18.097        0.073      348.826       28.805      859.353
09/01/2013  14:40:00       36.214        3.233       26.538       23.012       22.866       34.261      529.564      522.836     1173.837        0.213        0.111       36.358       12.363        0.116      348.462       28.177      859.325
09/01/2013  14:41:00       -5.267      -36.621       10.068       22.936       32.317       23.641      526.078     1044.365      558.888        0.180        0.106       36.998       17.643        0.227      348.371       28.019      859.312
09/01/2013  14:42:00       -0.437      -10.012       22.012        8.535       27.096       12.138       72.841      734.175      147.322        0.077        0.048       10.021        3.197        0.102      349.122       29.319      859.282
09/01/2013  14:43:00       -6.856       19.763        5.273       37.593       15.675       16.191     1413.243      245.696      262.143        0.119        0.096       20.918       14.794        0.500      348.739       28.655      859.276
09/01/2013  14:44:00      -70.210       10.775        8.198       44.392       37.640       28.577     1970.691     1416.745      816.638        0.466        0.210       71.031       27.694        0.152      349.070       29.228      859.265
09/01/2013  14:45:00      -17.725       -5.036       14.655       53.872       38.073       23.298     2902.160     1449.528      542.782        0.272        0.245       18.427       18.578        1.017      349.136       29.342      859.248
09/01/2013  14:46:00     -122.217     -112.038        8.670       87.614       62.868       46.265     7676.265     3952.395     2140.438        2.066        0.688      165.799       46.907        0.080      349.119       29.309      859.232
09/01/2013  14:47:00     -267.483      -67.894      -28.036       73.748       57.771       40.447     5438.730     3337.515     1635.923        4.368        0.521      275.966       35.814        0.017      349.014       29.127      859.221
09/01/2013  14:48:00     -187.708       25.032       -3.849      136.490       58.882       44.197    18629.656     3467.143     1953.358        2.996        1.203      189.370       45.714        0.058      349.206       29.460      859.211
09/01/2013  14:49:00     -190.847      -48.792       -8.784       80.618       65.454       33.559     6499.242     4284.183     1126.223        2.539        0.595      196.986       38.740        0.039      349.120       29.311      859.208
09/01/2013  14:50:00      -99.932      -46.774        0.420       49.521       57.509       31.868     2452.356     3307.250     1015.588        0.947        0.339      110.336       34.091        0.095      349.089       29.260      859.197
09/01/2013  14:51:00      -93.536      -90.307       10.441       78.634       60.986       42.798     6183.328     3719.285     1831.647        1.437        0.587      130.017       42.346        0.106      349.228       29.502      859.189
09/01/2013  14:52:00     -185.169     -153.324        9.878      117.985       96.665       55.830    13920.429     9344.119     3116.971        4.213        1.319      240.408       57.140        0.056      349.205       29.459      859.174
09/01/2013  14:53:00     -287.266     -259.860      -15.195      142.207      115.821       69.642    20222.830    13414.589     4849.956        9.438        1.924      387.362       72.233        0.035      349.080       29.242      859.154
09/01/2013  14:54:00     -274.378     -185.015      -14.880      151.923       74.698       57.294    23080.553     5579.719     3282.613        7.083        1.597      330.929       59.866        0.033      349.083       29.247      859.156
09/01/2013  14:55:00     -207.598     -110.333       -2.005      111.993       85.137       50.757    12542.387     7248.360     2576.281        3.882        1.118      235.097       60.289        0.066      349.170       29.397      859.149
09/01/2013  14:56:00      -93.609      -41.523       18.765       75.495       76.621       42.401     5699.534     5870.747     1797.886        1.210        0.668      102.405       35.327        0.119      349.495       29.966      859.150
09/01/2013  14:57:00     -143.775      -59.242       14.756       82.135       81.525       51.112     6746.127     6646.332     2612.487        2.020        0.800      155.502       50.058        0.104      349.465       29.912      859.150
09/01/2013  14:58:00      -56.015     -123.364        2.583       70.660       59.198       38.696     4992.859     3504.391     1497.383        1.418        0.500      135.486       39.591        0.085      349.203       29.458      859.157
09/01/2013  14:59:00     -129.193     -109.558       -5.608       99.594       68.092       34.958     9918.877     4636.538     1222.076        2.225        0.789      169.393       50.680        0.090      349.152       29.369      859.149
09/01/2013  15:00:00      -85.875     -125.807        4.484      106.927      128.845       43.911    11433.409    16601.159     1928.149        2.659        1.498      152.322       46.785        0.094      349.262       29.557      859.147
09/01/2013  15:01:00     -106.347        7.973      -10.101       27.856       52.700       26.630      775.955     2777.296      709.158        0.787        0.213      106.645       22.740        0.045      349.227       29.500      859.120
09/01/2013  15:02:00      -52.730      -57.088       17.266       76.059       64.150       46.704     5784.902     4115.236     2181.257        0.921        0.604       77.714       44.148        0.323      349.565       30.086      859.124
09/01/2013  15:03:00      -58.854     -151.713       -5.422       52.876       55.838       32.511     2795.827     3117.877     1056.965        1.674        0.349      162.728       12.123        0.006      349.286       29.601      859.126
09/01/2013  15:04:00      -32.998      -73.325       10.931       78.546       72.937       46.036     6169.483     5319.814     2119.290        1.009        0.680       80.408       47.736        0.352      349.389       29.781      859.120
09/01/2013  15:05:00      -74.227      -20.700       30.664       54.618       75.828       47.069     2983.124     5749.845     2215.531        0.891        0.547       77.059       45.497        0.349      349.416       29.827      859.105
09/01/2013  15:06:00     -119.134     -157.253       18.272      156.520      110.877       75.381    24498.401    12293.817     5682.301        4.086        2.124      197.285       64.153        0.106      349.372       29.749      859.083
09/01/2013  15:07:00     -194.312     -188.723        1.206      138.066      121.279       70.886    19062.192    14708.667     5024.763        5.608        1.940      270.875       72.902        0.072      349.470       29.919      859.098
09/01/2013  15:08:00     -247.059     -132.583      -19.378       98.862       99.033       51.501     9773.609     9807.460     2652.354        5.061        1.112      280.386       36.782        0.017      349.460       29.900      859.098
09/01/2013  15:09:00     -218.835     -163.341       -0.456      132.851       91.233       62.021    17649.308     8323.509     3846.622        5.219        1.491      273.073       72.548        0.071      349.168       29.393      859.086
09/01/2013  15:10:00     -215.748     -166.908       -5.532      130.458       95.723       64.886    17019.336     9162.866     4210.210        5.241        1.520      272.774       68.561        0.063      349.186       29.425      859.080
09/01/2013  15:11:00     -296.066      -94.559      -16.291      114.696       83.192       54.248    13155.133     6920.979     2942.807        5.994        1.151      310.799       56.362        0.033      349.314       29.647      859.096
09/01/2013  15:12:00     -280.467       25.840      -16.855      104.640       69.954       51.248    10949.595     4893.578     2626.321        4.904        0.923      281.654       56.297        0.040      349.378       29.758      859.106
09/01/2013  15:13:00     -209.682      -37.259       -8.641       96.051       50.590       30.865     9225.818     2559.360      952.661        2.908        0.637      212.967       37.993        0.032      349.453       29.890      859.106
09/01/2013  15:14:00     -259.208      -16.964      -18.871      124.916      103.561       42.844    15603.908    10724.899     1835.577        4.799        1.408      259.762       33.366        0.016      349.330       29.676      859.089
09/01/2013  15:15:00     -285.108     -131.417      -11.639       94.310       59.830       43.959     8894.344     3579.634     1932.392        5.655        0.720      313.937       47.198        0.023      349.412       29.818      859.068
09/01/2013  15:16:00     -152.519      -80.633       13.232       97.187      127.327       48.615     9445.265    16212.288     2363.437        2.897        1.401      172.521       46.052        0.071      349.494       29.961      859.071
09/01/2013  15:17:00     -325.833      -43.934       -9.278      179.035      105.806       56.277    32053.471    11194.820     3167.083        7.729        2.321      328.782       64.977        0.039      349.394       29.787      859.052
09/01/2013  15:18:00     -252.342     -145.895      -12.517      174.445      158.643       68.829    30430.968    25167.480     4737.364        7.272        3.017      291.482       71.543        0.060      349.347       29.704      859.041
09/01/2013  15:19:00     -317.381     -134.324      -12.270      173.563      181.094       78.964    30124.109    32795.208     6235.305        9.403        3.458      344.635       93.791        0.074      349.310       29.641      859.036
09/01/2013  15:20:00     -345.217     -118.880      -25.397       98.770      131.050       62.508     9755.565    17174.157     3907.248        8.239        1.542      365.112       54.870        0.023      349.280       29.589      859.035
09/01/2013  15:21:00     -463.459     -124.567      -18.274      189.265      124.537       81.288    35821.165    15509.414     6607.767       14.428        2.897      479.908       90.423        0.036      349.218       29.482      859.007
09/01/2013  15:22:00     -244.326     -148.875       10.089      127.107      144.523       77.384    16156.304    20886.883     5988.245        6.249        2.152      286.110       68.518        0.057      349.300       29.622      859.002
09/01/2013  15:23:00     -131.653      -54.701       11.253      116.797      127.126       64.266    13641.547    16160.942     4130.113        2.719        1.697      142.565       64.932        0.207      349.612       30.167      858.991
09/01/2013  15:24:00     -243.324      -43.185       -7.802      157.771       83.424       57.243    24891.546     6959.560     3276.806        4.812        1.756      247.126       75.097        0.092      349.434       29.858      858.996
09/01/2013  15:25:00     -103.720        5.901       18.562      140.692       65.606       43.118    19794.266     4304.160     1859.176        1.854        1.298      103.888       53.045        0.261      349.705       30.329      858.989
09/01/2013  15:26:00     -351.935       24.666      -33.706       76.966       77.725       54.236     5923.810     6041.179     2941.597        7.025        0.745      352.799       39.564        0.013      349.265       29.563      858.977
09/01/2013  15:27:00      -88.895       15.736       -2.998      109.014       64.169       48.678    11883.966     4117.649     2369.543        1.326        0.919       90.277       38.969        0.186      349.543       30.048      858.982
09/01/2013  15:28:00     -110.161      -26.889        4.666      130.392       89.521       44.210    17002.090     8013.966     1954.494        1.992        1.349      113.395       60.230        0.282      349.516       30.000      858.966
09/01/2013  15:29:00     -234.281      -25.857        2.940       94.327       86.064       54.070     8897.576     7407.096     2923.519        3.739        0.961      235.704       45.819        0.038      349.568       30.088      858.954
09/01/2013  15:30:00     -321.633      -53.647      -25.753       94.036       70.372       46.497     8842.843     4952.252     2161.982        6.147        0.798      326.077       34.569        0.011      349.340       29.693      858.951
09/01/2013  15:31:00     -150.695     -134.756        0.687      108.224       88.976       54.999    11712.524     7916.654     3024.900        3.176        1.133      202.159       62.485        0.096      349.426       29.844      858.948
09/01/2013  15:32:00     -296.749     -172.275      -18.370      100.687      112.154       58.439    10137.804    12578.413     3415.062        7.210        1.307      343.131       46.387        0.018      349.325       29.665      858.927
09/01/2013  15:33:00     -122.452      -19.590        9.403       94.599       63.278       48.268     8948.913     4004.056     2329.779        1.537        0.764      124.009       58.632        0.224      349.664       30.257      858.927
09/01/2013  15:34:00     -205.012     -106.209       12.208      113.303       76.448       44.605    12837.518     5844.277     1989.588        3.706        1.034      230.890       44.671        0.037      349.539       30.039      858.908
09/01/2013  15:35:00     -244.364       18.625      -11.927      112.128       75.099       50.871    12572.596     5639.833     2587.823        4.050        1.040      245.073       56.547        0.053      349.573       30.096      858.919
09/01/2013  15:36:00     -357.419        4.919      -21.982      119.813      117.661       55.863    14355.266    13844.039     3120.727        7.978        1.566      357.452       56.666        0.025      349.280       29.588      858.894
09/01/2013  15:37:00     -310.968      -98.394      -23.705      164.757       84.503       57.209    27144.998     7140.807     3272.878        7.224        1.878      326.163       61.857        0.036      349.339       29.690      858.869
09/01/2013  15:38:00     -233.935     -141.877       -7.886      159.477      129.503       76.344    25432.917    16771.042     5828.364        6.146        2.402      273.596       77.182        0.080      349.263       29.559      858.863
09/01/2013  15:39:00     -308.376      -75.883      -14.544      108.251      102.951       56.022    11718.360    10598.886     3138.504        6.326        1.273      317.575       48.242        0.023      349.289       29.604      858.869
09/01/2013  15:40:00      -92.901      -19.959       13.754      129.369      112.049       68.432    16736.411    12554.875     4682.900        2.159        1.699       95.021       60.633        0.407      349.497       29.967      858.857
09/01/2013  15:41:00     -327.166      -86.385      -23.494      167.518      102.027       58.197    28062.296    10409.500     3386.893        7.845        2.093      338.378       35.066        0.011      349.362       29.731      858.854
09/01/2013  15:42:00     -326.465      -31.199      -14.968      101.873      104.821       48.277    10378.193    10987.453     2330.635        6.573        1.185      327.952       46.454        0.020      349.303       29.628      858.844
09/01/2013  15:43:00     -274.872     -110.221       -8.622      147.696       90.575       57.907    21814.121     8203.767     3353.166        6.057        1.669      296.147       56.423        0.036      349.370       29.746      858.825
09/01/2013  15:44:00     -277.256        4.061      -12.730      103.394       86.870       57.702    10690.232     7546.479     3329.465        4.930        1.078      277.286       52.571        0.036      349.675       30.274      858.827
09/01/2013  15:45:00     -326.337      -71.073       -4.906      154.979       99.513       62.738    24018.528     9902.802     3936.091        7.471        1.893      333.987       60.214        0.033      349.545       30.047      858.812
09/01/2013  15:46:00     -184.085     -136.662       -4.460      148.994      123.746       59.773    22199.167    15312.958     3572.771        4.683        2.054      229.268       63.429        0.077      349.467       29.912      858.822
09/01/2013  15:47:00     -184.201     -169.720        2.215      139.741      123.120       82.136    19527.471    15158.472     6746.391        5.208        2.072      250.469       83.934        0.112      349.463       29.907      858.818
09/01/2013  15:48:00     -217.027      -97.938       10.150      152.941      112.276       66.805    23390.889    12606.006     4462.881        4.862        2.023      238.102       81.204        0.116      349.484       29.944      858.813
09/01/2013  15:49:00     -253.366      -30.982        4.535      120.309       84.198       52.543    14474.143     7089.361     2760.767        4.474        1.216      255.254       56.533        0.049      349.499       29.969      858.814
09/01/2013  15:50:00     -251.822     -166.455       -6.194      130.462      128.740       59.776    17020.349    16573.907     3573.184        6.416        1.858      301.864       72.085        0.057      349.470       29.919      858.810
09/01/2013  15:51:00     -131.191      -91.358       14.658      112.261       72.498       53.288    12602.575     5255.950     2839.589        2.323        1.035      159.867       56.130        0.123      349.520       30.006      858.810
09/01/2013  15:52:00     -171.500      -97.990        2.296      110.797       81.875       46.481    12276.018     6703.519     2160.484        3.008        1.057      197.520       50.252        0.065      349.503       29.976      858.810
09/01/2013  15:53:00     -246.810     -137.676      -14.068      109.687       67.202       44.760    12031.328     4516.071     2003.421        4.931        0.928      282.613       50.228        0.032      349.420       29.832      858.814
09/01/2013  15:54:00     -171.970       -0.154       -4.332      108.497       66.999       45.882    11771.611     4488.822     2105.115        2.398        0.918      171.970       47.171        0.075      349.456       29.897      858.824
09/01/2013  15:55:00      -55.722       31.113       11.697       68.363       79.348       34.922     4673.539     6296.099     1219.513        0.820        0.609       63.820       23.996        0.141      349.640       30.215      858.817
09/01/2013  15:56:00     -240.330      -40.913      -30.531       53.573       67.039       29.642     2870.026     4494.193      878.641        3.430        0.412      243.788       23.705        0.009      349.323       29.662      858.819
09/01/2013  15:57:00     -253.641      -33.366      -33.432       56.029       77.790       42.520     3139.202     6051.325     1807.980        3.878        0.550      255.826       29.625        0.013      349.291       29.606      858.815
09/01/2013  15:58:00     -206.743       34.923      -22.295       66.423       51.128       45.046     4411.962     2614.044     2029.171        2.676        0.453      209.672       40.368        0.037      349.280       29.589      858.806
09/01/2013  15:59:00     -139.272      -68.663       -9.523       92.991       59.651       38.603     8647.276     3558.200     1490.180        1.895        0.685      155.278       42.922        0.076      349.234       29.510      858.793
09/01/2013  16:00:00     -167.051      -28.540      -10.994       49.713       42.258       26.086     2471.387     1785.773      680.502        1.689        0.247      169.471       25.466        0.023      349.214       29.477      858.775
09/01/2013  16:01:00     -197.359      -53.818       -2.369       94.621       66.652       34.780     8953.087     4442.516     1209.677        2.823        0.730      204.566       33.401        0.027      349.239       29.518      858.775
09/01/2013  16:02:00      -83.776       -7.547       17.687       80.272       84.006       51.500     6443.538     7056.950     2652.285        1.177        0.808       84.115       44.152        0.276      349.313       29.649      858.778
09/01/2013  16:03:00     -187.534       13.904       -8.557       64.333       55.641       36.286     4138.737     3095.866     1316.698        2.199        0.428      188.049       33.060        0.031      349.369       29.742      858.783
09/01/2013  16:04:00     -332.558      -76.002       -9.928      148.198      140.504       57.633    21962.577    19741.265     3321.593        8.074        2.251      341.133       64.665        0.036      349.346       29.704      858.781
09/01/2013  16:05:00     -299.219      -79.462      -19.877       97.419       96.884       49.361     9490.486     9386.566     2436.470        5.877        1.066      309.590       47.006        0.023      349.338       29.690      858.777
09/01/2013  16:06:00     -261.940      -73.737      -19.824      122.701       75.426       41.918    15055.583     5689.024     1757.151        4.847        1.125      272.121       44.444        0.027      349.377       29.757      858.770
09/01/2013  16:07:00     -144.498      -55.031        4.561      101.093       72.443       47.773    10219.728     5247.935     2282.254        2.084        0.887      154.622       53.189        0.118      349.298       29.623      858.774
09/01/2013  16:08:00      -39.980       -9.668       13.189       72.474       43.825       42.097     5252.417     1920.607     1772.195        0.540        0.447       41.133       36.061        0.769      349.358       29.727      858.773
09/01/2013  16:09:00     -137.500      -43.662       23.094      111.476      105.914       55.237    12426.843    11217.798     3051.152        2.402        1.335      144.266       58.293        0.163      349.378       29.760      858.777
09/01/2013  16:10:00     -182.558       -6.363       -8.186       89.960       98.525       48.055     8092.794     9707.113     2309.241        2.677        1.005      182.669       44.761        0.060      349.298       29.620      858.782
09/01/2013  16:11:00      -45.666      -27.985       16.497       63.421       38.755       33.511     4022.223     1501.923     1122.984        0.489        0.332       53.558       33.355        0.388      349.379       29.764      858.788
09/01/2013  16:12:00     -162.627     -115.540        0.040       90.063       67.924       50.540     8111.424     4613.720     2554.311        2.754        0.764      199.492       53.336        0.071      349.388       29.775      858.792
09/01/2013  16:13:00     -119.159      -83.074       12.438       95.031       60.337       49.588     9030.823     3640.513     2458.957        1.819        0.757      145.259       49.723        0.117      349.418       29.830      858.803
09/01/2013  16:14:00     -131.756       -4.873        4.631       83.169       65.754       34.683     6917.001     4323.624     1202.937        1.492        0.622      131.846       41.246        0.098      349.446       29.879      858.796
09/01/2013  16:15:00     -179.283       20.417       -0.754      164.541       87.405       62.018    27073.680     7639.659     3846.271        3.555        1.928      180.442       76.374        0.179      349.449       29.883      858.782
09/01/2013  16:16:00     -251.460        3.900      -18.132      118.896      130.891       43.231    14136.158    17132.553     1868.891        4.835        1.657      251.491       49.630        0.039      349.320       29.657      858.791
09/01/2013  16:17:00     -312.821       53.818      -24.305       67.310       63.122       39.309     4530.670     3984.361     1545.188        5.570        0.503      317.417       25.683        0.007      349.229       29.500      858.775
09/01/2013  16:18:00     -273.035       59.460      -23.540       80.402      100.484       43.215     6464.507    10097.013     1867.576        4.853        0.921      279.434       28.359        0.010      349.243       29.524      858.752
09/01/2013  16:19:00     -183.683      -30.769      -15.637       78.393       66.051       39.859     6145.505     4362.789     1588.777        2.351        0.605      186.242       43.011        0.053      349.347       29.706      858.735
09/01/2013  16:20:00     -159.232       -8.727       -2.599       89.650       73.668       35.172     8037.166     5426.969     1237.041        2.007        0.735      159.471       40.801        0.065      349.443       29.874      858.719
09/01/2013  16:21:00     -102.173       27.805        5.143       90.156       46.981       24.124     8128.087     2207.222      581.978        1.108        0.546      105.889       33.156        0.098      349.441       29.871      858.709
09/01/2013  16:22:00      -83.247       44.293       -9.175       48.520       52.454       33.667     2354.204     2751.441     1133.457        0.761        0.312       94.297       21.983        0.054      349.458       29.900      858.693
09/01/2013  16:23:00     -113.770       25.125        9.476      128.691       57.596       46.278    16561.370     3317.247     2141.609        1.784        1.101      116.511       66.608        0.327      349.451       29.888      858.685
09/01/2013  16:24:00     -171.351      -15.982      -10.687       98.971       72.474       40.896     9795.229     5252.411     1672.463        2.322        0.836      172.095       45.315        0.069      349.375       29.757      858.671
09/01/2013  16:25:00     -188.755      -25.672       -8.751       84.955       76.304       48.345     7217.334     5822.336     2337.225        2.587        0.769      190.493       29.176        0.023      349.394       29.788      858.658
09/01/2013  16:26:00     -157.972      -34.440        7.809       92.274       95.974       54.146     8514.475     9210.923     2931.782        2.343        1.033      161.683       49.338        0.093      349.437       29.863      858.667
09/01/2013  16:27:00     -142.489      -35.645        8.441      123.224       92.528       39.813    15184.032     8561.417     1585.050        2.348        1.267      146.880       47.506        0.105      349.472       29.923      858.683
09/01/2013  16:28:00     -190.927      -51.399      -17.095      111.692       81.155       46.684    12475.162     6586.205     2179.411        3.031        1.062      197.724       52.391        0.070      349.445       29.876      858.681
09/01/2013  16:29:00     -209.507      -20.052      -22.078       99.851      106.987       58.952     9970.163    11446.265     3475.390        3.483        1.245      210.464       44.244        0.044      349.401       29.800      858.680
09/01/2013  16:30:00     -239.063       81.819      -34.998      126.230      189.205       64.816    15934.119    35798.413     4201.113        6.049        2.797      252.677       77.519        0.094      349.417       29.827      858.676
09/01/2013  16:31:00     -359.062     -124.379      -27.803      134.934      112.148       73.872    18207.107    12577.229     5457.031        9.070        1.812      379.994       57.657        0.023      349.304       29.630      858.672
09/01/2013  16:32:00     -297.967      -69.986       -5.594      120.037      102.264       64.094    14408.869    10457.869     4108.003        6.134        1.449      306.076       61.878        0.041      349.353       29.715      858.692
09/01/2013  16:33:00     -235.902       36.685      -15.868      106.671       83.486       49.852    11378.681     6969.946     2485.235        3.904        1.042      238.737       47.583        0.040      349.385       29.771      858.696
09/01/2013  16:34:00     -150.891      -33.670        2.144       90.275       69.057       38.731     8149.508     4768.896     1500.109        1.916        0.721      154.602       37.104        0.058      349.505       29.981      858.692
09/01/2013  16:35:00     -194.862      -68.960        2.067      100.159       77.099       49.415    10031.771     5944.188     2441.797        3.057        0.921      206.704       47.223        0.052      349.489       29.950      858.704
09/01/2013  16:36:00     -253.690      -79.480      -13.713      126.449       67.241       43.412    15989.472     4521.409     1884.604        4.662        1.120      265.848       53.196        0.040      349.290       29.606      858.695
09/01/2013  16:37:00      -63.092       21.889        1.810       63.531       64.531       29.661     4036.243     4164.214      879.764        0.677        0.454       66.781       26.841        0.162      349.387       29.778      858.696
09/01/2013  16:38:00      -34.337      -42.223       10.179       55.651       46.586       38.428     3097.005     2170.240     1476.680        0.490        0.337       54.423        8.193        0.023      349.375       29.756      858.695
09/01/2013  16:39:00     -205.630      -33.813       -2.051      101.815       68.744       40.808    10366.261     4725.678     1665.273        3.009        0.838      208.392       42.544        0.042      349.377       29.758      858.707
09/01/2013  16:40:00     -167.463       24.758      -13.329       84.941       68.096       37.153     7214.921     4637.061     1380.356        2.103        0.662      169.284       31.059        0.034      349.368       29.742      858.726
09/01/2013  16:41:00      -84.120       66.538        0.764       47.142       67.633       42.172     2222.330     4574.237     1778.488        1.004        0.429      107.255       32.205        0.090      349.390       29.784      858.721
09/01/2013  16:42:00      -95.884      144.374       -7.011       43.686       69.236       34.175     1908.458     4793.590     1167.939        1.898        0.393      173.314       31.417        0.033      349.235       29.512      858.718
09/01/2013  16:43:00     -166.790       90.768      -28.894       56.596       91.923       30.132     3203.063     8449.896      907.949        2.472        0.628      189.889       41.228        0.047      349.193       29.437      858.709
09/01/2013  16:44:00     -267.767     -119.266      -20.358       62.941       82.184       41.222     3961.597     6754.283     1699.276        4.937        0.621      293.127       25.921        0.008      349.207       29.462      858.692
09/01/2013  16:45:00     -381.137      -98.646      -20.626      138.326      125.780       63.758    19134.019    15820.653     4065.049        9.721        1.951      393.696       71.693        0.033      349.241       29.522      858.673
09/01/2013  16:46:00     -257.558      -15.428       -5.391      128.000       89.821       50.633    16384.009     8067.891     2563.662        4.680        1.351      258.020       60.299        0.055      349.284       29.598      858.686
09/01/2013  16:47:00     -219.201      -12.435      -21.647       68.074       69.111       36.191     4634.127     4776.327     1309.786        2.969        0.536      219.553       31.235        0.020      349.280       29.588      858.684
09/01/2013  16:48:00     -132.796       58.939      -14.004       83.013       59.588       48.611     6891.218     3550.758     2363.074        1.705        0.640      145.287       37.881        0.068      349.167       29.395      858.673
09/01/2013  16:49:00     -242.936      -46.891      -24.522       94.643      141.689       67.205     8957.220    20075.657     4516.577        4.768        1.677      247.420       62.367        0.064      349.017       29.132      858.665
09/01/2013  16:50:00     -222.954      111.828      -23.497      105.931      146.816       77.085    11221.278    21554.967     5942.040        5.073        1.936      249.428       58.271        0.055      348.956       29.028      858.656
09/01/2013  16:51:00     -217.445      146.042      -19.483      161.304      143.721       72.236    26018.954    20655.745     5218.099        6.043        2.595      261.936       81.343        0.096      348.934       28.990      858.673
09/01/2013  16:52:00     -298.990       20.473      -58.936       92.589      125.031       63.526     8572.687    15632.867     4035.501        6.076        1.412      299.691       43.988        0.022      348.887       28.905      858.673
09/01/2013  16:53:00     -245.320      116.266      -37.169      156.305       93.782       58.959    24431.370     8795.034     3476.143        5.588        1.835      271.477       74.376        0.075      348.890       28.914      858.678
09/01/2013  16:54:00     -249.724       23.743      -20.422       93.580       88.596       73.848     8757.274     7849.315     5453.481        4.270        1.103      250.851       37.731        0.023      348.890       28.914      858.666
09/01/2013  16:55:00     -199.725       43.244      -22.347       73.907       68.486       40.917     5462.203     4690.395     1674.192        2.704        0.591      204.353       36.625        0.032      348.850       28.844      858.670
09/01/2013  16:56:00     -234.610       37.456      -25.378       98.326      120.973       57.951     9667.989    14634.480     3358.338        4.237        1.383      237.581       50.641        0.045      348.911       28.950      858.670
09/01/2013  16:57:00     -171.739       16.646      -18.971       84.223       91.498       49.594     7093.535     8371.804     2459.608        2.402        0.896      172.543       43.764        0.064      348.918       28.964      858.682
09/01/2013  16:58:00     -127.926       92.455       -4.006       96.988      114.135       68.249     9406.631    13026.900     4657.950        2.600        1.355      157.839       59.357        0.141      348.978       29.067      858.693
09/01/2013  16:59:00     -218.594      196.155      -49.120       81.136      112.685       50.114     6583.117    12697.810     2511.398        5.523        1.090      293.700       48.890        0.028      348.862       28.864      858.701
09/01/2013  17:00:00     -165.422      156.905      -14.121      140.560       87.575       65.498    19757.181     7669.432     4289.937        4.194        1.586      227.999       66.586        0.085      348.864       28.869      858.698
09/01/2013  17:01:00     -155.581      175.226      -33.555       87.460       89.247       46.789     7649.324     7964.967     2189.192        3.692        0.890      234.328       41.091        0.031      348.869       28.876      858.709
09/01/2013  17:02:00     -120.289      178.507      -19.252       70.002      117.041       44.456     4900.222    13698.698     1976.325        3.364        1.029      215.254       57.631        0.072      348.884       28.905      858.712
09/01/2013  17:03:00     -137.465      193.633      -26.379       70.590       86.506       52.035     4982.926     7483.269     2707.693        3.613        0.759      237.466       53.737        0.051      348.896       28.922      858.718
09/01/2013  17:04:00      -92.300      175.225       -3.532       74.752      111.107       55.004     5587.861    12344.658     3025.405        3.009        1.048      198.048       46.944        0.056      348.900       28.931      858.699
09/01/2013  17:05:00      -12.993      132.000        9.279       63.408      115.561       59.301     4020.533    13354.411     3516.562        1.928        1.045      132.638       56.776        0.183      348.981       29.074      858.651
09/01/2013  17:06:00     -140.116      364.074      -46.206       98.043      109.731       58.193     9612.390    12040.975     3386.404        8.967        1.252      390.106       51.172        0.017      348.925       28.975      858.614
09/01/2013  17:07:00     -135.979      226.735      -19.369       86.868      112.245       72.829     7545.982    12598.997     5304.002        4.786        1.272      264.384       65.857        0.062      348.971       29.054      858.633
09/01/2013  17:08:00     -234.336      137.876      -32.487      181.476      129.223       78.264    32933.632    16698.643     6125.310        6.536        2.788      271.888       91.818        0.114      348.934       28.988      858.660
09/01/2013  17:09:00     -209.094      137.011      -20.409      130.621       95.706       74.455    17061.882     9159.563     5543.560        4.733        1.588      249.985       79.491        0.101      348.817       28.786      858.692
09/01/2013  17:10:00     -247.984       74.548      -31.144      100.041      122.446       67.395    10008.196    14993.061     4542.123        4.878        1.477      258.947       60.081        0.054      348.804       28.762      858.692
09/01/2013  17:11:00     -106.569      158.691      -28.220       86.130      111.244       48.902     7418.352    12375.302     2391.369        2.976        1.109      191.154       29.087        0.023      348.810       28.775      858.700
09/01/2013  17:12:00      -94.875      -31.122       -8.732       91.080       69.327       50.999     8295.652     4806.195     2600.904        1.287        0.785       99.849       50.792        0.259      348.896       28.927      858.724
09/01/2013  17:13:00     -188.461       69.984      -28.180      114.173       99.899       53.278    13035.521     9979.862     2838.569        3.353        1.293      201.035       61.060        0.092      348.834       28.817      858.731
09/01/2013  17:14:00     -182.777       44.687      -17.437       74.356      118.709       42.682     5528.814    14091.762     1821.781        2.857        1.072      188.161       35.061        0.035      348.824       28.800      858.729
09/01/2013  17:15:00     -140.263      -51.386       -0.269       80.477       68.632       43.798     6476.619     4710.294     1918.270        1.771        0.655      149.379       35.099        0.055      348.802       28.762      858.723
09/01/2013  17:16:00      -19.431       55.093       36.936       52.370       51.905       34.654     2742.568     2694.142     1200.866        0.571        0.332       58.419       32.726        0.314      348.875       28.890      858.716
09/01/2013  17:17:00     -113.078      -36.317        5.036       62.776       41.278       29.732     3940.765     1703.833      883.965        1.033        0.326      118.767       30.149        0.064      348.780       28.725      858.710
09/01/2013  17:18:00     -155.582        4.164       -5.725       97.766       87.175       46.156     9558.170     7599.417     2130.353        2.177        0.964      155.638       49.501        0.101      348.814       28.783      858.718
09/01/2013  17:19:00     -157.091       28.649      -15.482       72.708       56.580       38.679     5286.394     3201.326     1496.049        1.786        0.499      159.682       35.261        0.049      348.757       28.685      858.706
09/01/2013  17:20:00     -104.557        9.170        0.552      120.049       81.956       52.867    14411.786     6716.825     2794.915        1.747        1.196      104.958       62.358        0.353      348.762       28.694      858.718
09/01/2013  17:21:00     -174.683       82.050      -19.905       60.477       76.896       52.415     3657.423     5913.051     2747.325        2.498        0.616      192.993       38.728        0.040      348.741       28.657      858.708
09/01/2013  17:22:00     -146.709       13.259      -32.659       56.784       82.741       32.612     3224.424     6845.993     1063.522        1.695        0.557      147.306       14.690        0.010      348.741       28.658      858.697
09/01/2013  17:23:00     -247.150      -45.397      -21.049       87.971       74.658       41.291     7738.888     5573.760     1704.935        3.930        0.751      251.284       46.405        0.034      348.725       28.629      858.702
09/01/2013  17:24:00      -83.682       44.568      -15.845       59.975       76.146       41.006     3596.989     5798.228     1681.499        1.016        0.554       94.811       31.816        0.113      348.776       28.718      858.705
09/01/2013  17:25:00     -144.502      -44.819      -13.187       49.408       48.396       24.249     2441.190     2342.182      588.003        1.422        0.269      151.293       16.407        0.012      348.798       28.758      858.709
09/01/2013  17:26:00     -204.878      -32.661      -38.056       45.022       70.875       33.467     2026.986     5023.222     1120.057        2.633        0.409      207.465       21.652        0.011      348.780       28.722      858.710
09/01/2013  17:27:00     -200.244      -10.253      -23.186       75.314       71.716       43.399     5672.218     5143.198     1883.482        2.672        0.635      200.506       33.065        0.027      348.800       28.757      858.704
09/01/2013  17:28:00     -252.320       88.165      -36.192      115.907      153.800       65.801    13434.317    23654.564     4329.729        5.708        2.071      267.280       74.862        0.078      348.793       28.746      858.716
09/01/2013  17:29:00     -204.837      133.559      -40.738       85.026      105.554       58.092     7229.349    11141.549     3374.730        4.160        1.087      244.533       47.937        0.038      348.779       28.721      858.730
09/01/2013  17:30:00     -171.462       35.474      -35.881      120.947      112.080       63.052    14628.168    12562.027     3975.607        3.155        1.558      175.094       56.055        0.102      348.759       28.688      858.738
09/01/2013  17:31:00     -174.776      183.407      -16.939      119.555       98.689       64.515    14293.344     9739.538     4162.249        4.633        1.410      253.348       54.417        0.046      348.641       28.481      858.737
09/01/2013  17:32:00     -145.854       58.482       -7.941      109.399      125.507       63.897    11968.107    15752.077     4082.797        2.827        1.590      157.141       60.453        0.148      348.670       28.533      858.745
09/01/2013  17:33:00     -157.438       67.152      -13.911       93.413      111.627       65.808     8725.917    12460.658     4330.707        2.750        1.276      171.161       52.520        0.094      348.680       28.549      858.742
09/01/2013  17:34:00     -239.860       43.192      -42.295      100.383       88.593       45.154    10076.737     7848.716     2038.856        4.057        0.998      243.718       52.361        0.046      348.675       28.539      858.739
09/01/2013  17:35:00     -211.474       70.737       -7.915       96.645       94.064       52.442     9340.232     8848.008     2750.182        3.536        1.047      222.991       44.791        0.040      348.684       28.556      858.750
09/01/2013  17:36:00     -159.156      219.586      -31.596      131.410      150.154       70.384    17268.497    22546.271     4953.959        5.965        2.238      271.198       96.558        0.127      348.646       28.490      858.733
09/01/2013  17:37:00      -74.371      237.728      -26.347       63.442       95.845       45.556     4024.860     9186.194     2075.390        3.901        0.764      249.090       43.647        0.031      348.662       28.519      858.703
09/01/2013  17:38:00     -152.755      207.026      -29.869       71.831      110.158       53.899     5159.757    12134.717     2905.079        4.364        1.010      257.282       41.231        0.026      348.625       28.454      858.728
09/01/2013  17:39:00     -161.582      105.346      -27.733       92.295       62.876       48.743     8518.378     3953.451     2375.857        2.641        0.742      192.890       42.798        0.049      348.662       28.519      858.741
09/01/2013  17:40:00     -177.310       70.462      -23.655      105.766       86.442       51.672    11186.439     7472.280     2669.947        2.914        1.066      190.797       57.975        0.092      348.649       28.496      858.748
09/01/2013  17:41:00      -62.907       -0.648        2.793       62.532       56.888       40.419     3910.191     3236.191     1633.687        0.637        0.439       62.910       37.092        0.348      348.710       28.604      858.755
09/01/2013  17:42:00     -164.817      -34.315      -16.245      101.376       80.389       48.635    10277.140     6462.462     2365.362        2.385        0.955      168.352       31.267        0.034      348.701       28.587      858.754
09/01/2013  17:43:00     -154.398       -1.366      -12.362       79.903       95.109       51.312     6384.486     9045.713     2632.928        2.102        0.903      154.404       29.239        0.036      348.645       28.491      858.770
09/01/2013  17:44:00     -264.365       99.374      -40.376      102.464      110.950       63.847    10498.835    12309.918     4076.379        5.413        1.344      282.425       57.786        0.042      348.528       28.286      858.765
09/01/2013  17:45:00     -174.764       47.242      -17.007       97.871       93.072       59.066     9578.781     8662.461     3488.826        2.739        1.087      181.037       43.517        0.058      348.584       28.383      858.748
09/01/2013  17:46:00      -70.688       96.515      -11.136       71.693       88.690       52.451     5139.857     7865.963     2751.067        1.509        0.788      119.633       47.786        0.160      348.585       28.388      858.760
09/01/2013  17:47:00      -94.355       59.599       -6.337       75.380       66.011       35.925     5682.154     4357.507     1290.604        1.191        0.567      111.602       36.736        0.108      348.596       28.406      858.773
09/01/2013  17:48:00     -194.058      121.259      -37.818      100.005      122.074       59.565    10000.937    14902.151     3547.940        4.112        1.423      228.828       60.750        0.070      348.541       28.308      858.766
09/01/2013  17:49:00     -222.437       25.089       -4.077      148.256       90.674       66.920    21979.868     8221.783     4478.235        4.240        1.734      223.847       62.659        0.078      348.579       28.374      858.743
09/01/2013  17:50:00     -239.254       -5.918      -28.312       97.461       72.354       51.582     9498.658     5235.033     2660.734        3.773        0.870      239.327       51.022        0.045      348.586       28.387      858.760
09/01/2013  17:51:00     -327.263      166.975      -46.567      137.385      129.802       75.021    18874.658    16848.652     5628.116        8.924        2.068      367.398       67.097        0.033      348.532       28.293      858.766
09/01/2013  17:52:00     -235.632       70.040      -26.785      117.710      128.860       69.235    13855.728    16604.988     4793.487        4.819        1.763      245.821       58.392        0.056      348.545       28.314      858.769
09/01/2013  17:53:00     -283.218       52.757      -36.081      128.569      120.204       70.033    16529.966    14448.973     4904.666        6.008        1.794      288.090       62.729        0.047      348.504       28.245      858.766
09/01/2013  17:54:00     -186.261       75.593      -32.027      113.032      106.091       60.122    12776.216    11255.310     3614.614        3.453        1.382      201.016       50.485        0.063      348.507       28.253      858.785
09/01/2013  17:55:00     -242.239       55.162      -24.766      188.190      169.738       88.070    35415.288    28810.822     7756.370        6.714        3.599      248.440       74.585        0.090      348.491       28.224      858.781
09/01/2013  17:56:00     -256.863       79.559      -27.976      144.891      123.546       79.161    20993.456    15263.651     6266.482        5.780        2.126      268.902       84.879        0.100      348.478       28.202      858.772
09/01/2013  17:57:00     -278.149      137.859      -42.573      161.480      135.706       94.835    26075.855    18416.158     8993.585        7.582        2.674      310.438       86.703        0.078      348.439       28.133      858.780
09/01/2013  17:58:00     -198.667       40.184      -23.875      109.834      126.935       80.263    12063.543    16112.519     6442.221        3.813        1.731      202.690       60.266        0.088      348.440       28.135      858.765
09/01/2013  17:59:00     -251.510       59.389      -38.609      134.898      136.297       76.313    18197.376    18576.982     5823.601        5.543        2.130      258.427       72.682        0.079      348.406       28.076      858.798
09/01/2013  18:00:00     -272.593      114.054      -58.524      133.697      117.764       56.327    17874.984    13868.448     3172.714        6.282        1.746      295.491       59.605        0.041      348.383       28.036      858.782
09/01/2013  18:01:00     -218.061       38.795        1.629      148.955      161.208       83.211    22187.708    25987.876     6924.124        5.207        2.755      221.485       84.811        0.147      348.405       28.074      858.781
09/01/2013  18:02:00     -243.849      134.057      -26.125      165.868      135.852       79.501    27512.187    18455.637     6320.374        6.519        2.614      278.269       82.352        0.088      348.380       28.031      858.757
09/01/2013  18:03:00     -152.919      144.087      -14.574       87.150       95.897       65.955     7595.099     9196.263     4349.996        3.275        1.057      210.107       56.902        0.073      348.411       28.083      858.734
09/01/2013  18:04:00     -199.704      342.066      -50.077      157.281      146.867       82.565    24737.445    21569.883     6816.922       10.625        2.656      396.094       93.192        0.055      348.398       28.061      858.725
09/01/2013  18:05:00     -138.646      240.656      -47.146      115.991      148.367       60.780    13453.833    22012.650     3694.213        5.925        1.958      277.737       81.194        0.085      348.433       28.120      858.675
09/01/2013  18:06:00     -275.048      437.900      -70.172      117.403      167.512       68.064    13783.399    28060.329     4632.758       15.939        2.324      517.115       75.196        0.021      348.497       28.233      858.698
09/01/2013  18:07:00     -228.105      113.177      -34.284       84.138       96.820       58.485     7079.154     9374.150     3420.467        4.294        0.994      254.639       44.026        0.030      348.520       28.272      858.727
09/01/2013  18:08:00     -118.235      -43.891        8.076      143.852       78.503       51.938    20693.368     6162.660     2697.577        2.276        1.478      126.118       65.876        0.273      348.553       28.331      858.733
09/01/2013  18:09:00     -161.899      -39.256       -4.302      112.620       78.258       39.609    12683.231     6124.248     1568.874        2.407        1.019      166.590       25.171        0.023      348.549       28.324      858.739
09/01/2013  18:10:00     -322.083     -168.662      -14.033      158.868      104.727       57.390    25239.041    10967.741     3293.664        8.593        1.975      363.572       56.258        0.024      348.465       28.177      858.745
09/01/2013  18:11:00     -333.605      -85.592      -37.642      139.808      129.218       73.350    19546.160    16697.305     5380.159        8.082        2.081      344.410       71.198        0.043      348.511       28.258      858.752
09/01/2013  18:12:00     -423.394      -61.205      -37.089      177.377      122.031       74.787    31462.528    14891.644     5593.037       11.816        2.597      427.795       84.323        0.039      348.536       28.300      858.750
09/01/2013  18:13:00     -377.061      -92.672      -25.825      140.928       76.710       62.227    19860.588     5884.434     3872.228        9.052        1.481      388.282       68.591        0.031      348.522       28.275      858.755
09/01/2013  18:14:00     -327.113      -81.330      -32.671      101.509      119.219       53.306    10304.155    14213.129     2841.581        7.102        1.368      337.072       40.144        0.014      348.438       28.129      858.765
09/01/2013  18:15:00     -259.637       -6.758      -27.298       91.070       98.041       52.940     8293.739     9612.132     2802.658        4.445        1.035      259.725       36.721        0.020      348.392       28.050      858.748
09/01/2013  18:16:00     -164.049      208.988      -30.201       86.359      125.583       64.067     7457.955    15770.993     4104.637        4.941        1.367      265.684       52.362        0.039      348.367       28.007      858.753
09/01/2013  18:17:00     -203.779      154.128      -36.537       96.660      101.289       51.466     9343.159    10259.540     2648.710        4.443        1.113      255.502       29.700        0.014      348.319       27.924      858.741
09/01/2013  18:18:00     -249.945       44.720      -42.402       77.900      109.091       55.546     6068.423    11900.807     3085.337        4.366        1.053      253.914       42.702        0.028      348.343       27.965      858.737
09/01/2013  18:19:00     -170.179      -36.495       -5.062      101.534       91.079       52.648    10309.224     8295.308     2771.854        2.584        1.069      174.048        9.769        0.003      348.352       27.984      858.736
09/01/2013  18:20:00     -179.563       -6.692      -22.072       66.795       62.897       41.502     4461.604     3956.079     1722.419        2.146        0.507      179.688       31.943        0.032      348.355       27.990      858.734
09/01/2013  18:21:00     -230.369      -77.367      -28.567      102.850      103.111       60.122    10578.027    10631.809     3614.685        4.234        1.241      243.013       30.205        0.015      348.355       27.988      858.711
09/01/2013  18:22:00     -203.471      -95.715       -6.008      111.964      104.483       55.438    12535.909    10916.689     3073.398        3.856        1.326      224.860       43.967        0.038      348.353       27.985      858.709
09/01/2013  18:23:00     -332.978      -75.433      -10.258      133.873      126.276       70.944    17921.939    15945.653     5032.999        7.778        1.945      341.415       66.836        0.038      348.385       28.037      858.721
09/01/2013  18:24:00     -284.105     -112.244        6.672      145.193      112.984       64.141    21081.121    12765.366     4114.087        6.565        1.898      305.474       63.154        0.043      348.382       28.034      858.726
09/01/2013  18:25:00     -304.392      -68.229        6.193      177.789      161.449       72.721    31609.049    26065.848     5288.404        8.014        3.148      311.945       86.478        0.077      348.380       28.031      858.742
09/01/2013  18:26:00     -348.443      -97.910       -8.341      149.960      114.391       69.838    22488.113    13085.189     4877.382        8.575        2.023      361.938       72.401        0.040      348.367       28.006      858.734
09/01/2013  18:27:00     -392.177      -60.483      -20.541      165.220      136.493       69.549    27297.796    18630.296     4837.008       10.431        2.538      396.813       82.743        0.043      348.376       28.022      858.752
09/01/2013  18:28:00     -527.254       56.354      -52.583      147.192      119.956       69.870    21665.533    14389.408     4881.831       16.243        2.047      530.257       72.858        0.019      348.361       27.996      858.774
09/01/2013  18:29:00     -320.203      -47.293      -27.638      114.823      102.071       54.009    13184.259    10418.555     2916.934        6.602        1.326      323.677       55.487        0.029      348.356       27.988      858.766
09/01/2013  18:30:00     -367.835     -104.136       -6.892      210.676      145.208       83.520    44384.582    21085.472     6975.569       10.931        3.622      382.291       96.362        0.064      348.289       27.872      858.746
09/01/2013  18:31:00     -361.963      -55.026      -15.440      120.566      110.372       66.348    14536.122    12181.902     4402.026        8.270        1.556      366.122       70.402        0.037      348.293       27.878      858.779
09/01/2013  18:32:00     -233.494      -38.277       -2.009      158.413      157.979       64.050    25094.620    24957.492     4102.372        5.506        2.708      236.611       76.754        0.105      348.240       27.789      858.793
09/01/2013  18:33:00     -516.640     -177.483      -14.064      155.940      144.327       86.820    24317.416    20830.301     7537.773       17.564        2.634      546.276       76.559        0.020      348.149       27.630      858.791
09/01/2013  18:34:00     -435.019     -126.660       -4.611      219.426      143.555       91.638    48147.636    20608.180     8397.480       14.121        3.858      453.083       93.588        0.043      348.113       27.569      858.789
09/01/2013  18:35:00     -299.215      -83.057      -24.161      123.544       84.110       56.411    15263.014     7074.530     3182.173        6.126        1.276      310.529       52.147        0.028      348.142       27.619      858.792
09/01/2013  18:36:00     -345.904     -102.560       -0.358      219.592      121.398       72.317    48220.434    14737.448     5229.711        9.916        3.409      360.788       81.341        0.051      348.107       27.559      858.806
09/01/2013  18:37:00     -441.716       36.739      -12.754      229.514      196.135       97.792    52676.832    38469.044     9563.313       14.865        5.035      443.242      116.848        0.069      348.077       27.506      858.792
09/01/2013  18:38:00     -405.840      -44.563       -6.308      172.454      152.168       81.534    29740.325    23154.982     6647.766       11.313        2.977      408.279       80.845        0.039      348.096       27.538      858.775
09/01/2013  18:39:00     -396.972     -188.034      -20.942      207.768      134.055       73.140    43167.386    17970.706     5349.510       12.992        3.324      439.254       81.786        0.035      348.076       27.504      858.771
09/01/2013  18:40:00     -459.079      -61.846      -21.927      145.820      135.987       74.213    21263.551    18492.375     5507.538       13.015        2.263      463.226       67.983        0.022      348.067       27.488      858.799
09/01/2013  18:41:00     -375.222      -39.649        3.430      181.439      158.233       88.645    32919.930    25037.802     7857.896       10.408        3.291      377.311       93.934        0.062      348.036       27.434      858.775
09/01/2013  18:42:00     -493.145      -71.495      -34.916      142.302      155.529       78.447    20249.809    24189.161     6153.912       15.005        2.530      498.301       71.781        0.021      348.030       27.425      858.790
09/01/2013  18:43:00     -310.580      -87.310        7.806      181.254      130.044       86.644    32853.112    16911.421     7507.127        8.070        2.864      322.619       94.496        0.086      348.005       27.382      858.790
09/01/2013  18:44:00     -511.903      -99.934      -26.857      251.867      173.091       88.571    63436.807    29960.566     7844.758       18.698        5.062      521.566      111.228        0.045      347.985       27.349      858.783
09/01/2013  18:45:00     -511.461      -73.196      -41.245      228.066      178.577       86.919    52014.242    31889.607     7554.871       18.004        4.573      516.672       94.540        0.033      347.985       27.348      858.781
09/01/2013  18:46:00     -546.038      -29.530      -29.879      202.935      159.609       96.050    41182.498    25475.128     9225.576       18.789        3.794      546.836       99.929        0.033      347.963       27.309      858.752
09/01/2013  18:47:00     -661.438      -14.446      -60.665      218.699      145.114       93.240    47829.290    21058.028     8693.702       25.947        3.879      661.596      109.063        0.027      347.959       27.305      858.748
09/01/2013  18:48:00     -591.065      -43.055      -44.474      239.807      138.080       97.090    57507.211    19066.054     9426.443       21.958        4.300      592.631      117.634        0.039      347.955       27.296      858.738
09/01/2013  18:49:00     -462.913     -145.268      -38.795      193.095      144.785       79.049    37285.866    20962.818     6248.752       15.068        3.225      485.171       85.944        0.031      347.966       27.316      858.735
09/01/2013  18:50:00     -444.696      -13.848      -40.438      236.540      155.901       85.598    55951.029    24305.035     7326.940       14.356        4.379      444.912       87.601        0.039      347.953       27.293      858.729
09/01/2013  18:51:00     -401.979     -145.048      -20.326      215.020      160.905       80.375    46233.668    25890.366     6460.205       13.080        3.929      427.347       87.695        0.042      347.950       27.289      858.729
09/01/2013  18:52:00     -409.957      -63.621      -30.062      244.781      166.840       88.974    59917.788    27835.615     7916.402       13.432        4.783      414.864      103.715        0.062      347.945       27.280      858.709
09/01/2013  18:53:00     -308.163       18.775        3.211      162.368      124.756       78.450    26363.385    15564.075     6154.329        7.169        2.404      308.734       80.185        0.067      347.939       27.268      858.707
09/01/2013  18:54:00     -384.189     -138.633      -19.265      162.956      116.298       76.870    26554.544    13525.111     5908.935       10.658        2.299      408.437       61.727        0.023      347.919       27.232      858.719
09/01/2013  18:55:00     -241.666      -89.304        4.304      154.095      118.226       68.533    23745.125    13977.277     4696.812        5.440        2.121      257.639       68.234        0.070      347.927       27.248      858.717
09/01/2013  18:56:00     -565.282     -101.621      -30.281      205.834      142.904       81.142    42367.525    20421.502     6583.982       20.007        3.469      574.344       78.034        0.018      347.890       27.182      858.685
09/01/2013  18:57:00     -586.193      -30.485      -47.948      217.981      151.475       78.741    47515.600    22944.555     6200.106       21.174        3.833      586.986      101.075        0.030      347.885       27.175      858.705
09/01/2013  18:58:00     -432.568      -82.430      -13.085      220.702      132.303       97.337    48709.543    17504.193     9474.413       13.487        3.784      440.352      118.321        0.072      347.888       27.182      858.698
09/01/2013  18:59:00     -298.894       18.546       -8.469      177.891      166.172       89.494    31645.061    27613.188     8009.175        7.850        3.363      299.468       80.422        0.072      347.854       27.122      858.710
09/01/2013  19:00:00     -463.319      -88.140      -25.185      158.984      125.953       73.081    25275.879    15864.137     5340.859       13.476        2.324      471.628       75.895        0.026      347.880       27.165      858.700
09/01/2013  19:01:00     -469.367      -99.039      -23.710      181.022      155.758       79.330    32768.952    24260.463     6293.306       14.699        3.166      479.702       92.278        0.037      347.863       27.135      858.712
09/01/2013  19:02:00     -566.656     -104.480      -34.320      263.466      197.469      107.018    69414.458    38993.840    11452.750       22.650        5.993      576.207      125.240        0.047      347.859       27.129      858.711
09/01/2013  19:03:00     -513.912      -40.674      -25.384      202.549      158.676       92.320    41026.084    25177.928     8523.059       17.055        3.736      515.519      100.764        0.038      347.846       27.106      858.756
09/01/2013  19:04:00     -567.098     -140.763      -38.916      237.694      180.916       93.657    56498.391    32730.489     8771.573       22.044        4.900      584.307      101.879        0.030      347.840       27.097      858.761
09/01/2013  19:05:00     -366.726      -39.349      -12.321      218.561      162.517       92.814    47768.916    26411.825     8614.427       10.948        4.140      368.831      102.607        0.077      347.833       27.084      858.780
09/01/2013  19:06:00     -404.687      -42.886       -9.189      178.420      173.330       81.810    31833.822    30043.177     6692.955       11.712        3.428      406.953       69.218        0.029      347.838       27.092      858.792
09/01/2013  19:07:00     -427.569      -73.830      -32.525      235.508      142.547       88.515    55464.203    20319.576     7834.888       13.645        4.181      433.896       92.855        0.046      347.833       27.085      858.780
09/01/2013  19:08:00     -374.749     -178.352       -9.659      188.163      161.269       97.038    35405.392    26007.684     9416.372       12.157        3.541      415.026       87.641        0.045      347.821       27.063      858.763
09/01/2013  19:09:00     -369.043      -88.446       -9.153      145.436      126.942       69.584    21151.628    16114.232     4841.911        9.309        2.105      379.494       68.869        0.033      347.821       27.064      858.763
09/01/2013  19:10:00     -405.208     -132.470      -17.202      150.467      132.434       78.906    22640.174    17538.863     6226.169       11.421        2.320      426.311       70.134        0.027      347.818       27.058      858.773
09/01/2013  19:11:00     -416.062      -47.314      -24.251      175.469      157.639       80.488    30789.231    24850.107     6478.280       11.901        3.106      418.743       88.250        0.044      347.809       27.043      858.777
09/01/2013  19:12:00     -655.235     -136.198      -42.324      166.931      159.668       85.368    27865.855    25493.972     7287.693       25.515        3.032      669.240       84.529        0.016      347.815       27.055      858.780
09/01/2013  19:13:00     -452.153     -104.943      -28.428      179.308      130.736       74.293    32151.308    17091.809     5519.514       13.550        2.738      464.171       80.076        0.030      347.816       27.055      858.822
09/01/2013  19:14:00     -280.672     -120.149       -9.213      135.754      134.820       71.151    18429.141    18176.355     5062.409        6.747        2.083      305.307       74.235        0.059      347.792       27.013      858.825
09/01/2013  19:15:00     -229.057       -0.706        4.062      168.023      115.260       70.624    28231.784    13284.896     4987.763        4.948        2.325      229.058       86.610        0.143      347.801       27.029      858.829
09/01/2013  19:16:00     -354.673     -139.054        4.862      188.612      186.587       84.075    35574.426    34814.604     7068.670       11.129        3.873      380.958       87.648        0.053      347.794       27.019      858.860
09/01/2013  19:17:00     -279.002      -42.591        3.554      184.488      140.183       96.458    34035.667    19651.290     9304.192        7.132        3.150      282.234       96.852        0.118      347.789       27.009      858.841
09/01/2013  19:18:00     -265.426      -21.971        6.709      174.742      122.745       82.945    30534.800    15066.438     6879.864        6.172        2.624      266.333       95.522        0.129      347.781       26.997      858.865
09/01/2013  19:19:00     -216.725      -21.822        4.327      182.375      131.932       76.962    33260.509    17406.025     5923.209        5.202        2.829      217.821       91.097        0.175      347.746       26.936      858.843
09/01/2013  19:20:00     -110.506       55.333       30.295      163.685      128.934       87.056    26792.648    16624.056     7578.665        3.358        2.550      123.586       79.889        0.418      347.677       26.818      858.824
09/01/2013  19:21:00     -256.813       20.323       20.650      248.563      142.615      100.970    61783.762    20339.090    10194.947        7.954        4.616      257.616      122.252        0.225      347.750       26.944      858.860
09/01/2013  19:22:00     -349.852      -76.336      -14.715      176.549      138.495       77.835    31169.585    19180.811     6058.344        9.241        2.820      358.083       79.608        0.049      347.759       26.959      858.875
09/01/2013  19:23:00     -435.685      -43.580      -10.443      203.014      135.430       87.546    41214.707    18341.388     7664.246       12.951        3.361      437.860       91.479        0.044      347.732       26.911      858.873
09/01/2013  19:24:00     -503.725     -207.260      -36.727      245.260      213.049      110.258    60152.290    45389.703    12156.825       20.785        5.885      544.697      132.941        0.060      347.724       26.897      858.864
09/01/2013  19:25:00     -469.394     -171.391      -25.774      256.965      128.046       83.387    66030.797    16395.873     6953.414       16.986        4.469      499.706      107.128        0.046      347.731       26.909      858.893
09/01/2013  19:26:00     -253.484      -80.923       -1.780      208.211      180.663       92.862    43351.884    32639.175     8623.297        7.769        4.231      266.088      107.546        0.163      347.714       26.880      858.905
09/01/2013  19:27:00     -229.320     -126.345        9.873      155.514      168.459       84.257    24184.636    28378.539     7099.263        6.414        2.983      261.822       84.084        0.103      347.724       26.898      858.914
09/01/2013  19:28:00     -261.294     -115.803       -1.196      195.694      143.520       79.099    38296.211    20598.117     6256.680        7.341        3.258      285.805       85.964        0.090      347.694       26.847      858.920
09/01/2013  19:29:00     -287.169     -199.246       -1.988      194.436      152.728       82.071    37805.318    23325.883     6735.575        9.500        3.393      349.521       96.643        0.076      347.697       26.850      858.905
09/01/2013  19:30:00     -433.175      -42.455      -25.370      185.661      137.866       79.620    34469.997    19006.921     6339.312       12.494        2.991      435.250       78.116        0.032      347.691       26.839      858.920
09/01/2013  19:31:00     -292.881       -0.810        0.157      232.960      111.590       94.244    54270.463    12452.306     8882.021        8.068        3.780      292.882      105.351        0.129      347.680       26.822      858.955
09/01/2013  19:32:00     -342.888      -67.136       -5.537      266.279      126.120       73.006    70904.568    15906.244     5329.884       10.711        4.607      349.398       89.539        0.066      347.677       26.816      858.977
09/01/2013  19:33:00     -343.275     -189.083       -4.213      204.871      130.829       77.474    41972.140    17116.282     6002.169       10.934        3.255      391.906       76.963        0.039      347.654       26.775      858.996
09/01/2013  19:34:00     -330.863     -134.058        4.907      248.884      155.986       85.422    61943.150    24331.681     7296.948       11.050        4.679      356.990      103.983        0.085      347.637       26.748      858.997
09/01/2013  19:35:00     -263.774      -62.386       -9.184      144.073      105.219       66.949    20756.912    11071.004     4482.106        5.492        1.816      271.051       68.920        0.065      347.623       26.723      859.021
09/01/2013  19:36:00     -251.495      -48.236       -5.464      188.631      134.181       67.949    35581.597    18004.484     4617.008        6.189        2.910      256.079       72.260        0.080      347.599       26.682      859.018
09/01/2013  19:37:00     -554.324       -8.085      -36.259      181.086      143.972       79.874    32792.171    20727.878     6379.873       18.427        2.995      554.383       78.742        0.020      347.582       26.653      858.990
09/01/2013  19:38:00     -541.141     -149.284      -37.924      180.979      184.540       86.243    32753.384    34055.006     7437.936       19.539        3.712      561.355       85.795        0.023      347.554       26.605      858.935
09/01/2013  19:39:00     -555.137     -110.397      -15.436      193.875      183.209       94.028    37587.535    33565.575     8841.345       20.028        4.000      566.008       91.830        0.026      347.534       26.568      858.912
09/01/2013  19:40:00     -345.535     -108.636        2.774      225.350      171.519       96.958    50782.566    29418.642     9400.846       11.039        4.480      362.211       83.806        0.054      347.508       26.524      858.881
09/01/2013  19:41:00     -560.526     -126.629      -18.740      208.693      190.022      105.752    43552.840    36108.301    11183.533       21.069        4.542      574.652      105.670        0.034      347.536       26.573      858.928
09/01/2013  19:42:00     -456.472     -120.139        0.234      209.192      170.094       90.048    43761.432    28931.896     8108.609       15.178        4.040      472.018       94.724        0.040      347.514       26.535      858.967
09/01/2013  19:43:00     -462.836     -114.571        1.004      201.119      143.523       74.205    40448.718    20598.732     5506.432       14.694        3.328      476.806       83.130        0.030      347.482       26.480      859.057
09/01/2013  19:44:00     -307.936       -9.317      -26.667      179.691      126.333       71.936    32288.745    15960.122     5174.766        7.451        2.671      308.077       75.006        0.059      347.465       26.450      859.060
09/01/2013  19:45:00     -286.247      -73.247      -17.354      135.261      144.937       69.077    18295.649    21006.878     4771.643        6.583        2.204      295.470       70.667        0.057      347.480       26.476      859.096
09/01/2013  19:46:00     -364.168      -60.164       -1.327      169.702      134.410       75.933    28798.921    18066.152     5765.881        9.442        2.632      369.104       88.216        0.057      347.452       26.428      859.131
09/01/2013  19:47:00     -302.623      -12.186      -17.651      110.900       96.046       60.349    12298.761     9224.925     3642.060        5.860        1.258      302.868       49.414        0.027      347.431       26.391      859.138
09/01/2013  19:48:00     -279.509      -23.690       -9.502      146.079       97.088       50.688    21339.012     9426.084     2569.313        5.605        1.667      280.511       47.743        0.029      347.396       26.332      859.139
09/01/2013  19:49:00     -493.820     -137.064      -45.966      188.217      152.286       92.261    35425.764    23190.971     8512.151       16.593        3.356      512.489      100.214        0.038      347.356       26.262      859.108
09/01/2013  19:50:00     -394.955     -194.491      -11.894      209.518      115.786       87.379    43897.607    13406.390     7635.151       12.944        3.247      440.246      100.991        0.053      347.341       26.234      859.116
09/01/2013  19:51:00     -367.468      -92.494       -4.979      166.315      152.954       78.910    27660.663    23395.071     6226.730       10.044        2.864      378.929       75.199        0.039      347.328       26.216      859.121
09/01/2013  19:52:00     -279.400      -74.084        7.919      205.062      173.595      102.399    42050.259    30135.208    10485.457        8.313        4.134      289.055      126.253        0.191      347.299       26.164      859.134
09/01/2013  19:53:00     -526.808      -56.838       -9.904      228.878      176.713       96.761    52385.098    31227.480     9362.674       18.690        4.649      529.866      110.447        0.043      347.267       26.108      859.136
09/01/2013  19:54:00     -523.362     -102.364      -15.726      237.458      183.436       94.317    56386.167    33648.907     8895.654       19.176        4.947      533.279      111.760        0.044      347.238       26.059      859.156
09/01/2013  19:55:00     -422.975      -15.484      -12.993      185.072      162.196       85.738    34251.464    26307.605     7350.956       12.360        3.396      423.259       90.156        0.045      347.233       26.049      859.200
09/01/2013  19:56:00     -386.194     -150.336        3.209      217.864      122.411       93.690    47464.683    14984.538     8777.879       12.148        3.561      414.424      104.464        0.064      347.217       26.022      859.219
09/01/2013  19:57:00     -310.271      -88.575       -0.467      125.039      107.042       61.095    15634.833    11458.083     3732.552        6.746        1.541      322.667       56.838        0.031      347.240       26.061      859.219
09/01/2013  19:58:00     -169.769     -120.260       12.416      135.629      107.616       51.711    18395.273    11581.246     2674.002        3.804        1.633      208.048       58.842        0.080      347.235       26.053      859.212
09/01/2013  19:59:00     -110.994      -45.540       11.842       89.068       79.582       45.028     7933.190     6333.313     2027.506        1.541        0.815      119.973       44.358        0.137      347.235       26.057      859.224
09/01/2013  20:00:00     -295.305     -203.130        8.373      156.947      196.080       81.604    24632.434    38447.323     6659.232        9.912        3.487      358.423       97.216        0.074      347.213       26.016      859.219
09/01/2013  20:01:00     -306.529     -237.387       -3.907      167.325      143.741      102.664    27997.604    20661.538    10539.988       10.475        2.960      387.701      112.751        0.085      347.209       26.009      859.193
09/01/2013  20:02:00      -80.140      -69.003       36.353      150.465      108.413       70.861    22639.858    11753.291     5021.298        2.595        1.971      105.754       80.094        0.574      347.217       26.025      859.222
09/01/2013  20:03:00     -212.513      -17.358        4.612      148.027      140.215       70.590    21911.994    19660.373     4982.925        4.601        2.328      213.221       75.116        0.124      347.178       25.955      859.230
09/01/2013  20:04:00     -446.897     -145.289      -23.392      176.821      177.232       79.540    31265.564    31411.213     6326.592       14.517        3.450      469.921       77.329        0.027      347.163       25.931      859.210
09/01/2013  20:05:00     -399.445      -93.723      -17.973      181.871      151.823       72.124    33077.076    23050.111     5201.907       11.498        3.066      410.293       86.403        0.044      347.152       25.911      859.209
09/01/2013  20:06:00     -379.056       23.828      -28.752      112.512      122.768       60.425    12658.963    15072.037     3651.163        8.822        1.569      379.805       48.876        0.017      347.153       25.914      859.205
09/01/2013  20:07:00     -361.853      -58.373      -32.194      154.307       96.224       70.962    23810.639     9259.045     5035.562        8.674        1.905      366.531       71.014        0.038      347.152       25.910      859.191
09/01/2013  20:08:00     -351.675     -113.543        1.450      190.048      137.776       75.039    36118.113    18982.100     5630.871        9.864        3.037      369.550       91.953        0.062      347.148       25.905      859.172
09/01/2013  20:09:00     -488.882     -125.677      -26.154      176.645      184.958       79.605    31203.512    34209.285     6336.999       16.360        3.587      504.777       85.742        0.029      347.181       25.960      859.196
09/01/2013  20:10:00     -406.151     -164.249       -9.439      150.601      126.184       78.017    22680.616    15922.416     6086.685       11.835        2.234      438.105       75.442        0.030      347.217       26.022      859.241
09/01/2013  20:11:00     -485.638     -102.808      -20.845      201.892      151.978       83.311    40760.476    23097.352     6940.653       15.881        3.540      496.401       85.990        0.030      347.162       25.928      859.284
09/01/2013  20:12:00     -321.974      -89.587        2.410      224.870      142.699       88.114    50566.486    20363.031     7764.009        9.518        3.935      334.205      118.139        0.125      347.112       25.843      859.332
09/01/2013  20:13:00     -301.200      -60.718      -11.537      152.449      154.472       74.505    23240.673    23861.549     5550.924        7.359        2.633      307.259       74.842        0.059      347.096       25.814      859.360
09/01/2013  20:14:00     -131.112       -8.763       34.326      149.788      111.361       67.361    22436.418    12401.351     4537.460        2.890        1.969      131.404       79.969        0.370      347.035       25.711      859.394
09/01/2013  20:15:00     -312.709        5.835      -16.292      166.317      141.893       73.171    27661.279    20133.623     5353.945        7.561        2.657      312.763       84.513        0.073      347.030       25.700      859.381
09/01/2013  20:16:00     -363.290      -49.134      -26.432      216.083      109.259       76.717    46692.044    11937.500     5885.428        9.979        3.226      366.598       98.624        0.072      347.026       25.695      859.384
09/01/2013  20:17:00     -392.501      -79.379      -16.779      159.855      119.887       76.465    25553.717    14372.854     5846.906       10.320        2.289      400.448       83.768        0.044      347.028       25.698      859.378
09/01/2013  20:18:00     -472.088      -95.420      -20.906      221.466      168.968       92.803    49047.370    28550.136     8612.424       15.929        4.310      481.635       86.983        0.033      347.003       25.654      859.358
09/01/2013  20:19:00     -474.191     -120.308      -32.579      190.483      151.277       92.192    36283.869    22884.820     8499.444       15.402        3.383      489.215       94.986        0.038      347.012       25.671      859.381
09/01/2013  20:20:00     -552.449        0.497      -41.457      197.887      185.549       97.046    39159.200    34428.568     9417.877       19.495        4.150      552.450       94.479        0.029      346.997       25.645      859.396
09/01/2013  20:21:00     -579.205      -61.835      -39.896      234.353      159.612       87.396    54921.431    25475.883     7638.112       21.445        4.402      582.496       85.480        0.022      346.991       25.634      859.418
09/01/2013  20:22:00     -494.015     -115.611      -12.664      186.888      166.699       85.217    34927.049    27788.688     7261.884       16.376        3.499      507.362       92.444        0.033      347.006       25.661      859.439
09/01/2013  20:23:00     -416.139      -65.021      -16.912      170.057      166.128       81.497    28919.237    27598.382     6641.804       12.041        3.158      421.188       92.466        0.048      347.030       25.699      859.495
09/01/2013  20:24:00     -361.242     -101.129        1.264      250.689      124.809       75.578    62844.826    15577.299     5712.105       11.241        4.207      375.130      100.327        0.072      346.989       25.631      859.503
09/01/2013  20:25:00     -265.474      -15.728        0.835      195.261       99.075       61.381    38126.733     9815.817     3767.636        6.121        2.586      265.939       75.607        0.081      346.978       25.611      859.518
09/01/2013  20:26:00     -533.363      -89.130      -24.261      217.676      171.560       78.746    47382.721    29432.798     6200.900       18.800        4.151      540.759       90.164        0.028      346.953       25.568      859.514
09/01/2013  20:27:00     -512.974     -127.715      -24.367      208.488      138.746       83.814    43467.438    19250.405     7024.808       17.488        3.487      528.634       96.228        0.033      346.945       25.555      859.550
09/01/2013  20:28:00     -211.696       -9.431        1.312      125.572       76.875       52.087    15768.267     5909.792     2713.102        3.464        1.220      211.906       57.413        0.073      346.917       25.507      859.583
09/01/2013  20:29:00     -277.196       22.729      -14.941      235.576      139.732       87.767    55495.949    19524.918     7703.096        8.013        4.136      278.126      110.130        0.157      346.903       25.481      859.562
09/01/2013  20:30:00     -555.803      -62.524      -15.743      228.885      165.657       87.892    52388.274    27442.205     7725.017       20.030        4.378      559.309       92.701        0.027      346.912       25.497      859.560
09/01/2013  20:31:00     -526.115      -62.352       -6.377      246.229      173.230       86.848    60628.534    30008.769     7542.656       18.943        4.909      529.797      110.729        0.044      346.904       25.483      859.637
09/01/2013  20:32:00     -361.030     -126.380       -3.354      219.145      179.683       91.716    48024.484    32286.022     8411.827       11.751        4.436      382.511      103.339        0.073      346.876       25.437      859.648
09/01/2013  20:33:00     -312.283      -74.089        0.389      126.441      116.124       68.126    15987.366    13484.771     4641.117        6.855        1.706      320.952       66.678        0.043      346.871       25.427      859.643
09/01/2013  20:34:00     -305.978      -49.404       -9.103      158.455      107.616       63.672    25107.842    11581.151     4054.167        6.844        2.037      309.941       71.712        0.054      346.839       25.372      859.676
09/01/2013  20:35:00     -240.792      -46.018        0.758      143.873      109.800       63.651    20699.502    12055.950     4051.508        4.845        1.840      245.150       63.029        0.066      346.826       25.351      859.692
09/01/2013  20:36:00     -395.372       21.252      -22.370      156.655      110.541       65.302    24540.838    12219.383     4264.415        9.914        2.051      395.943       64.835        0.027      346.852       25.394      859.696
09/01/2013  20:37:00     -366.597     -114.917      -16.380      190.556      159.951       75.828    36311.477    25584.471     5749.886       10.774        3.382      384.187       80.176        0.044      347.006       25.659      859.720
09/01/2013  20:38:00     -338.006      -93.891      -24.754      216.495      150.750       75.236    46869.907    22725.439     5660.424        9.945        3.763      350.805       76.010        0.047      346.901       25.479      859.730
09/01/2013  20:39:00     -507.384     -134.427      -15.738      205.029      156.282       84.070    42036.873    24424.129     7067.765       17.463        3.676      524.890       89.909        0.029      346.853       25.395      859.757
09/01/2013  20:40:00     -325.362     -118.493      -11.657      139.563      110.921       59.098    19477.928    12303.457     3492.516        7.765        1.764      346.267       63.650        0.034      346.829       25.356      859.796
09/01/2013  20:41:00     -287.930      -78.932      -11.161       91.465       80.145       50.559     8365.866     6423.222     2556.210        5.330        0.867      298.553       44.308        0.022      346.835       25.367      859.821
09/01/2013  20:42:00     -185.087     -121.876       15.063      183.090      177.777       79.505    33521.817    31604.802     6321.119        6.038        3.572      221.610       98.790        0.199      346.788       25.285      859.805
09/01/2013  20:43:00     -305.837      -58.849       -4.566      134.856      134.203       65.830    18186.177    18010.465     4333.537        6.877        2.027      311.447       66.730        0.046      346.849       25.388      859.812
09/01/2013  20:44:00     -254.609      -33.128        1.629      134.910      135.439       69.675    18200.581    18343.791     4854.561        5.365        2.070      256.755       73.631        0.082      346.813       25.327      859.846
09/01/2013  20:45:00     -252.335     -171.733        5.094      200.753      184.046       92.122    40301.775    33872.966     8486.439        8.791        4.133      305.230      111.580        0.134      346.803       25.311      859.849
09/01/2013  20:46:00     -306.075      -59.299      -10.836      198.640      122.629       72.310    39457.755    15037.779     5228.726        7.851        2.986      311.766       89.110        0.082      346.813       25.328      859.844
09/01/2013  20:47:00     -470.243     -211.021      -16.375      220.655      171.798       95.151    48688.567    29514.685     9053.668       17.657        4.363      515.421      107.041        0.043      346.754       25.225      859.890
09/01/2013  20:48:00     -301.263     -129.637        8.090      203.106      191.596      100.067    41252.031    36708.845    10013.450        9.778        4.399      327.971      116.536        0.126      346.736       25.194      859.941
09/01/2013  20:49:00     -446.763     -101.771      -38.302      273.270      152.662       93.064    74676.424    23305.821     8660.906       15.901        5.332      458.208      125.487        0.075      346.743       25.206      859.969
09/01/2013  20:50:00     -324.209     -143.371      -12.718      205.904      120.616       62.962    42396.283    14548.298     3964.248        9.336        3.045      354.495       79.811        0.051      346.719       25.163      859.986
09/01/2013  20:51:00     -338.498     -108.369       -9.320      204.162      119.842       66.579    41682.314    14362.033     4432.723        9.343        3.024      355.422       65.149        0.034      346.672       25.084      859.985
09/01/2013  20:52:00     -500.447      -77.317      -31.597      265.100      196.104      102.498    70278.020    38456.891    10505.939       18.831        5.962      506.385      122.243        0.058      346.683       25.104      859.966
09/01/2013  20:53:00     -559.114      -94.416      -37.015      252.181      154.085       89.042    63595.482    23742.167     7928.489       20.906        4.763      567.030       94.655        0.028      346.685       25.107      860.024
09/01/2013  20:54:00     -402.759      -89.707      -13.757      180.428      166.578       72.059    32554.278    27748.078     5192.439       11.796        3.275      412.628       64.814        0.025      346.675       25.088      860.018
09/01/2013  20:55:00     -538.895     -176.533      -28.193      202.765      154.598       88.011    41113.835    23900.493     7745.891       19.755        3.638      567.073       95.249        0.028      346.660       25.064      860.067
09/01/2013  20:56:00     -364.441     -120.924      -21.103      179.991      182.702       79.559    32396.667    33380.053     6329.673       10.998        3.605      383.979       70.499        0.034      346.657       25.059      860.098
09/01/2013  20:57:00     -305.001      -48.439      -20.389      189.526      137.434       78.350    35920.148    18888.230     6138.718        7.836        3.047      308.824       86.704        0.079      346.633       25.016      860.115
09/01/2013  20:58:00     -314.992      -47.723       -2.344      174.098      110.621       66.147    30310.053    12237.070     4375.477        7.420        2.346      318.586       78.209        0.060      346.626       25.006      860.162
09/01/2013  20:59:00     -220.571      -14.047       -3.604      121.837       98.595       52.320    14844.192     9721.058     2737.426        3.808        1.365      221.017       54.680        0.061      346.637       25.024      860.192
09/01/2013  21:00:00     -287.020      -84.248       -4.164      108.348      152.469       65.553    11739.269    23246.859     4297.133        6.438        1.964      299.129       59.225        0.039      346.625       25.003      860.203
09/01/2013  21:01:00     -163.074      -74.117        2.810      120.982       85.564       58.068    14636.630     7321.238     3371.906        2.871        1.266      179.127       57.792        0.104      346.633       25.018      860.213
09/01/2013  21:02:00     -211.739      -76.560      -11.820      110.658      141.930       63.930    12245.245    20144.240     4086.997        4.365        1.824      225.155       65.640        0.085      346.619       24.993      860.210
09/01/2013  21:03:00     -258.845      -71.084      -23.407      132.347      144.622       77.327    17515.771    20915.488     5979.540        5.850        2.221      268.429       64.383        0.058      346.600       24.961      860.181
09/01/2013  21:04:00     -308.219      -20.175       -6.953      149.976      146.258       75.106    22492.862    21391.488     5640.920        7.248        2.476      308.879       61.865        0.040      346.599       24.960      860.142
09/01/2013  21:05:00     -402.487       -4.308      -39.116      177.169      114.088       66.662    31389.032    13015.977     4443.775       10.619        2.442      402.510       47.321        0.014      346.578       24.922      860.167
09/01/2013  21:06:00     -298.453      -64.848       -5.116      165.539      139.188       78.181    27403.144    19373.245     6112.258        7.309        2.644      305.417       68.843        0.051      346.561       24.893      860.156
09/01/2013  21:07:00     -307.823      -63.256      -11.222      252.832      153.842       79.408    63923.806    23667.496     6305.573        9.637        4.695      314.256       90.494        0.083      346.536       24.851      860.146
09/01/2013  21:08:00     -488.216     -143.112       -9.250      263.138      222.749      103.210    69241.518    49617.253    10652.368       19.419        6.476      508.759      124.030        0.059      346.498       24.787      860.176
09/01/2013  21:09:00     -382.897     -125.870       -3.243      217.027      140.953       98.433    47100.621    19867.763     9689.014       11.955        3.833      403.055      116.291        0.083      346.506       24.799      860.245
09/01/2013  21:10:00     -434.570      -50.523      -25.439      199.013      133.822       71.752    39606.188    17908.361     5148.365       12.734        3.133      437.497       86.330        0.039      346.493       24.779      860.296
09/01/2013  21:11:00     -437.544      -97.623      -21.882      161.134      161.417       82.478    25964.239    26055.451     6802.570       13.013        2.941      448.302       73.396        0.027      346.473       24.742      860.216
09/01/2013  21:12:00     -446.364     -170.886       -2.052      205.226      119.548       73.419    42117.658    14291.703     5390.395       14.511        3.090      477.957       78.924        0.027      346.474       24.744      860.248
09/01/2013  21:13:00     -436.703     -110.980      -16.472      142.350      130.593       67.142    20263.459    17054.498     4508.044       12.255        2.091      450.584       61.252        0.018      346.462       24.723      860.272
09/01/2013  21:14:00     -451.296       25.136      -42.577      157.107      108.320       72.670    24682.709    11733.328     5280.929       12.390        2.085      451.995       76.923        0.029      346.455       24.711      860.268
09/01/2013  21:15:00     -209.005      -97.078        7.475      135.914      126.076       69.974    18472.687    15895.099     4896.341        4.621        1.963      230.450       61.061        0.070      346.443       24.691      860.256
09/01/2013  21:16:00     -558.504     -144.366       -8.017      328.111      219.365      107.773   107657.137    48121.218    11614.980       25.008        8.370      576.860      150.821        0.068      346.383       24.586      860.218
09/01/2013  21:17:00     -576.200     -122.188       -7.038      262.053      205.160      108.849    68671.580    42090.719    11848.180       23.477        6.131      589.013      129.068        0.048      346.365       24.556      860.200
09/01/2013  21:18:00     -590.548      -77.645      -19.107      225.134      163.784       92.703    50685.350    26825.194     8593.773       22.061        4.305      595.631      103.393        0.030      346.364       24.554      860.284
09/01/2013  21:19:00     -599.128     -237.177       -5.328      252.294      156.437       94.699    63652.321    24472.661     8967.958       25.615        4.855      644.366      109.781        0.029      346.366       24.557      860.407
09/01/2013  21:20:00     -315.614     -151.035      -18.275      135.658      113.878       65.969    18403.211    12968.218     4351.855        7.923        1.786      349.891       67.404        0.037      346.372       24.566      860.463
09/01/2013  21:21:00     -306.418      -30.453      -24.961      114.669       99.024       58.446    13148.998     9805.709     3415.956        6.090        1.319      307.928       40.014        0.017      346.377       24.575      860.462
09/01/2013  21:22:00     -149.254        5.190        6.834      117.911       60.039       40.728    13903.055     3604.651     1658.805        2.075        0.958      149.344       55.428        0.138      346.350       24.533      860.432
09/01/2013  21:23:00     -296.886     -140.904      -11.170      141.951      145.002       59.008    20150.012    21025.514     3481.978        7.638        2.233      328.626       69.492        0.045      346.353       24.537      860.402
09/01/2013  21:24:00     -349.777     -115.285      -22.777      140.878      130.074       79.909    19846.603    16919.372     6385.369        8.964        2.158      368.286       67.472        0.034      346.319       24.479      860.365
09/01/2013  21:25:00     -431.334     -197.550       -1.376      189.956      166.355       96.167    36083.181    27673.857     9248.081       14.903        3.650      474.421       96.712        0.042      346.306       24.456      860.417
09/01/2013  21:26:00     -409.047     -214.837      -14.282      217.591      172.289       94.138    47345.990    29683.355     8861.963       14.977        4.295      462.033      113.286        0.060      346.307       24.456      860.386
09/01/2013  21:27:00     -328.032        9.900       -9.197      141.217       84.265       63.591    19942.193     7100.655     4043.828        6.943        1.554      328.182       65.080        0.039      346.300       24.445      860.444
09/01/2013  21:28:00     -346.376        4.242      -20.536      102.471       99.910       51.820    10500.302     9981.923     2685.322        7.179        1.158      346.402       48.973        0.020      346.293       24.432      860.409
09/01/2013  21:29:00     -207.219       23.617       -1.312      113.771      108.849       61.791    12943.738    11848.012     3818.124        3.605        1.430      208.561       61.456        0.087      346.258       24.372      860.353
09/01/2013  21:30:00     -389.608     -114.902       -5.091      226.205      178.070       78.404    51168.638    31708.973     6147.226       12.701        4.451      406.198       93.975        0.054      346.238       24.338      860.329
09/01/2013  21:31:00     -460.186       21.642      -36.441      165.989      135.933       77.399    27552.464    18477.847     5990.670       13.278        2.601      460.695       86.474        0.035      346.224       24.311      860.322
09/01/2013  21:32:00     -472.079      -64.440      -30.660      184.135      145.296       77.518    33905.709    21110.887     6009.101       14.448        3.051      476.457       86.953        0.033      346.217       24.301      860.296
09/01/2013  21:33:00     -356.572     -241.656      -13.557      191.725      208.652      112.152    36758.342    43535.544    12578.030       13.928        4.644      430.745      105.811        0.060      346.210       24.289      860.321
09/01/2013  21:34:00     -378.415     -165.841      -11.541      197.623      124.620       72.042    39055.042    15530.099     5190.073       11.529        2.989      413.160       73.754        0.032      346.209       24.287      860.322
09/01/2013  21:35:00     -418.974       10.582      -31.602      205.773      149.934       71.306    42342.346    22480.075     5084.562       12.326        3.495      419.108       78.841        0.035      346.194       24.263      860.318
09/01/2013  21:36:00     -433.343     -100.733      -36.015      219.025      166.198       79.052    47972.054    27621.854     6249.178       14.052        4.092      444.897       96.212        0.047      346.190       24.254      860.297
09/01/2013  21:37:00     -452.740     -183.815      -16.495      191.322      178.695       87.750    36604.292    31931.726     7700.059       15.762        3.812      488.633       98.379        0.041      346.173       24.225      860.273
09/01/2013  21:38:00     -460.557     -125.914       -3.572      219.594      173.454       95.249    48221.408    30086.122     9072.424       15.766        4.369      477.459       91.062        0.036      346.164       24.210      860.292
09/01/2013  21:39:00     -577.293     -123.721      -29.024      210.766      145.302       96.017    44422.303    21112.540     9219.228       21.207        3.738      590.402      116.755        0.039      346.159       24.203      860.314
09/01/2013  21:40:00     -194.990      -21.852       -4.738      128.351       89.313       55.736    16474.053     7976.762     3106.456        3.303        1.378      196.210       58.595        0.089      346.155       24.199      860.365
09/01/2013  21:41:00     -206.752       72.515      -14.267      136.397       71.329       60.553    18604.171     5087.855     3666.685        3.778        1.368      219.100       57.847        0.070      346.147       24.184      860.304
09/01/2013  21:42:00     -214.490      -17.233       -7.058      131.654       82.666       61.258    17332.857     6833.653     3752.493        3.713        1.396      215.181       61.127        0.081      346.154       24.196      860.294
09/01/2013  21:43:00     -168.801      -84.699       -5.912      133.670       97.251       55.886    17867.789     9457.788     3123.209        3.307        1.522      188.859       70.675        0.140      346.133       24.158      860.294
09/01/2013  21:44:00     -406.680     -101.812        1.288      189.164      172.685       78.700    35782.831    29820.039     6193.666       12.376        3.590      419.231       86.852        0.043      346.109       24.117      860.286
09/01/2013  21:45:00     -313.858      -76.253      -11.793      196.382      126.369       76.642    38565.988    15969.114     5874.008        8.242        3.020      322.989       88.809        0.076      346.112       24.120      860.313
09/01/2013  21:46:00     -424.252      -12.341      -25.766      149.054      143.102       88.450    22217.126    20478.230     7823.378       11.565        2.526      424.432       76.745        0.033      346.094       24.091      860.327
09/01/2013  21:47:00     -437.804     -296.965      -24.491      242.825      192.136       99.807    58964.101    36916.344     9961.504       19.313        5.292      529.019      112.509        0.045      346.102       24.103      860.316
09/01/2013  21:48:00     -156.517      -81.230       -0.931      171.938      126.093       87.335    29562.523    15899.392     7627.464        4.208        2.654      176.341      103.898        0.347      346.111       24.120      860.391
09/01/2013  21:49:00       19.874      -17.567        4.430       48.252       59.070       32.133     2328.297     3489.282     1032.531        0.379        0.343       26.524       30.655        1.336      346.093       24.094      860.386
09/01/2013  21:50:00     -193.925       25.178       -2.140      170.952      111.695       63.658    29224.663    12475.819     4052.399        4.199        2.288      195.553       68.329        0.122      346.082       24.071      860.334
09/01/2013  21:51:00     -129.054      -56.633       26.046      142.072       99.061       57.289    20184.510     9813.018     3281.994        2.690        1.664      140.934       59.519        0.178      346.073       24.057      860.352
09/01/2013  21:52:00     -246.653     -122.563       10.387      203.096      203.761       81.336    41247.928    41518.524     6615.594        8.266        4.469      275.426       75.041        0.074      346.049       24.015      860.346
09/01/2013  21:53:00     -396.615      -77.573      -24.679      212.844      128.630       72.873    45302.732    16545.607     5310.541       11.553        3.358      404.130       88.468        0.048      346.044       24.005      860.347
09/01/2013  21:54:00     -119.874      -55.917       16.894      143.367       99.983       56.194    20554.074     9996.572     3157.773        2.574        1.685      132.274       64.168        0.235      346.036       23.993      860.314
09/01/2013  21:55:00     -300.932      -35.831      -29.664      176.714      168.035       91.782    31227.706    28235.778     8423.976        8.029        3.394      303.058       85.133        0.079      346.038       23.996      860.297
09/01/2013  21:56:00     -420.648      -48.715      -21.080      184.240      122.612       77.471    33944.547    15033.722     6001.826       11.736        2.749      423.459       86.624        0.042      346.045       24.006      860.282
09/01/2013  21:57:00     -533.853     -105.280      -21.901      245.595      184.806      104.979    60316.736    34153.341    11020.589       20.101        5.275      544.135      121.408        0.050      346.019       23.963      860.277
09/01/2013  21:58:00     -402.941      -39.486        5.617      204.770      195.388       88.196    41930.620    38176.530     7778.543       12.590        4.394      404.871      106.493        0.069      345.984       23.902      860.307
09/01/2013  21:59:00     -339.859     -128.441       -4.240      188.593      126.822       78.772    35567.374    16083.888     6204.979        9.493        2.893      363.320       82.636        0.052      346.043       24.003      860.401
09/01/2013  22:00:00      -98.309     -150.043       10.305      104.196      105.519       51.862    10856.720    11134.194     2689.681        2.848        1.234      179.381       59.019        0.108      346.026       23.974      860.427
09/01/2013  22:01:00     -118.166     -157.092      -13.419       80.702      138.922       49.079     6512.786    19299.239     2408.729        3.352        1.411      196.573       32.860        0.028      346.014       23.955      860.383
09/01/2013  22:02:00     -199.092     -148.638       -1.309      122.356       85.090       54.560    14971.071     7240.346     2976.827        4.346        1.259      248.456       55.793        0.050      346.001       23.931      860.402
09/01/2013  22:03:00     -524.941       12.216      -46.323      206.525      190.300       80.785    42652.729    36214.111     6526.248       18.161        4.270      525.083       83.946        0.026      345.928       23.804      860.404
09/01/2013  22:04:00     -286.484     -104.691       -2.806      181.853      163.651       84.243    33070.431    26781.603     7096.928        7.998        3.347      305.014       73.695        0.058      345.897       23.751      860.377
09/01/2013  22:05:00     -374.131     -147.596       -6.269      116.516       86.828       59.216    13575.885     7539.161     3506.559        9.320        1.231      402.192       56.741        0.020      345.884       23.731      860.387
09/01/2013  22:06:00     -265.276       20.299      -13.197      112.964      105.069       52.848    12760.894    11039.402     2792.905        4.877        1.330      266.052       54.318        0.042      345.854       23.679      860.388
09/01/2013  22:07:00     -239.511      -40.726       -6.875      198.927      116.065       69.518    39571.994    13471.191     4832.709        5.846        2.894      242.948       85.563        0.124      345.862       23.695      860.394
09/01/2013  22:08:00     -155.354      -36.083      -12.980      111.494       81.622       57.698    12430.943     6662.191     3329.064        2.401        1.121      159.490       50.048        0.098      345.853       23.678      860.388
09/01/2013  22:09:00     -232.552      -16.703      -10.699      120.850       79.124       49.415    14604.618     6260.669     2441.863        3.889        1.165      233.151       54.985        0.056      345.826       23.630      860.382
09/01/2013  22:10:00     -344.731      -85.711      -39.425      131.177      105.153       54.742    17207.331    11057.206     2996.737        7.949        1.563      355.227       57.714        0.026      345.818       23.616      860.380
09/01/2013  22:11:00     -309.809     -135.641        1.024      183.306      142.000       82.255    33601.248    20164.058     6765.943        8.744        3.027      338.201       81.963        0.059      345.795       23.579      860.370
09/01/2013  22:12:00     -216.465     -114.542        8.231      188.211      153.139       80.024    35423.441    23451.541     6403.784        6.265        3.264      244.902       99.529        0.165      345.799       23.585      860.403
09/01/2013  22:13:00     -342.783      -77.176      -19.646      158.506      118.105       73.023    25124.208    13948.816     5332.293        8.411        2.220      351.363       77.525        0.049      345.769       23.534      860.374
09/01/2013  22:14:00     -312.435      -85.551       -9.907      206.700      141.889       75.522    42724.990    20132.529     5703.551        8.678        3.428      323.936       69.552        0.046      345.741       23.486      860.332
09/01/2013  22:15:00     -435.838      -65.843      -15.906      197.555      142.070       92.202    39028.088    20183.779     8501.226       13.111        3.386      440.784       89.471        0.041      345.738       23.479      860.343
09/01/2013  22:16:00     -412.755      -61.992      -37.525      271.187      143.926       77.676    73542.367    20714.834     6033.595       13.793        5.015      417.385      109.564        0.069      345.755       23.510      860.381
09/01/2013  22:17:00     -221.979     -129.306       -5.318      119.734       79.281       55.433    14336.168     6285.515     3072.824        4.485        1.185      256.895       65.349        0.065      345.739       23.480      860.341
09/01/2013  22:18:00     -395.917      -74.423      -22.064      219.503      177.627       78.848    48181.632    31551.288     6217.038       12.435        4.297      402.851      100.006        0.062      345.746       23.495      860.325
09/01/2013  22:19:00     -406.010      -69.462      -20.067      230.863      159.259       84.079    53297.735    25363.470     7069.349       12.788        4.287      411.909       99.729        0.059      345.741       23.486      860.290
09/01/2013  22:20:00     -513.465      -56.798      -19.350      254.069      146.495       95.250    64550.830    21460.805     9072.527       18.115        4.754      516.597      118.749        0.053      345.745       23.491      860.318
09/01/2013  22:21:00     -487.488     -109.549      -30.789      288.024      180.586       97.158    82957.940    32611.219     9439.721       18.778        6.250      499.646      128.085        0.066      345.788       23.566      860.372
09/01/2013  22:22:00     -400.147       -8.647      -11.284      192.680      140.343       77.803    37125.460    19696.068     6053.250       11.158        3.144      400.240       78.002        0.038      345.796       23.580      860.427
09/01/2013  22:23:00     -292.404      -20.052       -7.449      161.268      108.965       53.487    26007.327    11873.424     2860.867        6.334        2.037      293.090       57.522        0.039      345.796       23.579      860.435
09/01/2013  22:24:00     -239.409     -120.932       -8.698      116.536       84.188       46.743    13580.614     7087.677     2184.905        4.743        1.143      268.219       30.440        0.013      345.748       23.499      860.428
09/01/2013  22:25:00     -222.432     -153.643       10.275      170.498       92.098       69.667    29069.539     8482.122     4853.431        5.779        2.120      270.337       82.305        0.093      345.740       23.484      860.395
09/01/2013  22:26:00     -492.601     -117.412      -10.420      227.478      154.911       92.630    51746.074    23997.403     8580.267       17.042        4.216      506.401      104.211        0.042      345.789       23.569      860.433
09/01/2013  22:27:00     -360.916     -143.938       -7.780      135.737      153.832       86.875    18424.449    23664.401     7547.249       10.033        2.482      388.560       81.747        0.044      345.801       23.589      860.505
09/01/2013  22:28:00     -291.245     -175.581       -4.003      186.196      112.048       74.575    34668.816    12554.669     5561.435        8.422        2.639      340.077       89.195        0.069      345.815       23.611      860.513
09/01/2013  22:29:00     -236.692     -136.592      -11.424      142.743      119.003       73.052    20375.558    14161.744     5336.606        5.733        1.994      273.277       73.910        0.073      345.796       23.580      860.499
09/01/2013  22:30:00     -256.442      -61.711       -9.450      134.996      106.714       76.074    18223.894    11387.964     5787.231        5.252        1.770      263.762       74.513        0.080      345.757       23.511      860.522
09/01/2013  22:31:00     -503.637      -73.161      -28.161      246.006      144.315       78.877    60518.744    20826.877     6221.655       17.366        4.378      508.924       94.546        0.035      345.777       23.546      860.528
09/01/2013  22:32:00     -419.455      -16.079      -27.570      166.608      128.575       70.577    27758.182    16531.607     4981.098       11.311        2.464      419.763       73.086        0.030      345.776       23.546      860.590
09/01/2013  22:33:00     -349.063       -5.627      -14.019      168.288      113.072       73.928    28320.832    12785.235     5465.359        8.431        2.329      349.108       85.263        0.060      345.779       23.550      860.606
09/01/2013  22:34:00     -204.187      -60.609      -10.462      119.998      105.610       53.626    14399.428    11153.383     2875.788        3.695        1.421      212.993       56.335        0.070      345.756       23.513      860.632
09/01/2013  22:35:00     -458.757     -112.383      -30.215      207.542      163.009       72.756    43073.729    26571.793     5293.452       14.945        3.747      472.321       88.877        0.035      345.723       23.455      860.621
09/01/2013  22:36:00     -266.097      -65.607        4.116      145.794      126.999       71.167    21255.775    16128.660     5064.705        5.878        2.122      274.065       70.620        0.066      345.676       23.372      860.631
09/01/2013  22:37:00     -394.481     -249.150      -22.262      192.477      200.357       94.617    37047.250    40142.730     8952.323       15.215        4.307      466.573      103.197        0.049      345.691       23.399      860.670
09/01/2013  22:38:00     -486.965      -81.906      -19.061      235.627      163.247       95.318    55520.046    26649.732     9085.526       16.771        4.563      493.805      105.730        0.046      345.693       23.402      860.658
09/01/2013  22:39:00     -298.106     -114.273      -12.134      143.150      146.941       70.644    20492.034    21591.716     4990.505        7.456        2.354      319.258       79.302        0.062      345.685       23.388      860.697
09/01/2013  22:40:00     -210.858      -71.246        4.086      123.544       95.912       58.333    15263.223     9199.191     3402.776        3.870        1.393      222.569       62.386        0.079      345.662       23.349      860.718
09/01/2013  22:41:00     -242.466      -84.929       -3.560      165.768      163.454       74.928    27478.867    26717.176     5614.244        6.290        2.991      256.910       88.226        0.118      345.652       23.332      860.705
09/01/2013  22:42:00     -352.488     -104.803       -7.791      161.128      129.063       64.335    25962.358    16657.153     4138.934        9.102        2.338      367.738       68.782        0.035      345.656       23.339      860.743
09/01/2013  22:43:00     -285.861     -105.998       -8.734       94.456      131.668       60.435     8921.933    17336.592     3652.421        6.146        1.496      304.880       43.151        0.020      345.629       23.291      860.716
09/01/2013  22:44:00     -274.981     -117.352       -1.328      148.513      133.918       84.121    22056.090    17933.936     7076.398        6.822        2.353      298.975       88.454        0.088      345.613       23.264      860.709
09/01/2013  22:45:00     -350.859     -111.590      -12.434      176.799      161.837       74.945    31257.838    26191.074     5616.744        9.937        3.153      368.177       68.626        0.035      345.602       23.246      860.704
09/01/2013  22:46:00     -277.139      -66.390       25.953      234.627      135.576       88.951    55049.754    18380.791     7912.249        8.160        4.067      284.980      100.898        0.125      345.608       23.256      860.674
09/01/2013  22:47:00     -472.257      -78.744      -33.526      203.259      149.542       76.776    41314.060    22362.718     5894.596       14.995        3.479      478.777       78.658        0.027      345.611       23.261      860.704
09/01/2013  22:48:00     -377.966      -86.308      -17.055      219.728      174.043       86.554    48280.505    30291.035     7491.652       11.831        4.303      387.695       96.049        0.061      345.578       23.204      860.670
09/01/2013  22:49:00     -203.672      -51.640       14.598      164.906      126.739       87.367    27194.095    16062.877     7632.997        4.762        2.544      210.117       98.341        0.219      345.573       23.197      860.653
09/01/2013  22:50:00     -438.522     -177.250       -9.620      237.081      173.475       93.335    56207.398    30093.578     8711.512       15.939        4.751      472.990      105.268        0.050      345.590       23.224      860.595
09/01/2013  22:51:00     -474.245      -67.497      -30.483      209.804      135.109       77.735    44017.522    18254.431     6042.756       14.934        3.416      479.024       90.312        0.036      345.594       23.233      860.593
09/01/2013  22:52:00     -481.431     -180.726      -28.788      149.467      116.083       76.221    22340.470    13475.152     5809.590       15.344        2.081      514.236       67.987        0.017      345.634       23.301      860.592
09/01/2013  22:53:00     -353.511      -88.140      -20.836      164.072      139.953       77.989    26919.601    19586.898     6082.267        9.287        2.629      364.333       77.219        0.045      345.594       23.231      860.592
09/01/2013  22:54:00     -356.019     -119.935       -1.760      192.255      117.261       68.504    36961.871    13750.243     4692.755        9.826        2.770      375.678       79.380        0.045      345.574       23.198      860.604
09/01/2013  22:55:00     -281.493     -124.353        0.366      194.106      159.047      107.058    37677.302    25295.953    11461.489        8.455        3.722      307.737      113.356        0.136      345.563       23.178      860.623
09/01/2013  22:56:00     -322.858     -104.859       -8.712      171.402      124.130       70.845    29378.485    15408.298     5018.958        8.255        2.490      339.459       73.103        0.046      345.566       23.184      860.649
09/01/2013  22:57:00     -204.901     -126.127       -0.474      215.144      112.032       76.237    46286.823    12551.172     5812.062        6.126        3.233      240.609       95.448        0.157      345.593       23.231      860.665
09/01/2013  22:58:00     -105.337       -9.576        6.702      153.809      138.709       57.247    23657.056    19240.207     3277.212        2.869        2.309      105.772       53.168        0.253      345.563       23.181      860.629
09/01/2013  22:59:00     -188.527      -53.708        1.636      107.947       93.975       59.790    11652.559     8831.262     3574.820        3.124        1.203      196.028       61.585        0.099      345.550       23.158      860.631
09/01/2013  23:00:00     -173.446      -51.413       37.227      158.401      123.067       85.615    25090.979    15145.422     7329.992        4.083        2.378      180.906       97.449        0.290      345.566       23.184      860.621
09/01/2013  23:01:00     -472.322     -132.789      -32.373      157.188      144.218       74.516    24707.973    20798.780     5552.697       14.640        2.553      490.634       69.246        0.020      345.630       23.293      860.618
09/01/2013  23:02:00     -307.856     -116.627        4.531      120.176      123.822       65.913    14442.218    15331.886     4344.521        7.125        1.706      329.207       59.118        0.032      345.589       23.222      860.631
09/01/2013  23:03:00     -199.302      -48.018      -12.035      164.719      101.709       46.601    27132.296    10344.691     2171.696        4.090        1.982      205.005       43.275        0.045      345.583       23.214      860.648
09/01/2013  23:04:00     -377.750      -78.395      -16.101      226.896      138.756       67.554    51481.691    19253.160     4563.517       11.218        3.765      385.799       66.439        0.030      345.565       23.183      860.639
09/01/2013  23:05:00     -361.808      -49.221      -23.581      166.241       98.507       64.816    27636.201     9703.657     4201.128        8.770        2.077      365.141       76.271        0.044      345.536       23.135      860.642
09/01/2013  23:06:00     -256.170      -40.604      -29.019      163.002      117.742       58.588    26569.657    13863.102     3432.523        5.598        2.193      259.368       62.915        0.059      345.497       23.065      860.630
09/01/2013  23:07:00     -437.011      -94.560      -18.309      159.527      135.267       82.101    25448.759    18297.264     6740.578       12.536        2.524      447.124       80.414        0.032      345.505       23.079      860.629
09/01/2013  23:08:00     -410.027      -52.109       -9.527      199.859      138.020       90.107    39943.512    19049.484     8119.338       11.901        3.356      413.325      103.149        0.062      345.504       23.077      860.630
09/01/2013  23:09:00     -285.890       25.573      -27.019      138.246      102.190       59.341    19112.075    10442.701     3521.359        5.809        1.654      287.031       48.928        0.029      345.523       23.110      860.622
09/01/2013  23:10:00     -320.629      -66.849      -27.847      187.585      143.103       89.459    35188.248    20478.386     8002.968        8.585        3.183      327.523       92.689        0.080      345.503       23.076      860.617
09/01/2013  23:11:00     -361.430      -94.615      -14.176      163.991      154.702       77.309    26893.072    23932.828     5976.657        9.828        2.840      373.609       69.376        0.034      345.499       23.068      860.622
09/01/2013  23:12:00     -387.025      -93.402        0.665      200.988      155.599       91.016    40396.322    24210.913     8283.918       11.569        3.645      398.136      102.985        0.067      345.503       23.077      860.630
09/01/2013  23:13:00     -337.506       -7.345      -19.758      168.821      104.992       62.870    28500.520    11023.408     3952.590        7.891        2.174      337.586       74.194        0.048      345.492       23.058      860.614
09/01/2013  23:14:00     -422.124        3.194       -8.689      210.735      149.607       60.251    44409.450    22382.165     3630.240       12.433        3.521      422.136       69.951        0.027      345.489       23.051      860.598
09/01/2013  23:15:00     -374.054     -102.619      -12.812      149.406      112.863       67.929    22322.018    12738.112     4614.375        9.513        1.984      387.875       78.411        0.041      345.521       23.106      860.613
09/01/2013  23:16:00     -297.924      -55.388       -2.509      197.867      123.944       69.188    39151.494    15362.217     4786.961        7.555        2.965      303.029       77.626        0.066      345.476       23.030      860.604
09/01/2013  23:17:00     -314.003      -57.565      -17.634      148.081      121.543       63.266    21928.003    14772.645     4002.606        7.145        2.035      319.236       72.894        0.052      345.486       23.045      860.613
09/01/2013  23:18:00     -417.695     -126.734      -10.644      156.053      132.206       76.872    24352.573    17478.432     5909.316       11.918        2.387      436.498       81.403        0.035      345.534       23.130      860.638
09/01/2013  23:19:00     -344.185      -30.350       -7.188      168.136      110.083       72.799    28269.573    12118.229     5299.644        8.255        2.284      345.520       75.600        0.048      345.587       23.219      860.628
09/01/2013  23:20:00     -339.805     -169.354      -21.024      143.281      130.756       73.842    20529.456    17097.203     5452.698        9.383        2.154      379.668       76.237        0.040      345.561       23.175      860.631
09/01/2013  23:21:00     -136.557      -58.226      -11.233       97.857       87.562       30.401     9575.942     7667.191      924.242        2.016        0.908      148.452       17.248        0.013      345.550       23.158      860.640
09/01/2013  23:22:00     -187.341      -71.486        7.020      142.145       80.726       46.695    20205.087     6516.680     2180.460        3.457        1.445      200.517       55.046        0.075      345.516       23.099      860.646
09/01/2013  23:23:00     -311.764      -95.456      -20.882      108.097      102.152       56.851    11684.978    10435.066     3232.083        6.604        1.268      326.050       36.240        0.012      345.496       23.062      860.655
09/01/2013  23:24:00     -316.560      -76.235      -26.831      156.987      115.380       63.633    24644.820    13312.608     4049.097        7.437        2.100      325.610       45.193        0.019      345.541       23.142      860.649
09/01/2013  23:25:00     -253.352      -37.568        6.517      172.236      103.827       65.241    29665.128    10780.078     4256.401        5.516        2.235      256.122       67.218        0.069      345.506       23.082      860.659
09/01/2013  23:26:00     -267.211      -50.666       -9.519      164.182      114.440       54.860    26955.877    13096.445     3009.613        5.855        2.153      271.972       72.205        0.070      345.538       23.137      860.661
09/01/2013  23:27:00     -318.614     -134.300       -5.939      117.603      120.731       60.437    13830.451    14576.019     3652.659        7.582        1.603      345.762       59.440        0.030      345.619       23.275      860.667
09/01/2013  23:28:00     -306.593     -122.802       -6.222      129.586      102.994       58.838    16792.540    10607.753     3461.966        6.998        1.543      330.272       58.279        0.031      345.608       23.255      860.680
09/01/2013  23:29:00     -379.315      -61.524      -23.948      122.538       78.367       58.583    15015.527     6141.356     3431.958        8.641        1.229      384.272       54.139        0.020      345.606       23.252      860.682
09/01/2013  23:30:00     -265.847      -37.121       -9.870      104.515       89.482       49.329    10923.366     8006.959     2433.348        4.675        1.068      268.426       49.744        0.034      345.562       23.178      860.702
09/01/2013  23:31:00     -238.067      -55.462      -22.827      131.806       83.413       59.152    17372.828     6957.721     3498.995        4.405        1.391      244.442       71.870        0.086      345.593       23.231      860.718
09/01/2013  23:32:00     -123.140      -47.010       -6.683       97.661       73.718       42.102     9537.726     5434.308     1772.594        1.708        0.837      131.808       48.012        0.133      345.580       23.210      860.721
09/01/2013  23:33:00     -217.115       11.953      -23.817      147.282       81.077       42.914    21691.959     6573.499     1841.572        3.897        1.505      217.444       55.763        0.066      345.573       23.199      860.726
09/01/2013  23:34:00     -109.470      -29.525        7.531      106.558       71.920       50.135    11354.580     5172.545     2513.515        1.597        0.952      113.382       61.371        0.293      345.546       23.151      860.711
09/01/2013  23:35:00      -71.198       22.780       12.053       67.344       51.765       37.731     4535.249     2679.580     1423.652        0.718        0.432       74.754       39.043        0.273      345.503       23.079      860.721
09/01/2013  23:36:00     -161.649      -87.460      -11.551      109.286       75.679       47.604    11943.467     5727.273     2266.151        2.692        0.997      183.793       51.693        0.079      345.547       23.151      860.717
09/01/2013  23:37:00     -223.528      -13.224      -17.700       89.488       69.357       41.970     8008.135     4810.418     1761.500        3.251        0.729      223.919       44.610        0.040      345.574       23.199      860.719
09/01/2013  23:38:00     -256.223      -85.264      -17.260       87.079       75.599       46.226     7582.672     5715.235     2136.817        4.432        0.772      270.037       38.090        0.020      345.613       23.264      860.732
09/01/2013  23:39:00     -131.164      -34.883       10.285      118.366       67.479       42.834    14010.479     4553.475     1834.715        1.946        1.020      135.723       63.124        0.216      345.552       23.161      860.731
09/01/2013  23:40:00     -194.506      -41.955      -13.237       76.790       62.499       43.920     5896.652     3906.122     1928.986        2.575        0.587      198.980       37.526        0.036      345.593       23.232      860.721
09/01/2013  23:41:00     -136.534      -49.720       -5.112       57.586       54.829       32.598     3316.199     3006.180     1062.615        1.426        0.369      145.306       28.814        0.039      345.580       23.209      860.713
09/01/2013  23:42:00     -120.476      -33.447        6.160      101.600       70.529       31.043    10322.644     4974.341      963.679        1.596        0.813      125.033       42.014        0.113      345.552       23.162      860.710
09/01/2013  23:43:00     -170.529      -97.549        3.246      120.693       87.221       37.953    14566.847     7607.464     1440.434        3.111        1.181      196.459       52.322        0.071      345.559       23.171      860.718
09/01/2013  23:44:00     -127.414      -59.017       -9.908       64.947       69.834       34.613     4218.167     4876.775     1198.064        1.505        0.515      140.418       35.593        0.064      345.600       23.246      860.734
09/01/2013  23:45:00     -159.097       44.764       -3.267       83.809       43.325       36.278     7023.885     1877.042     1316.114        1.877        0.511      165.274       40.791        0.061      345.608       23.258      860.739
09/01/2013  23:46:00     -106.083        0.284        4.706       64.360       45.209       31.253     4142.170     2043.809      976.749        0.922        0.358      106.084       26.237        0.061      345.570       23.194      860.739
09/01/2013  23:47:00     -185.955      -73.356      -11.689       51.202       57.158       31.865     2621.612     3267.067     1015.368        2.350        0.345      199.901       25.107        0.016      345.605       23.252      860.741
09/01/2013  23:48:00     -211.811      -55.209       -2.612      107.541       82.400       48.257    11565.151     6789.762     2328.781        3.430        1.034      218.887       52.485        0.057      345.587       23.221      860.739
09/01/2013  23:49:00     -182.123      -36.230       -8.221       77.566       57.649       32.627     6016.409     3323.438     1064.537        2.247        0.520      185.691       28.914        0.024      345.584       23.217      860.730
09/01/2013  23:50:00     -248.283      -47.514      -10.711      136.908       72.687       50.387    18743.829     5283.404     2538.888        4.529        1.328      252.788       50.633        0.040      345.638       23.308      860.734
09/01/2013  23:51:00     -261.179      -90.596      -28.207       83.962       89.240       43.643     7049.572     7963.840     1904.714        4.706        0.846      276.445       41.246        0.022      345.662       23.348      860.733
09/01/2013  23:52:00     -173.135     -120.138       -2.452       59.065       48.336       38.791     3488.649     2336.411     1504.766        2.587        0.366      210.734       27.091        0.017      345.642       23.315      860.726
09/01/2013  23:53:00      -73.715      -31.368        4.365       61.719       30.441       26.116     3809.268      926.657      682.057        0.593        0.271       80.112       22.763        0.081      345.619       23.278      860.714
09/01/2013  23:54:00     -127.382      -41.560       -1.022       58.528       56.119       26.993     3425.514     3149.359      728.619        1.263        0.365      133.990       30.461        0.052      345.613       23.267      860.705
09/01/2013  23:55:00      -94.784     -104.837       -0.866       70.663       57.009       40.185     4993.324     3250.034     1614.844        1.491        0.493      141.333       44.439        0.099      345.605       23.255      860.703
09/01/2013  23:56:00      -63.149      -49.467       15.010       90.543       46.981       40.209     8198.002     2207.248     1616.803        0.934        0.601       80.217       46.672        0.339      345.584       23.218      860.705
09/01/2013  23:57:00     -200.423      -25.852      -12.342       59.720       38.752       31.499     3566.533     1501.696      992.179        2.352        0.303      202.083       26.815        0.018      345.557       23.170      860.715
09/01/2013  23:58:00     -233.529      -46.677      -14.786       68.938       36.935       21.565     4752.500     1364.166      465.070        3.176        0.329      238.148       15.999        0.005      345.565       23.182      860.707
09/01/2013  23:59:00     -302.791      -63.226      -11.387      107.495       62.344       51.536    11555.246     3886.722     2655.976        5.695        0.905      309.322       52.541        0.029      345.613       23.264      860.707
